[[{"header":{"parameterUnit":"m.s-1","parameterCategory":1,"la1":31.0,"la2":29.5877,"lo1":-88.7671,"lo2":-86.6584,"dx":0.0162,"dy":0.0185,"nx":115,"ny":88,"refTime":"2023-01-25T18:00:00:Z","depth":0,"parameterNumber":2,"parameterNumberName":"U-component_of_WINDS"},"data":[0.0,0.0,0.0,0.0,0.0,0.0,0.0,0.0,0.0,0.0,0.0,0.0,0.0,0.0,0.0,0.0,0.0,0.0,0.0,0.0,0.0,0.0,0.0,0.0,0.0,0.0,0.0,0.0,0.0,0.0,0.0,0.0,0.0,0.0,0.0,0.0,0.0,0.0,0.0,0.0,0.0,0.0,0.0,0.0,0.0,0.0,0.0,0.0,0.0,0.0,0.0,0.0,0.0,0.0,0.0,0.0,0.0,0.0,0.0,0.0,0.0,0.0,0.0,0.0,0.0,0.0,0.0,0.0,0.0,0.0,0.0,0.0,0.0,0.0,0.0,0.0,0.0,0.0,0.0,0.0,0.0,0.0,0.0,0.0,0.0,0.0,0.0,0.0,0.0,0.0,0.0,0.0,0.0,0.0,0.0,0.0,0.0,0.0,0.0,0.0,0.0,0.0,0.0,0.0,0.0,0.0,0.0,0.0,0.0,0.0,0.0,0.0,0.0,0.0,0.0,0.0,0.0,0.0,0.0,0.0,0.0,0.0,0.0,0.0,0.0,0.0,0.0,0.0,0.0,0.0,0.0,0.0,0.0,0.0,0.0,0.0,0.0,0.0,0.0,0.0,0.0,0.0,0.0,0.0,0.0,0.0,0.0,0.0,0.0,0.0,0.0,0.0,0.0,0.0,0.0,0.0,0.0,0.0,0.0,0.0,0.0,0.0,0.0,0.0,0.0,0.0,0.0,0.0,0.0,0.0,0.0,0.0,0.0,0.0,0.0,0.0,0.0,0.0,0.0,0.0,0.0,0.0,0.0,0.0,0.0,0.0,0.0,0.0,0.0,0.0,0.0,0.0,0.0,0.0,0.0,0.0,0.0,0.0,0.0,0.0,0.0,0.0,0.0,0.0,0.0,0.0,0.0,0.0,0.0,0.0,0.0,0.0,0.0,0.0,0.0,0.0,0.0,0.0,0.0,0.0,0.0,0.0,0.0,0.0,0.0,0.0,0.0,0.0,0.0,0.0,0.0,0.0,0.0,0.0,0.0,0.0,0.0,0.0,0.0,0.0,0.0,0.0,0.0,0.0,0.0,0.0,0.0,0.0,0.0,0.0,0.0,0.0,0.0,0.0,0.0,0.0,0.0,0.0,0.0,0.0,0.0,0.0,0.0,0.0,0.0,0.0,0.0,0.0,0.0,0.0,0.0,0.0,0.0,0.0,0.0,0.0,0.0,0.0,0.0,0.0,0.0,0.0,0.0,0.0,0.0,0.0,0.0,0.0,0.0,0.0,0.0,0.0,0.0,0.0,0.0,0.0,0.0,0.0,0.0,0.0,0.0,0.0,0.0,0.0,0.0,0.0,0.0,0.0,0.0,0.0,0.0,0.0,0.0,0.0,0.0,0.0,0.0,0.0,0.0,0.0,0.0,0.0,0.0,0.0,0.0,0.0,0.0,0.0,0.0,0.0,0.0,0.0,0.0,0.0,0.0,0.0,0.0,0.0,0.0,0.0,0.0,0.0,0.0,0.0,0.0,0.0,0.0,0.0,0.0,0.0,0.0,0.0,0.0,0.0,0.0,0.0,0.0,0.0,0.0,0.0,0.0,0.0,0.0,0.0,0.0,0.0,0.0,0.0,0.0,0.0,0.0,0.0,0.0,0.0,0.0,0.0,0.0,0.0,0.0,0.0,0.0,0.0,0.0,0.0,0.0,0.0,0.0,0.0,0.0,0.0,0.0,0.0,0.0,0.0,0.0,0.0,0.0,0.0,0.0,0.0,0.0,0.0,0.0,0.0,0.0,0.0,0.0,0.0,0.0,0.0,0.0,0.0,0.0,0.0,0.0,0.0,0.0,0.0,0.0,0.0,0.0,0.0,0.0,0.0,0.0,0.0,0.0,0.0,0.0,0.0,0.0,0.0,0.0,0.0,0.0,0.0,0.0,0.0,0.0,0.0,0.0,0.0,0.0,0.0,0.0,0.0,0.0,0.0,0.0,0.0,0.0,0.0,0.0,0.0,0.0,0.0,0.0,0.0,0.0,0.0,0.0,0.0,0.0,0.0,0.0,0.0,0.0,0.0,0.0,0.0,0.0,0.0,0.0,0.0,0.0,0.0,0.0,0.0,0.0,0.0,0.0,0.0,0.0,0.0,0.0,0.0,0.0,0.0,0.0,0.0,0.0,0.0,0.0,0.0,0.0,0.0,0.0,0.0,0.0,0.0,0.0,0.0,0.0,0.0,0.0,0.0,0.0,0.0,0.0,0.0,0.0,0.0,0.0,0.0,0.0,0.0,0.0,0.0,0.0,0.0,0.0,0.0,0.0,0.0,0.0,0.0,0.0,0.0,0.0,0.0,0.0,0.0,0.0,0.0,0.0,0.0,0.0,0.0,0.0,0.0,0.0,0.0,0.0,0.0,0.0,0.0,0.0,0.0,0.0,0.0,0.0,0.0,0.0,0.0,0.0,0.0,0.0,0.0,0.0,0.0,0.0,0.0,0.0,0.0,0.0,0.0,0.0,0.0,0.0,0.0,0.0,0.0,0.0,0.0,0.0,0.0,0.0,0.0,0.0,0.0,0.0,0.0,0.0,0.0,0.0,0.0,0.0,0.0,0.0,0.0,0.0,0.0,0.0,0.0,0.0,0.0,0.0,0.0,0.0,0.0,0.0,0.0,0.0,0.0,0.0,0.0,0.0,0.0,0.0,0.0,0.0,0.0,0.0,0.0,0.0,0.0,0.0,0.0,0.0,0.0,0.0,0.0,0.0,0.0,0.0,0.0,0.0,0.0,0.0,0.0,0.0,0.0,0.0,0.0,0.0,0.0,0.0,0.0,0.0,0.0,0.0,0.0,0.0,0.0,0.0,0.0,0.0,0.0,0.0,0.0,0.0,0.0,0.0,0.0,0.0,0.0,0.0,0.0,0.0,0.0,0.0,0.0,0.0,0.0,0.0,0.0,0.0,0.0,0.0,0.0,0.0,0.0,0.0,0.0,0.0,0.0,0.0,0.0,0.0,0.0,0.0,0.0,0.0,0.0,0.0,0.0,0.0,0.0,0.0,0.0,0.0,0.0,0.0,0.0,0.0,0.0,0.0,0.0,0.0,0.0,0.0,0.0,0.0,0.0,0.0,0.0,0.0,0.0,0.0,0.0,0.0,0.0,0.0,0.0,0.0,0.0,0.0,0.0,0.0,0.0,0.0,0.0,0.0,0.0,0.0,0.0,0.0,0.0,0.0,0.0,0.0,0.0,0.0,0.0,0.0,0.0,0.0,0.0,0.0,0.0,0.0,0.0,0.0,0.0,0.0,0.0,0.0,0.0,0.0,0.0,0.0,0.0,0.0,0.0,0.0,0.0,0.0,0.0,0.0,0.0,0.0,0.0,0.0,0.0,0.0,0.0,0.0,0.0,0.0,0.0,0.0,0.0,0.0,0.0,0.0,0.0,0.0,0.0,0.0,0.0,0.0,0.0,0.0,0.0,0.0,0.0,0.0,0.0,0.0,0.0,0.0,0.0,0.0,0.0,0.0,0.0,0.0,0.0,0.0,0.0,0.0,0.0,0.0,0.0,0.0,0.0,0.0,0.0,0.0,0.0,0.0,0.0,0.0,0.0,0.0,0.0,0.0,0.0,0.0,0.0,0.0,0.0,0.0,0.0,0.0,0.0,0.0,0.0,0.0,0.0,0.0,0.0,0.0,0.0,0.0,0.0,0.0,0.0,0.0,0.0,0.0,0.0,0.0,0.0,0.0,0.0,0.0,0.0,0.0,0.0,0.0,0.0,0.0,0.0,0.0,0.0,0.0,0.0,0.0,0.0,0.0,0.0,0.0,0.0,0.0,0.0,0.0,0.0,0.0,0.0,0.0,0.0,0.0,0.0,0.0,0.0,0.0,0.0,0.0,0.0,0.0,0.0,0.0,0.0,0.0,0.0,0.0,0.0,0.0,0.0,0.0,0.0,0.0,0.0,0.0,0.0,0.0,0.0,0.0,0.0,0.0,0.0,0.0,0.0,0.0,0.0,0.0,0.0,0.0,0.0,0.0,0.0,0.0,0.0,0.0,0.0,0.0,0.0,0.0,0.0,0.0,0.0,0.0,0.0,0.0,0.0,0.0,0.0,0.0,0.0,0.0,0.0,0.0,0.0,0.0,0.0,0.0,0.0,0.0,0.0,0.0,0.0,0.0,0.0,0.0,0.0,0.0,0.0,0.0,0.0,0.0,0.0,0.0,0.0,0.0,0.0,0.0,0.0,0.0,0.0,0.0,0.0,0.0,0.0,0.0,0.0,2.3385,0.0,0.0,0.0,0.0,0.0,0.0,0.0,0.0,0.0,0.0,0.0,0.0,0.0,0.0,0.0,0.0,0.0,0.0,0.0,0.0,0.0,0.0,0.0,0.0,0.0,0.0,0.0,0.0,0.0,0.0,0.0,0.0,0.0,0.0,0.0,0.0,0.0,0.0,0.0,0.0,0.0,0.0,0.0,0.0,0.0,0.0,0.0,0.0,0.0,0.0,0.0,0.0,0.0,0.0,0.0,0.0,0.0,0.0,0.0,0.0,0.0,0.0,0.0,0.0,0.0,0.0,0.0,0.0,0.0,0.0,0.0,0.0,0.0,0.0,0.0,0.0,0.0,0.0,0.0,0.0,0.0,0.0,0.0,0.0,0.0,0.0,0.0,0.0,0.0,0.0,0.0,0.0,0.0,0.0,0.0,0.0,0.0,0.0,0.0,0.0,0.0,0.0,0.0,0.0,0.0,0.0,0.0,0.0,0.0,0.0,2.491,2.5163,2.4567,2.398,2.3535,0.0,0.0,0.0,0.0,0.0,0.0,0.0,0.0,0.0,0.0,0.0,0.0,0.0,0.0,0.0,0.0,0.0,0.0,0.0,0.0,0.0,0.0,0.0,0.0,0.0,0.0,0.0,0.0,0.0,0.0,0.0,0.0,0.0,0.0,0.0,0.0,0.0,0.0,0.0,0.0,0.0,0.0,0.0,0.0,0.0,0.0,0.0,0.0,0.0,0.0,0.0,0.0,0.0,0.0,0.0,0.0,0.0,0.0,0.0,0.0,0.0,0.0,0.0,0.0,0.0,0.0,0.0,0.0,0.0,0.0,0.0,0.0,0.0,0.0,0.0,0.0,0.0,0.0,0.0,0.0,0.0,0.0,0.0,0.0,0.0,0.0,0.0,0.0,0.0,0.0,0.0,0.0,0.0,0.0,0.0,0.0,0.0,0.0,0.0,0.0,0.0,0.0,0.0,0.0,0.0,0.0,0.0,0.0,0.0,0.0,0.0,0.0,2.3811,2.3158,2.3704,0.0,0.0,0.0,0.0,0.0,0.0,0.0,0.0,0.0,0.0,0.0,0.0,0.0,0.0,0.0,0.0,0.0,0.0,0.0,0.0,0.0,0.0,0.0,0.0,0.0,0.0,0.0,0.0,0.0,0.0,0.0,0.0,0.0,0.0,0.0,0.0,0.0,0.0,0.0,0.0,0.0,0.0,0.0,0.0,0.0,0.0,0.0,0.0,0.0,0.0,0.0,0.0,0.0,0.0,0.0,0.0,0.0,0.0,0.0,0.0,0.0,0.0,0.0,0.0,0.0,0.0,0.0,0.0,0.0,0.0,0.0,0.0,0.0,0.0,0.0,0.0,0.0,0.0,0.0,0.0,0.0,0.0,0.0,0.0,0.0,0.0,0.0,0.0,0.0,0.0,0.0,0.0,0.0,0.0,0.0,0.0,0.0,0.0,0.0,0.0,0.0,0.0,0.0,0.0,0.0,0.0,0.0,0.0,0.0,0.0,2.4492,2.3231,2.2995,0.0,2.2978,0.0,0.0,0.0,0.0,0.0,0.0,0.0,0.0,0.0,0.0,0.0,0.0,0.0,0.0,0.0,0.0,0.0,0.0,0.0,0.0,0.0,0.0,0.0,0.0,0.0,0.0,0.0,0.0,0.0,0.0,0.0,0.0,0.0,0.0,0.0,0.0,0.0,0.0,0.0,0.0,0.0,0.0,0.0,0.0,0.0,0.0,0.0,0.0,0.0,0.0,0.0,0.0,0.0,0.0,0.0,0.0,0.0,0.0,0.0,0.0,0.0,0.0,0.0,0.0,0.0,0.0,0.0,0.0,0.0,0.0,0.0,0.0,0.0,0.0,0.0,0.0,0.0,0.0,0.0,0.0,0.0,0.0,0.0,0.0,0.0,0.0,0.0,0.0,0.0,0.0,0.0,0.0,0.0,0.0,0.0,0.0,0.0,0.0,0.0,0.0,0.0,0.0,0.0,0.0,0.0,0.0,0.0,0.0,0.0,0.0,2.3702,2.3565,2.2844,2.2523,0.0,0.0,0.0,0.0,0.0,0.0,0.0,0.0,0.0,0.0,0.0,0.0,0.0,0.0,0.0,0.0,0.0,0.0,0.0,0.0,0.0,0.0,0.0,0.0,0.0,0.0,0.0,0.0,0.0,0.0,0.0,0.0,0.0,0.0,0.0,0.0,0.0,0.0,0.0,0.0,0.0,0.0,0.0,0.0,0.0,0.0,0.0,0.0,0.0,0.0,0.0,0.0,0.0,0.0,0.0,0.0,0.0,0.0,0.0,0.0,0.0,0.0,0.0,0.0,0.0,0.0,0.0,0.0,0.0,0.0,0.0,0.0,0.0,0.0,0.0,0.0,0.0,0.0,0.0,0.0,0.0,0.0,0.0,0.0,0.0,0.0,0.0,0.0,0.0,0.0,0.0,0.0,0.0,0.0,0.0,0.0,0.0,0.0,0.0,0.0,0.0,0.0,0.0,0.0,0.0,0.0,0.0,0.0,0.0,0.0,2.3141,2.3154,2.3636,2.2678,2.2119,2.217,0.0,0.0,0.0,0.0,0.0,0.0,0.0,0.0,0.0,0.0,0.0,0.0,0.0,0.0,0.0,0.0,0.0,0.0,0.0,0.0,0.0,0.0,0.0,0.0,0.0,0.0,0.0,0.0,0.0,0.0,0.0,0.0,0.0,0.0,0.0,0.0,0.0,0.0,0.0,0.0,0.0,0.0,0.0,0.0,0.0,0.0,0.0,0.0,0.0,0.0,0.0,0.0,0.0,0.0,0.0,0.0,0.0,0.0,0.0,0.0,0.0,0.0,0.0,0.0,0.0,0.0,0.0,0.0,0.0,0.0,0.0,0.0,0.0,0.0,0.0,0.0,0.0,0.0,0.0,0.0,0.0,0.0,0.0,0.0,0.0,0.0,0.0,0.0,0.0,0.0,0.0,0.0,0.0,0.0,0.0,0.0,0.0,0.0,0.0,0.0,0.0,0.0,0.0,0.0,0.0,0.0,0.0,0.0,2.2949,2.2888,2.2902,2.2992,2.2311,2.1979,0.0,0.0,0.0,0.0,0.0,0.0,0.0,0.0,0.0,0.0,0.0,0.0,0.0,0.0,0.0,0.0,0.0,0.0,0.0,0.0,0.0,0.0,0.0,0.0,0.0,0.0,0.0,0.0,0.0,0.0,0.0,0.0,0.0,0.0,0.0,0.0,0.0,0.0,0.0,0.0,0.0,0.0,0.0,0.0,0.0,0.0,0.0,0.0,0.0,0.0,0.0,0.0,0.0,0.0,0.0,0.0,0.0,0.0,0.0,0.0,0.0,0.0,0.0,0.0,0.0,0.0,0.0,0.0,0.0,0.0,0.0,0.0,0.0,0.0,0.0,0.0,0.0,0.0,0.0,0.0,0.0,0.0,0.0,0.0,0.0,0.0,0.0,0.0,0.0,0.0,0.0,0.0,0.0,0.0,0.0,0.0,0.0,0.0,0.0,0.0,0.0,0.0,0.0,0.0,0.0,0.0,0.0,0.0,0.0,2.2826,2.2872,2.3349,2.42,2.2764,2.2067,0.0,0.0,0.0,0.0,0.0,0.0,0.0,0.0,0.0,0.0,0.0,0.0,0.0,0.0,0.0,0.0,0.0,0.0,0.0,0.0,0.0,0.0,0.0,0.0,0.0,0.0,0.0,0.0,0.0,0.0,0.0,0.0,0.0,0.0,0.0,0.0,0.0,0.0,0.0,0.0,0.0,0.0,0.0,0.0,0.0,0.0,0.0,0.0,0.0,0.0,0.0,0.0,0.0,0.0,0.0,0.0,0.0,0.0,0.0,0.0,0.0,0.0,0.0,0.0,0.0,0.0,0.0,0.0,0.0,0.0,0.0,0.0,0.0,0.0,0.0,0.0,0.0,0.0,0.0,0.0,0.0,0.0,0.0,0.0,0.0,0.0,0.0,0.0,0.0,0.0,0.0,0.0,0.0,0.0,0.0,0.0,0.0,0.0,0.0,0.0,0.0,0.0,0.0,0.0,0.0,0.0,0.0,0.0,0.0,2.2804,0.0,2.3812,2.4326,2.3467,2.2669,0.0,0.0,0.0,0.0,0.0,0.0,0.0,0.0,0.0,0.0,0.0,0.0,0.0,0.0,0.0,0.0,0.0,0.0,0.0,0.0,0.0,0.0,0.0,0.0,0.0,0.0,0.0,0.0,0.0,0.0,0.0,0.0,0.0,0.0,0.0,0.0,0.0,0.0,0.0,0.0,0.0,0.0,0.0,0.0,0.0,0.0,0.0,0.0,0.0,0.0,0.0,0.0,0.0,0.0,0.0,0.0,0.0,0.0,0.0,0.0,0.0,0.0,0.0,0.0,0.0,0.0,0.0,0.0,0.0,0.0,0.0,0.0,0.0,0.0,0.0,0.0,0.0,0.0,0.0,0.0,0.0,0.0,0.0,0.0,0.0,0.0,0.0,0.0,0.0,0.0,0.0,0.0,0.0,0.0,0.0,0.0,0.0,0.0,0.0,0.0,0.0,0.0,0.0,0.0,0.0,0.0,0.0,0.0,2.2849,2.2963,2.406,2.4147,2.3047,2.4294,2.3875,0.0,0.0,0.0,0.0,0.0,0.0,0.0,0.0,0.0,0.0,0.0,0.0,0.0,0.0,0.0,0.0,0.0,0.0,0.0,0.0,0.0,0.0,0.0,0.0,0.0,0.0,0.0,0.0,0.0,0.0,0.0,0.0,0.0,0.0,0.0,0.0,0.0,0.0,0.0,0.0,0.0,0.0,0.0,0.0,0.0,0.0,0.0,0.0,0.0,0.0,0.0,0.0,0.0,0.0,0.0,0.0,0.0,0.0,0.0,0.0,0.0,0.0,0.0,0.0,0.0,0.0,0.0,0.0,0.0,0.0,0.0,0.0,0.0,0.0,0.0,0.0,0.0,0.0,0.0,0.0,0.0,0.0,0.0,0.0,0.0,0.0,0.0,0.0,0.0,0.0,0.0,0.0,0.0,0.0,0.0,0.0,0.0,0.0,0.0,0.0,0.0,0.0,0.0,0.0,0.0,0.0,0.0,0.0,0.0,2.4124,2.4498,2.491,2.5259,2.4177,2.3551,0.0,0.0,0.0,0.0,0.0,0.0,0.0,0.0,0.0,0.0,0.0,0.0,0.0,0.0,0.0,0.0,0.0,0.0,0.0,0.0,0.0,0.0,0.0,0.0,0.0,0.0,0.0,0.0,0.0,0.0,0.0,0.0,0.0,0.0,0.0,0.0,0.0,0.0,0.0,0.0,0.0,0.0,0.0,0.0,0.0,0.0,0.0,0.0,0.0,0.0,0.0,0.0,0.0,0.0,0.0,0.0,0.0,0.0,0.0,0.0,0.0,0.0,0.0,0.0,0.0,0.0,0.0,0.0,0.0,0.0,0.0,0.0,0.0,0.0,0.0,0.0,0.0,0.0,0.0,0.0,0.0,0.0,0.0,0.0,0.0,0.0,0.0,0.0,0.0,0.0,0.0,0.0,0.0,0.0,0.0,0.0,0.0,0.0,0.0,0.0,0.0,0.0,0.0,0.0,0.0,0.0,0.0,0.0,0.0,2.46,2.546,2.6005,2.6091,2.4859,2.3848,2.3137,0.0,0.0,0.0,0.0,0.0,0.0,0.0,0.0,0.0,0.0,0.0,0.0,0.0,0.0,0.0,0.0,0.0,0.0,0.0,0.0,0.0,0.0,0.0,0.0,0.0,0.0,0.0,0.0,0.0,0.0,0.0,0.0,0.0,0.0,0.0,0.0,0.0,0.0,0.0,0.0,0.0,0.0,0.0,0.0,0.0,0.0,0.0,0.0,0.0,0.0,0.0,0.0,0.0,0.0,0.0,0.0,0.0,0.0,0.0,0.0,0.0,0.0,0.0,0.0,0.0,0.0,0.0,0.0,0.0,0.0,0.0,0.0,0.0,0.0,0.0,0.0,0.0,0.0,0.0,0.0,0.0,0.0,0.0,0.0,0.0,0.0,0.0,0.0,0.0,0.0,0.0,0.0,0.0,0.0,0.0,0.0,0.0,0.0,0.0,0.0,0.0,0.0,0.0,0.0,0.0,0.0,0.0,0.0,2.4521,2.7017,2.764,2.6249,2.624,2.4776,0.0,0.0,0.0,0.0,0.0,0.0,0.0,0.0,0.0,0.0,0.0,0.0,0.0,0.0,0.0,0.0,0.0,0.0,0.0,0.0,0.0,0.0,0.0,0.0,0.0,0.0,0.0,0.0,0.0,0.0,0.0,0.0,0.0,0.0,0.0,0.0,0.0,0.0,0.0,0.0,0.0,0.0,0.0,0.0,0.0,0.0,0.0,0.0,0.0,0.0,0.0,0.0,0.0,0.0,0.0,0.0,0.0,0.0,0.0,0.0,0.0,0.0,0.0,0.0,0.0,0.0,0.0,0.0,0.0,0.0,0.0,0.0,0.0,0.0,0.0,0.0,0.0,0.0,0.0,0.0,0.0,0.0,0.0,0.0,0.0,0.0,0.0,0.0,0.0,0.0,0.0,0.0,0.0,0.0,0.0,0.0,0.0,0.0,0.0,0.0,0.0,0.0,0.0,0.0,0.0,0.0,0.0,0.0,0.0,2.7254,2.9675,3.1281,3.1733,2.751,2.4792,0.0,0.0,0.0,0.0,0.0,0.0,0.0,0.0,0.0,0.0,0.0,0.0,0.0,0.0,0.0,0.0,0.0,0.0,0.0,0.0,0.0,0.0,0.0,0.0,0.0,0.0,0.0,0.0,0.0,0.0,0.0,0.0,0.0,0.0,0.0,0.0,0.0,0.0,0.0,0.0,0.0,0.0,0.0,0.0,0.0,0.0,0.0,0.0,0.0,0.0,0.0,0.0,0.0,0.0,0.0,0.0,0.0,0.0,0.0,0.0,0.0,0.0,0.0,0.0,0.0,0.0,0.0,0.0,0.0,0.0,0.0,0.0,0.0,0.0,0.0,0.0,0.0,0.0,0.0,0.0,0.0,0.0,0.0,0.0,0.0,0.0,0.0,0.0,0.0,0.0,0.0,0.0,0.0,0.0,0.0,0.0,0.0,0.0,0.0,0.0,0.0,0.0,0.0,0.0,0.0,0.0,0.0,0.0,2.7715,2.8712,3.1569,3.3105,3.3246,2.9533,2.6596,0.0,0.0,0.0,0.0,0.0,0.0,0.0,0.0,0.0,0.0,0.0,0.0,0.0,0.0,0.0,0.0,0.0,0.0,0.0,0.0,0.0,0.0,0.0,0.0,0.0,0.0,0.0,0.0,0.0,0.0,0.0,0.0,0.0,0.0,0.0,0.0,0.0,0.0,0.0,0.0,0.0,0.0,0.0,0.0,0.0,0.0,0.0,0.0,0.0,0.0,0.0,0.0,0.0,0.0,0.0,0.0,0.0,0.0,0.0,0.0,0.0,0.0,0.0,0.0,0.0,0.0,0.0,0.0,0.0,0.0,0.0,0.0,0.0,0.0,0.0,0.0,0.0,0.0,0.0,0.0,0.0,0.0,0.0,0.0,0.0,0.0,0.0,0.0,0.0,0.0,0.0,0.0,0.0,0.0,0.0,0.0,0.0,0.0,0.0,0.0,0.0,0.0,0.0,0.0,0.0,0.0,0.0,0.0,2.8978,2.9415,3.2549,3.3517,3.2076,3.1451,2.9187,0.0,0.0,0.0,0.0,0.0,0.0,0.0,0.0,0.0,0.0,0.0,0.0,0.0,0.0,0.0,0.0,0.0,0.0,0.0,0.0,0.0,0.0,0.0,0.0,0.0,0.0,0.0,0.0,0.0,0.0,0.0,0.0,0.0,0.0,0.0,0.0,0.0,0.0,0.0,0.0,0.0,0.0,0.0,0.0,0.0,0.0,0.0,0.0,0.0,0.0,0.0,0.0,0.0,0.0,0.0,0.0,0.0,0.0,0.0,0.0,0.0,0.0,0.0,0.0,0.0,0.0,0.0,0.0,0.0,0.0,0.0,0.0,0.0,0.0,0.0,0.0,0.0,0.0,0.0,0.0,0.0,0.0,0.0,0.0,0.0,0.0,0.0,0.0,0.0,0.0,0.0,0.0,0.0,0.0,0.0,0.0,0.0,0.0,0.0,0.0,0.0,0.0,0.0,0.0,0.0,0.0,0.0,0.0,2.8351,2.9177,3.1442,3.2438,3.1995,3.082,2.9064,0.0,0.0,0.0,0.0,0.0,0.0,0.0,0.0,0.0,0.0,0.0,0.0,0.0,0.0,0.0,0.0,0.0,0.0,0.0,0.0,0.0,0.0,0.0,0.0,0.0,0.0,0.0,0.0,0.0,0.0,0.0,0.0,0.0,0.0,0.0,0.0,0.0,0.0,0.0,0.0,0.0,0.0,0.0,0.0,0.0,0.0,0.0,0.0,-0.0411,0.0,0.0,0.0,0.0,0.0,0.0,0.0,0.0,0.0,0.0,0.0,0.0,0.0,0.0,0.0,0.0,0.0,0.0,0.0,0.0,0.0,0.0,0.0,0.0,0.0,0.0,0.0,0.0,0.0,0.0,0.0,0.0,0.0,0.0,0.0,0.0,0.0,0.0,0.0,0.0,0.0,0.0,0.0,0.0,0.0,0.0,0.0,0.0,0.0,0.0,0.0,0.0,0.0,0.0,0.0,0.0,0.0,0.0,0.0,2.8238,2.8594,3.1169,3.2192,3.1487,3.1199,2.9769,0.0,0.0,0.0,0.0,0.0,0.0,0.0,0.0,0.0,0.0,0.0,0.0,0.0,0.0,0.0,0.0,0.0,0.0,0.0,0.0,0.0,0.0,0.0,0.0,0.0,0.0,0.0,0.0,0.0,0.0,0.0,0.0,0.0,0.0,0.0,0.0,0.0,0.0,0.0,0.0,0.0,0.0,0.0,0.0,0.0,0.0,0.0,0.0,0.0,0.0,0.0,0.0,0.0,0.0,0.0,0.0,0.0,0.0,0.0,0.0,0.0,0.0,0.0,0.0,0.0,0.0,0.0,0.0,0.0,0.0,0.0,0.0,0.0,0.0,0.0,0.0,0.0,0.0,0.0,0.0,0.0,0.0,0.0,0.0,0.0,0.0,0.0,0.0,0.0,0.0,0.0,0.0,0.0,0.0,0.0,0.0,0.0,0.0,0.0,0.0,0.0,0.0,0.0,0.0,0.0,0.0,0.0,2.768,2.8195,2.827,3.0974,3.1992,3.0944,3.1666,3.0362,2.6837,0.0,0.0,0.0,0.0,0.0,0.0,0.0,0.0,0.0,0.0,0.0,0.0,0.0,0.0,0.0,0.0,0.0,0.0,0.0,0.0,0.0,0.0,0.0,0.0,0.0,0.0,0.0,0.0,0.0,0.0,0.0,0.0,0.0,0.0,0.0,0.0,0.0,0.0,0.493,0.362,0.0,0.0,0.0,0.0,0.0,0.0,0.0,0.0,0.0327,0.0,0.0,0.0,0.0,0.0,0.0,0.0,0.0,0.0,0.0,0.0,0.0,0.0,0.0,0.0,0.0,0.0,0.0,0.0,0.0,0.0,0.0,0.0,0.0,0.0,0.0,0.0,0.0,0.0,0.0,0.0,0.0,0.0,0.0,0.0,0.0,0.0,0.0,0.0,0.0,0.0,0.0,0.0,0.0,0.0,0.0,0.0,0.0,0.0,0.0,0.0,0.0,0.0,0.0,0.0,0.0,2.6269,2.6979,2.8081,2.9413,3.0151,3.0673,3.093,3.0993,2.9428,2.611,0.0,0.0,0.0,0.0,0.0,0.0,0.0,0.0,0.0,0.0,0.0,0.0,0.0,0.0,0.0,0.0,0.0,0.0,0.0,0.0,0.0,0.0,0.0,0.0,0.0,0.0,0.0,0.0,0.0,0.0,0.0,0.0,0.0,0.0,0.0,0.0,0.0,0.0,0.0,0.2377,0.1747,0.0,0.0,0.0,0.0,0.0,0.0,0.0,0.0,-0.0252,0.0,0.0,0.0,0.0,0.0,0.0,0.0,0.0,0.0,0.0,0.0,0.0,0.0,0.0,0.0,0.0,0.0,0.0,0.0,0.0,0.0,0.0,0.0,0.0,0.0,0.0,0.0,0.0,0.0,0.0,0.0,0.0,0.0,0.0,0.0,0.0,0.0,0.0,0.0,0.0,0.0,0.0,0.0,0.0,0.0,0.0,0.0,0.0,0.0,0.0,0.0,0.0,0.0,0.0,0.0,2.4791,2.5719,2.6878,2.8402,2.9309,3.0213,3.0856,3.1075,2.947,0.0,0.0,0.0,0.0,0.0,0.0,0.0,0.0,0.0,0.0,0.0,0.0,0.0,0.0,0.0,0.0,0.0,0.0,0.0,0.0,0.0,0.0,0.0,0.0,0.0,0.0,0.0,0.0,0.0,0.0,0.0,0.0,0.0,0.0,0.0,0.0,0.0,0.0,0.0,0.0,0.0902,0.1566,0.1986,0.0,0.0,0.0,0.0,0.0,0.0,-0.0256,-0.1183,0.0,0.0,0.0,0.0,0.0,0.0,0.0,0.0,0.0,0.0,0.0,0.0,0.0,0.0,0.0,0.0,0.0,0.0,0.0,0.0,0.0,0.0,0.0,0.0,0.0,0.0,0.0,0.0,0.0,0.0,0.0,0.0,0.0,0.0,0.0,0.0,0.0,0.0,0.0,0.0,0.0,0.0,0.0,0.0,0.0,0.0,0.0,0.0,0.0,0.0,0.0,0.0,0.0,0.0,0.0,2.3173,2.4554,2.5791,2.6955,2.8675,2.9961,3.0618,3.069,2.9107,0.0,0.0,0.0,0.0,0.0,0.0,0.0,0.0,0.0,0.0,0.0,0.0,0.0,0.0,0.0,0.0,0.0,0.0,0.0,0.0,0.0,0.0,0.0,0.0,0.0,0.0,0.0,0.0,0.0,0.0,0.0,0.0,0.0,0.0,0.0,0.0,0.0,0.0,0.0,0.0,0.0,0.0596,0.1334,-0.0347,0.0,0.0,0.0,0.0,0.0518,-0.0782,0.0,0.0,0.0,0.0,0.0,0.0,0.0,0.0,0.0,0.0,0.0,0.0,0.0,0.0,0.0,0.0,0.0,0.0,0.0,0.0,0.0,0.0,0.0,0.0,0.0,0.0,0.0,0.0,0.0,0.0,0.0,0.0,0.0,0.0,0.0,0.0,0.0,0.0,0.0,0.0,0.0,0.0,0.0,0.0,0.0,0.0,0.0,0.0,0.0,0.0,0.0,0.0,0.0,0.0,0.0,0.0,2.1793,2.4018,2.5425,2.6055,2.8342,2.9642,2.9694,2.8673,2.7324,0.0,0.0,0.0,0.0,0.0,0.0,0.0,0.0,0.0,0.0,0.0,0.0,0.0,0.0,0.0,0.0,0.0,0.0,0.0,0.0,0.0,0.0,0.0,0.0,0.0,0.0,0.0,0.0,0.0,0.0,0.0,0.0,0.0,0.0,0.0,0.0,0.0,0.0,0.0,0.0,0.0,-0.2899,-0.3746,-0.1141,0.0086,0.0,0.0,-0.3007,-0.3192,-0.2411,0.0,0.0,0.0,0.0,0.0,0.0,0.0,0.0,0.0,0.0,0.0,0.0,0.0,0.0,0.0,0.0,0.0,0.0,0.0,0.0,0.0,0.0,0.0,0.0,0.0,0.0,0.0,0.0,0.0,0.0,0.0,0.0,0.0,0.0,0.0,0.0,0.0,0.0,0.0,0.0,0.0,0.0,0.0,0.0,0.0,0.0,0.0,0.0,0.0,0.0,0.0,0.0,0.0,0.0,0.0,2.1041,2.1053,2.2941,2.4304,2.506,2.6554,2.7634,2.8112,2.6867,2.5583,0.0,0.0,0.0,0.0,0.0,0.0,0.0,0.0,0.0,0.0,0.0,0.0,0.0,0.0,0.0,0.0,0.0,0.0,0.0,0.0,0.0,0.0,0.0,0.0,0.0,0.0,0.0,0.0,0.0,0.0,0.0,0.0,0.0,0.0,0.0,0.0,0.0,0.0,0.0,0.0,0.0,0.0,-0.2688,-0.1566,0.0,0.0,0.0,-0.3408,-0.5386,0.0,0.0,0.0,0.0,0.0,0.0,0.0,0.0,0.0,0.0,0.0,0.0,0.0,0.0,0.0,0.0,0.0,0.0,0.0,0.0,0.0,0.0,0.0,0.0,0.0,0.0,0.0,0.0,0.0,0.0,0.0,0.0,0.0,0.0,0.0,0.0,0.0,0.0,0.0,0.0,0.0,0.0,0.0,0.0,0.0,0.0,0.0,0.0,0.0,0.0,0.0,0.0,0.0,0.0,0.0,0.0,0.0,2.0504,2.211,2.3349,2.4045,2.5338,2.6312,2.6945,2.5877,0.0,0.0,0.0,0.0,0.0,0.0,0.0,0.0,0.0,0.0,0.0,0.0,0.0,0.0,0.0,0.0,0.0,0.0,0.0,0.0,0.0,0.0,0.0,0.0,0.0,0.0,0.0,0.1276,0.0,0.0,0.0,0.0,0.0,0.0,0.0,0.0,0.0,0.0,0.0,0.0,0.0,0.0,-0.3241,-0.2671,-0.2586,-0.1926,0.0,0.0,-0.2212,-0.54,-0.3283,-0.2427,0.0,0.0,0.0,0.0,0.0,0.0,0.0,0.0,0.0,0.0,0.0,0.0,0.0,0.0,0.0,0.0,0.0,0.0,0.0,0.0,0.0,0.0,0.0,0.0,0.0,0.0,0.0,0.0,0.0,0.0,0.0,0.0,0.0,0.0,0.0,0.0,0.0,0.0,0.0,0.0,0.0,0.0,0.0,0.0,0.0,0.0,0.0,0.0,0.0,0.0,0.0,0.0,0.0,0.0,0.0,2.0052,2.188,2.282,2.2971,2.5501,2.6944,2.7009,2.6111,2.5227,0.0,0.0,0.0,0.0,0.0,0.0,0.0,0.0,0.0,0.0,0.0,0.0,0.0,0.0,0.0,0.0,0.0,0.0,0.0,0.0,0.0,0.0,0.0,0.0,0.0,0.0,0.0,0.0,0.0,0.0,0.0,0.0,0.0,0.0,0.0,0.0,0.0,0.0,0.0,0.0,0.0,-0.4104,-0.6421,-0.4661,-0.3078,0.0,0.0,0.0406,-0.1985,-0.2925,-0.3695,-0.4364,0.0,0.0,0.0,0.0,0.0,0.0,0.0,0.0,0.0,0.0,0.0,0.0,0.0,0.0,0.0,0.0,0.0,0.0,0.0,0.0,0.0,0.0,0.0,0.0,0.0,0.0,0.0,0.0,0.0,0.0,0.0,0.0,0.0,0.0,0.0,0.0,0.0,0.0,0.0,0.0,0.0,0.0,0.0,0.0,0.0,0.0,0.0,0.0,0.0,0.0,0.0,0.0,0.0,1.9004,1.9385,2.1612,2.2753,2.2844,2.4496,2.5441,2.5431,2.4594,2.3517,0.0,0.0,0.0,0.0,0.0,0.0,0.0,0.0,0.0,0.0,0.0,0.0,0.0,0.0,0.0,0.0,0.0,0.0,0.0,0.0,0.0,0.0,0.0,0.0,0.0,0.0,0.0,0.0,-0.1429,-0.2699,-0.4734,0.0,0.0,0.0,0.0,0.0,0.0,0.0,0.0,0.0,0.0,-0.5275,-0.4993,-0.4521,0.0,0.0,-0.2301,-0.0934,-0.0412,-0.0318,-0.0743,-0.2271,-0.2536,0.0,0.0,0.0,0.0,0.0,0.0,0.0,0.0,0.0,0.0,0.0,0.0,0.0,0.0,0.0,0.0,0.0,0.0,0.0,0.0,0.0,0.0,0.0,0.0,0.0,0.0,0.0,0.0,0.0,0.0,0.0,0.0,0.0,0.0,0.0,0.0,0.0,0.0,0.0,0.0,0.0,0.0,0.0,0.0,0.0,0.0,0.0,0.0,0.0,0.0,0.0,0.0,1.8449,1.8782,2.1088,2.2364,2.2712,2.371,2.4513,2.4701,2.3944,2.2782,0.0,0.0,0.0,0.0,0.0,0.0,0.0,0.0,0.0,0.0,0.0,0.0,0.0,0.0,0.0,0.0,0.0,0.0,0.0,0.0,0.0,0.0,0.0,0.0,0.0,0.0,0.0,0.0,-0.276,-0.38,-0.5893,0.0,0.0,0.0,0.0,0.0,0.0,0.0,0.0,0.0,0.0,-0.5872,-0.4598,-0.4605,-0.4607,-0.4294,-0.3635,-0.2359,-0.0101,0.0826,0.0619,-0.1077,0.0,0.0,0.0,0.0,0.0,0.0,0.0,0.0,0.0,0.0,0.0,0.0,0.0,0.0,0.0,0.0,0.0,0.0,0.0,0.0,0.0,0.0,0.0,0.0,0.0,0.0,0.0,0.0,0.0,0.0,0.0,0.0,0.0,0.0,0.0,0.0,0.0,0.0,0.0,0.0,0.0,0.0,0.0,0.0,0.0,0.0,0.0,0.0,0.0,0.0,0.0,0.0,0.0,0.0,1.8281,2.0013,2.1391,2.2469,2.3592,2.4562,2.5479,2.4651,2.3648,2.2635,0.0,0.0,0.0,0.0,0.0,0.0,0.0,0.0,0.0,0.0,0.0,0.0,0.0,0.0,0.0,0.0,0.0,0.0,0.0,0.0,0.0,0.0,0.0,0.0,0.0,0.0,-0.3587,-0.519,-0.6262,0.0,0.0,0.0,0.0,0.0,0.0,0.0,0.0,0.0,0.0,-0.5087,-0.5566,-0.6212,-0.5164,-0.4358,-0.436,-0.433,-0.34,-0.1105,-0.0303,-0.0303,0.0,0.0,0.0,0.0,0.0,0.0,0.0,0.0,0.0,0.0,0.0,0.0,0.0,0.0,0.0,0.0,0.0,0.0,0.0,0.0,0.0,0.0,0.0,0.0,0.0,0.0,0.0,0.0,1.5086,0.0,0.0,0.0,0.0,0.0,0.0,0.0,0.0,0.0,0.0,0.0,2.1242,2.2913,0.0,0.0,0.0,0.0,0.0,0.0,0.0,0.0,0.0,0.0,0.0,0.0,1.6306,1.7243,1.9064,2.0483,2.1407,2.2544,2.3194,2.361,2.3194,2.2124,2.0103,0.0,0.0,0.0,0.0,0.0,0.0,0.0,0.0,0.0,0.0,0.0,0.0,0.0,0.0,0.0,0.0,0.0,0.0,0.0,0.0,0.0,0.0,0.0,0.0,0.0,-0.3391,0.0,0.0,0.0,0.0,0.0,0.0,0.0,0.0,0.0,0.0,0.0,-0.6553,-0.6702,-0.6273,-0.6158,-0.6642,-0.6145,-0.5792,0.0,0.0,0.0,0.0,0.0,0.0,0.0,0.0,0.0,0.0,0.0,0.0,0.0,0.0,-0.5764,-0.4908,-0.4214,-0.3409,-0.2139,0.0,0.0,0.0,0.0,0.0,0.0,0.0,0.0,0.0,0.0,0.0,0.0,0.0,0.0,0.0,0.0,1.4952,0.0,0.0,0.0,0.0,0.0,0.0,0.0,0.0,1.6263,1.7055,1.7892,1.9373,1.9711,0.0,2.058,2.2252,0.0,0.0,0.0,0.0,0.0,0.0,0.0,0.0,1.5576,1.6007,1.8003,1.9672,2.0822,2.1538,2.208,2.2492,2.187,2.0537,1.8498,1.6321,1.4684,0.0,0.0,0.0,0.0,0.0,0.0,0.0,0.0,0.0,0.0,0.0,0.0,0.0,0.0,0.0,0.0,0.0,0.0,0.0,0.0,0.0,0.0,0.0,-0.3397,0.0,0.0,0.0,0.0,0.0,0.0,0.0,0.0,0.0,-0.764,-0.7462,-0.7363,-0.7545,-0.7152,-0.6822,-0.681,0.0,0.0,0.0,0.0,0.0,0.0,0.0,-0.2518,-0.3728,-0.3866,-0.3736,-0.3721,-0.4688,-0.5237,-0.4523,0.0,0.0,-0.5671,-0.5653,-0.4733,-0.2257,-0.2258,-0.3488,-0.5831,-0.6233,-0.6324,0.0,0.0,0.0,0.0,0.0,0.0,0.0,0.0,1.5711,1.5486,0.0,1.604,0.0,0.0,0.0,0.0,0.0,0.0,0.0,0.0,1.2873,1.257,1.2289,1.4427,1.4243,1.2317,1.5724,1.745,1.7523,1.7123,0.0,0.0,0.0,0.0,0.0,0.0,1.5101,1.4721,1.6813,1.8887,2.0688,2.0743,2.1175,2.2072,2.0436,1.8902,1.7962,1.6394,1.5089,1.3931,1.1677,0.0,0.0,0.0,0.0,0.0,0.0,0.0,0.0,0.0,0.0,0.0,0.0,0.0,0.0,0.0,0.0,0.0,0.0,0.0,0.0,-0.1525,0.0,0.0,0.0,0.0,0.0,0.0,0.0,0.0,0.0,0.0,-0.7641,-0.7601,-0.7627,-0.762,0.0,0.0,0.0,0.0,-0.6074,-0.5567,-0.4124,-0.3166,-0.3173,-0.3424,-0.3279,-0.2117,0.0,0.0,-0.2353,-0.3169,-0.4179,-0.4069,-0.3082,-0.2765,-0.526,-0.5488,-0.5214,-0.5106,-0.6303,-0.7545,-0.7538,-0.6076,-0.5093,1.2801,0.0,0.0,0.0,0.0,1.3649,1.4015,1.4287,1.4203,1.4145,1.4163,1.3705,0.0,0.0,0.0,0.0,0.0,0.0,1.3518,1.3435,1.41,1.4269,1.4146,1.4543,1.5042,1.5523,1.5701,1.6782,1.8575,1.5694,1.365,1.251,0.0,0.0,0.0,0.0,1.3693,1.5102,1.5854,1.7041,1.8833,1.7864,1.7423,1.7837,1.6679,1.6068,1.6187,1.3789,1.2192,1.1596,0.9415,0.0,0.0,0.0,0.0,0.0,0.0,0.0,0.0,0.0,0.0,0.0,0.0,0.0,0.0,0.0,0.0,0.0,0.0,0.0,0.181,-0.0877,-0.3699,0.0,0.0,0.0,0.0,0.0,0.0,0.0,0.0,0.0,-0.783,-0.7691,-0.7597,0.0,0.0,-0.7047,-0.6987,-0.6926,-0.6842,-0.6974,0.0,0.0,0.0,-0.6422,-0.6195,-0.6463,-0.6448,-0.6154,-0.559,-0.5318,-0.4802,-0.4003,-0.4303,-0.4574,-0.4407,-0.5177,-0.5618,-0.5737,-0.6086,-0.7002,-0.8115,-0.7059,-0.6231,1.3236,1.486,1.4047,1.3574,1.3474,1.3646,1.3938,1.4266,1.418,1.3878,1.3592,1.3246,1.2456,1.1319,1.0629,0.0,0.0,0.0,1.0562,1.0071,1.0716,1.095,1.0941,1.1067,1.1651,1.2697,1.2436,1.3044,1.4516,1.2502,1.0518,0.8764,0.0,0.0,1.2366,1.1678,1.2084,1.3774,1.3841,1.4973,1.7067,1.608,1.553,1.553,1.4928,1.4509,1.425,1.2205,1.0908,1.0249,0.8628,0.7167,0.0,0.0,0.0,0.0,0.0,0.0,0.0,0.0,0.0,0.0,0.0,0.151,0.0,0.0,0.0,0.0,0.2538,0.2533,0.0874,-0.1173,0.0,0.0,0.0,0.0,0.0,0.0,0.0,-0.7516,-0.7868,-0.8084,-0.808,-0.8005,-0.797,-0.8028,-0.7781,-0.7588,-0.7617,0.0,-0.7901,-0.8049,-0.7796,-0.7779,-0.7932,-0.7188,-0.6661,-0.6634,-0.573,-0.5114,-0.512,-0.4613,-0.3951,-0.3479,-0.3743,-0.401,-0.3403,-0.3987,-0.4927,-0.5765,-0.5765,-0.6118,-0.7275,-0.6539,-0.6044,1.4758,1.457,1.2048,1.2115,1.3816,1.3822,1.4198,1.4949,1.4956,1.4209,1.317,1.3702,1.2786,1.0788,1.0216,0.0,0.0,0.6879,0.6141,0.4673,0.491,0.4916,0.4916,0.5483,0.5717,0.594,0.6679,0.6795,0.6383,0.7246,0.6777,0.5162,0.8859,1.0514,0.9817,0.9579,1.0026,1.0936,1.1234,1.2719,1.5429,1.5097,1.4877,1.4663,1.4553,1.3795,1.2403,1.1345,1.0472,0.9662,0.8642,0.7641,0.6553,0.0,0.0,0.0,0.0,0.0,0.0,0.0,0.0,0.0,0.0,0.0,0.0,0.0,0.0,0.0,0.1415,0.0,-0.0403,-0.1662,0.0,0.0,0.0,-0.7353,-0.7621,-0.7875,-0.8082,-0.8058,0.0,0.0,0.0,0.0,-0.8537,-0.88,-0.8738,-0.8621,-0.8513,-0.8726,-0.8842,-0.8618,-0.7837,-0.7376,-0.7564,-0.6762,-0.5804,-0.4732,-0.3082,-0.2582,-0.2825,-0.2461,-0.2221,-0.2585,-0.2346,-0.2222,-0.2467,-0.2709,-0.3203,-0.528,-0.5282,-0.514,-0.5437,-0.5179,-0.5161,1.1361,1.2027,1.1436,1.2173,1.3903,1.3909,1.3701,1.3329,1.334,1.2986,1.2371,1.1463,1.018,0.8584,0.8863,0.8694,0.8349,0.7898,0.7267,0.6445,0.61,0.5656,0.5107,0.3993,0.3105,0.244,0.1663,0.0333,-0.1673,-0.1436,-0.1301,-0.1268,0.1154,0.4631,0.8821,0.542,0.4798,0.7458,0.9104,1.078,1.2521,1.3491,1.3485,1.2422,1.2479,1.2151,1.1428,0.9254,0.8042,0.8131,0.6872,0.59,0.5424,0.4382,0.0,0.0,0.0,0.0,0.0,0.0,0.0,0.0,0.0,0.1224,0.146,0.0,0.1437,0.0,0.163,0.2103,0.2939,-0.0104,0.0,0.0,-0.6705,-0.7384,-0.7756,-0.825,-0.8465,-0.8238,-0.8547,-0.8716,-0.8755,-0.881,-0.8998,-0.9295,-0.8858,-0.8628,-0.8711,-0.8927,-0.9116,-0.915,-0.9132,-0.9196,-0.9061,-0.8435,-0.7304,-0.6016,-0.4677,-0.3942,-0.431,-0.3206,-0.2468,-0.2837,-0.2838,-0.2838,-0.296,-0.2837,-0.3083,-0.3574,-0.3451,-0.3815,-0.5628,-0.5867,-0.6224,1.1334,1.1928,1.1958,1.2541,1.3397,1.3397,1.2883,1.2073,1.2003,1.1615,1.1111,1.0038,0.8744,0.73,0.7572,0.7073,0.5793,0.5341,0.445,0.3117,0.2778,0.2108,0.111,0.0778,-0.0111,-0.1778,-0.2117,-0.3129,-0.4931,-0.5944,-0.6333,-0.5886,-0.4546,-0.1587,0.2863,0.1809,0.2819,0.5967,0.7626,0.8793,0.9541,1.0647,1.0908,1.0452,1.1052,1.0757,0.9365,0.7255,0.6093,0.5974,0.5241,0.4776,0.4681,0.4014,0.3699,0.0,0.0,0.0,0.0,0.0,0.0,0.0,0.0,0.0,0.0,0.0,0.2055,0.0,0.2166,0.0,0.3849,0.1142,-0.1764,-0.4241,-0.4886,-0.5986,-0.8017,-0.8169,-0.8273,-0.8784,-0.9042,-0.9228,-0.9205,-0.9276,-0.9445,-0.9654,-0.937,-0.9147,-0.915,-0.9398,-0.9511,-0.9794,-0.9957,-1.0061,-1.0186,-0.9326,-0.8346,-0.7609,-0.6388,-0.5653,-0.59,-0.5165,-0.4551,-0.4797,-0.4309,-0.3942,-0.4066,-0.3575,-0.3208,-0.3331,-0.3208,-0.3452,-0.4556,-0.48,-0.5287,1.1963,1.1968,1.2241,1.2335,1.2387,1.2107,1.1471,1.0618,1.0755,1.0247,0.9453,0.9023,0.7852,0.6352,0.6335,0.4808,0.2127,0.1679,0.0448,-0.157,-0.1683,-0.2577,-0.403,-0.2801,-0.3473,-0.5491,-0.505,-0.5166,-0.5848,-0.7882,-0.8883,-0.8843,-0.8377,-0.6904,-0.4545,-0.1421,0.1794,0.4908,0.6117,0.6855,0.695,0.7713,0.8246,0.8643,0.9863,0.9415,0.715,0.5534,0.4533,0.4234,0.4133,0.4142,0.4058,0.3821,0.3748,0.0,0.3447,0.0,0.0,0.0,0.0,0.0,0.0,0.0,0.0,0.1718,0.2328,0.396,0.2614,0.2108,0.3285,0.1742,-0.0312,-0.2467,-0.2508,-0.4009,-0.7806,-0.7815,-0.7997,-0.9292,-0.9422,-0.9374,-0.9571,-0.9597,-0.9572,-0.9815,-0.9892,-0.972,-0.9674,-0.9542,-0.9664,-1.0061,-1.0304,-1.0425,-1.0297,-0.9559,-0.8824,-0.8578,-0.7606,-0.6996,-0.6996,-0.6996,-0.6874,-0.6874,-0.5774,-0.5042,-0.5291,-0.4435,-0.3825,-0.3826,-0.3702,-0.3699,-0.3576,-0.3576,-0.3698,0.7572,0.7773,0.9509,1.0224,1.013,0.8449,0.7664,0.7535,0.924,0.932,0.8078,0.7704,0.6898,0.5904,0.4693,0.4027,0.3469,0.1344,0.0112,-0.0336,-0.1346,-0.2465,-0.3692,-0.4359,-0.5475,-0.6821,-0.7601,-0.8054,-0.8279,-0.8732,-0.8719,-0.8372,-0.8365,-0.8118,0.0,0.0,0.0,0.0,0.3215,0.4876,0.6182,0.748,0.8066,0.7815,0.9086,0.0,0.6539,0.5131,0.4529,0.4634,0.4334,0.0,0.0,0.0,0.0,0.0,0.0,0.0,0.0,0.0,0.0,0.0,0.1609,0.1706,0.1716,0.1617,0.174,0.2105,0.1381,0.119,0.2014,0.0898,-0.0453,-0.1961,-0.162,-0.2901,-0.6669,-0.7351,-0.8129,-0.9331,-0.8726,-0.8675,-0.9395,-0.8942,-0.8836,-0.994,-1.0183,-0.9815,-0.9083,-0.8854,-0.8861,-0.9089,-0.9933,-1.0293,-0.9313,-0.9195,-0.8952,-0.7969,-0.7482,-0.7118,-0.6637,-0.6999,-0.6754,-0.59,-0.5536,-0.5536,-0.517,-0.4803,-0.4438,-0.4073,-0.4316,-0.4682,-0.4928,-0.4682,-0.5047,0.6793,0.0,0.7842,0.86,0.0,0.7425,0.669,0.6998,0.8059,0.7968,0.7169,0.6234,0.5929,0.5828,0.3694,0.2574,0.224,0.0672,-0.0336,-0.0897,-0.2129,-0.3358,-0.4472,-0.5139,-0.6031,-0.7041,-0.7149,-0.7146,-0.7146,-0.7709,-0.7862,-0.7504,-0.8268,-0.8642,-0.8516,-0.6263,-0.3676,-0.0826,0.0946,0.2246,0.3039,0.4383,0.5357,0.5992,0.0,0.0,0.0,0.0,0.0,0.0,0.0,0.0,0.0,0.0,0.0,0.2796,0.2449,0.224,0.1968,0.2179,0.2092,0.1702,0.1811,0.1797,0.1662,0.1687,0.1717,0.1747,0.1212,0.0784,0.0917,0.0347,-0.0584,-0.1766,-0.166,-0.2617,-0.5242,-0.5782,-0.6317,-0.7409,-0.7332,-0.7243,-0.7736,-0.7983,-0.8227,-0.9079,-0.9335,-0.9098,-0.8352,-0.836,-0.8482,-0.8227,-0.9319,-1.0048,-0.9559,-1.0051,-1.0422,-0.9687,-0.9073,-0.8584,-0.8346,-0.8221,-0.7853,-0.7373,-0.7131,-0.6764,-0.6399,-0.5906,-0.5295,-0.5053,-0.5174,-0.5418,-0.5542,-0.5295,-0.5293,0.7138,0.8069,0.6905,0.7181,0.8306,0.6596,0.61,0.6608,0.0,0.0,0.0,0.5483,0.5039,0.5044,0.2912,0.1456,0.0673,-0.0,-0.1009,-0.213,-0.3135,-0.436,-0.5697,-0.5695,-0.6255,-0.7374,-0.6478,-0.6031,-0.6031,-0.6927,-0.7263,-0.7146,-0.8266,-0.884,-0.8517,-0.6707,-0.4521,-0.2151,-0.0854,-0.0108,-0.0,0.1214,0.2494,0.3787,0.4215,0.4471,0.4531,0.3725,0.3022,0.2622,0.2422,0.2328,0.2342,0.2241,0.235,0.2777,0.2779,0.2608,0.236,0.2581,0.2505,0.1792,0.1795,0.1774,0.1724,0.1771,0.1803,0.1803,0.1258,0.0694,0.0116,-0.0235,-0.0711,-0.1782,-0.1924,-0.2665,-0.4236,-0.4153,-0.4547,-0.5651,-0.5772,-0.5651,-0.6141,-0.7008,-0.7747,-0.8102,-0.8482,-0.8127,-0.75,-0.7739,-0.7861,-0.7373,-0.8708,-0.9805,-0.9926,-1.0914,-1.1772,-1.153,-1.0664,-1.0172,-1.0176,-0.969,-0.9204,-0.8842,-0.848,-0.7872,-0.7625,-0.6766,-0.6029,-0.5906,-0.6029,-0.6029,-0.5906,-0.5538,-0.5661,0.648,0.6695,0.6489,0.5489,0.4048,0.3744,0.3834,0.4239,0.6262,0.7176,0.7078,0.6852,0.5156,0.246,0.2465,0.2018,0.1008,-0.0672,-0.2241,0.0,-0.358,-0.4806,-0.6816,-0.6816,-0.7487,-0.8605,-0.8491,-0.838,-0.838,-0.8602,-0.8605,-0.8602,-0.8826,-0.838,-0.7379,-0.7041,-0.5799,-0.3667,-0.1938,-0.0851,-0.0214,0.1247,0.1733,0.1318,0.2032,0.2633,0.2919,0.1813,0.2013,0.3528,0.2823,0.2354,0.2427,0.2009,0.1821,0.1984,0.199,0.1885,0.1893,0.2004,0.1897,0.1793,0.1795,0.1791,0.1785,0.1814,0.1834,0.1835,0.1279,0.0709,-0.0,-0.0961,-0.145,-0.1223,-0.172,-0.2582,-0.3801,-0.3931,-0.4304,-0.5529,-0.4918,-0.4795,-0.5902,-0.6403,-0.6775,-0.7497,-0.8111,-0.836,-0.6641,-0.6274,-0.6272,-0.6394,-0.8221,-0.9562,-0.9684,-1.091,-1.1526,-1.1776,-1.1039,-1.0176,-0.9326,-0.9329,-0.8964,-0.7622,-0.7747,-0.7625,-0.7255,-0.6888,-0.6641,-0.6274,-0.6521,-0.6644,-0.6274,-0.6276,-0.6521,0.4675,0.4824,0.5911,0.5891,0.4817,0.3729,0.3338,0.3699,0.4714,0.5276,0.527,0.5272,0.5048,0.4484,0.1906,0.0673,0.0448,-0.1121,-0.213,-0.2688,-0.4026,-0.4806,-0.5365,-0.7152,-0.8048,-0.7934,-0.8602,-0.8937,-0.8937,-0.8937,-0.8937,-0.8826,-0.7697,-0.703,-0.7041,-0.6594,-0.5588,-0.4029,-0.3192,-0.2404,-0.1644,-0.0862,-0.0427,-0.0107,0.0747,0.1387,0.1922,0.1817,0.2138,0.2675,0.2353,0.2049,0.2079,0.1863,0.2104,0.2833,0.2159,0.2168,0.2875,0.2189,0.1844,0.1844,0.1844,0.1844,0.1844,0.1842,0.1847,0.1864,0.1656,0.1077,0.0121,-0.0608,-0.1103,-0.1481,-0.1853,-0.2222,-0.2714,-0.2836,-0.3081,-0.3696,-0.3449,-0.3449,-0.4186,-0.5056,-0.5796,-0.6274,-0.7006,-0.6766,-0.5174,-0.4807,-0.4807,-0.493,-0.6394,-0.7492,-0.7856,-0.9562,-1.0543,-1.0304,-1.0054,-0.969,-0.8842,-0.8723,-0.7989,-0.7625,-0.775,-0.7747,-0.7503,-0.7378,-0.738,-0.7383,-0.7505,-0.7508,-0.7383,-0.7508,-0.7505,0.1323,0.1862,0.4067,0.4912,0.4848,0.3235,0.2581,0.2806,0.2806,0.2803,0.2799,0.28,0.3814,0.5054,0.1121,-0.0448,-0.0224,-0.1121,-0.1683,-0.2017,-0.4024,-0.4582,-0.4359,-0.6924,-0.7595,-0.6927,-0.7706,-0.8156,-0.8152,-0.8156,-0.8152,-0.7931,-0.6246,-0.5913,-0.6818,-0.617,-0.5274,-0.4365,-0.4283,-0.3733,-0.2714,-0.272,-0.2155,-0.102,-0.0453,0.034,0.1245,0.1927,0.2156,0.2042,0.1929,0.1815,0.1816,0.1816,0.2281,0.3113,0.2427,0.2324,0.3171,0.2472,0.1885,0.1885,0.1885,0.1889,0.1894,0.1874,0.187,0.1894,0.1803,0.1335,0.0608,0.0123,-0.0494,-0.1606,-0.1977,-0.1977,-0.1977,-0.1977,-0.1977,-0.21,-0.2346,-0.259,-0.2837,-0.4074,-0.5184,-0.5546,-0.5542,-0.493,-0.4073,-0.395,-0.395,-0.4195,-0.5176,-0.6151,-0.6272,-0.8465,-0.9684,-0.9083,-0.9083,-0.9086,-0.8726,-0.7869,-0.7378,-0.7747,-0.7994,-0.7994,-0.7994,-0.8116,-0.8241,-0.8366,-0.8366,-0.8491,-0.8369,-0.8366,-0.8366,-0.4491,-0.2692,-0.0421,0.065,-0.0,-0.0,-0.0,-0.0,-0.0,-0.0,-0.0,-0.0,-0.0,0.0561,-0.0,-0.0,-0.0,-0.0673,-0.1232,-0.1901,-0.3131,-0.4249,-0.5029,-0.5584,-0.5697,-0.5584,-0.5806,-0.5917,-0.5917,-0.5808,-0.5806,-0.5695,-0.547,-0.5475,-0.5822,-0.5899,-0.5558,-0.4918,-0.4953,-0.4194,-0.2545,-0.2683,-0.2345,-0.129,-0.1523,-0.0702,0.1286,0.0938,0.1289,0.2462,0.2226,0.1877,0.1876,0.1877,0.1995,0.2116,0.2,0.2001,0.2122,0.2003,0.1888,0.1885,0.1889,0.19,0.1924,0.1924,0.1923,0.1931,0.1466,0.1354,0.1602,0.074,-0.0371,-0.1112,-0.173,-0.1977,-0.1977,-0.1977,-0.1977,-0.1977,-0.2345,-0.259,-0.296,-0.4198,-0.5315,-0.5559,-0.4813,-0.4319,-0.3951,-0.395,-0.395,-0.4319,-0.5544,-0.6644,-0.6886,-0.8474,-0.9451,-0.9454,-0.9211,-0.8848,-0.8607,-0.8238,-0.7872,-0.7875,-0.8119,-0.8244,-0.8369,-0.8613,-0.8732,-0.8854,-0.8854,-0.8857,-0.8857,-0.8854,-0.8732,-0.6231,-0.538,-0.4616,-0.252,-0.0,-0.0,-0.0,-0.0,-0.0,-0.0,-0.0,-0.0,-0.0,-0.0,-0.0,-0.0,-0.0,-0.0224,-0.0897,-0.1791,-0.2349,-0.2796,-0.3357,-0.4804,-0.5027,-0.4472,-0.5027,-0.5361,-0.5361,-0.5357,-0.5693,-0.6031,-0.4349,-0.3813,-0.4653,-0.4344,-0.4018,-0.4036,-0.4246,-0.3948,-0.3241,-0.3322,-0.2944,-0.2001,-0.153,-0.0588,0.0706,0.1178,0.1649,0.2239,0.2003,0.1885,0.1885,0.1885,0.2248,0.2982,0.3128,0.2782,0.206,0.194,0.1939,0.1939,0.1939,0.1945,0.1956,0.1958,0.2447,0.3303,0.246,0.1482,0.0988,0.037,-0.0247,-0.0988,-0.1606,-0.1977,-0.1977,-0.1977,-0.1977,-0.1976,-0.2346,-0.259,-0.3083,-0.3826,-0.457,-0.4694,-0.4198,-0.395,-0.395,-0.4195,-0.4438,-0.4684,-0.5908,-0.6396,-0.6151,-0.7497,-0.8477,-0.8355,-0.8723,-0.8973,-0.836,-0.8116,-0.7994,-0.8119,-0.8369,-0.8491,-0.8613,-0.8732,-0.8976,-0.9098,-0.9098,-0.9098,-0.9095,-0.9095,-0.9095,-0.684,-0.6883,-0.7122,-0.4433,-0.0,-0.0,-0.0,-0.0,-0.0,-0.0,-0.0,-0.0,-0.0,-0.0,-0.0,-0.0,-0.0,-0.0,-0.0448,-0.1234,-0.1456,-0.1679,-0.2018,-0.3469,-0.3914,-0.347,-0.4359,-0.5027,-0.5361,-0.5355,-0.5804,-0.6142,-0.4013,-0.3486,-0.4467,-0.38,-0.3489,-0.3889,-0.3965,-0.3784,-0.3563,-0.3743,-0.3221,-0.2145,-0.1549,-0.0596,0.0835,0.1552,0.1911,0.1911,0.1911,0.1911,0.1911,0.2268,0.2996,0.3876,0.3673,0.2957,0.21,0.1977,0.1977,0.1977,0.1977,0.1977,0.21,0.247,0.3457,0.4562,0.4073,0.3086,0.1356,0.037,-0.0123,-0.037,-0.1234,-0.1977,-0.1977,-0.1977,-0.1977,-0.1977,-0.2346,-0.2714,-0.3085,-0.3579,-0.3951,-0.395,-0.395,-0.4071,-0.4195,-0.4559,-0.4926,-0.517,-0.6151,-0.6399,-0.5784,-0.7008,-0.7622,-0.7622,-0.8236,-0.8604,-0.8116,-0.8119,-0.8119,-0.8488,-0.8613,-0.8735,-0.8976,-0.9095,-0.9217,-0.9335,-0.9457,-0.946,-0.946,-0.946,-0.9579,-0.6768,-0.6989,-0.7127,-0.4479,-0.0,-0.0,-0.0,-0.0,-0.0,-0.0,-0.0,-0.0,-0.0,-0.0,-0.0,-0.0,-0.0,-0.0,-0.0,-0.0,-0.0785,-0.1234,-0.1795,-0.1907,-0.2018,-0.2241,-0.3246,-0.436,-0.5361,-0.5361,-0.5472,-0.5472,-0.5359,-0.563,-0.5961,-0.512,-0.4817,-0.4981,-0.4373,-0.3822,-0.3579,-0.3819,-0.3072,-0.1718,-0.1721,-0.0737,0.1474,0.1971,0.1971,0.1972,0.1969,0.197,0.2094,0.3193,0.4052,0.4307,0.296,0.21,0.1977,0.1977,0.1977,0.1977,0.21,0.21,0.2346,0.3454,0.4562,0.4935,0.6419,0.6168,0.3939,0.2094,0.0739,0.0739,-0.0863,-0.1853,-0.1977,-0.1977,-0.1977,-0.21,-0.2346,-0.2714,-0.3331,-0.3703,-0.3826,-0.395,-0.395,-0.4071,-0.4682,-0.4926,-0.517,-0.5784,-0.6399,-0.6888,-0.6886,-0.7378,-0.7747,-0.7869,-0.7869,-0.8116,-0.8244,-0.8369,-0.8613,-0.8854,-0.8976,-0.9095,-0.9339,-0.9457,-0.97,-0.9822,-0.9822,-0.9822,-0.9943,-1.0061,-1.0183,-0.6888,-0.6998,-0.5477,-0.4709,-0.4267,-0.1345,-0.0,-0.0,-0.0,-0.0,-0.0,-0.0,-0.0,-0.0,-0.0,-0.0,-0.0,-0.0,-0.0,-0.0,-0.0673,-0.1009,-0.1234,-0.157,-0.2241,-0.2912,-0.3357,-0.447,-0.5919,-0.5693,-0.6253,-0.7499,-0.806,-0.7595,-0.6493,-0.6085,-0.5814,-0.5343,-0.5037,-0.4562,-0.3826,-0.3826,-0.3579,-0.296,-0.259,-0.0986,0.1973,0.1357,0.1358,0.1977,0.1977,0.1977,0.2224,0.4077,0.4445,0.3087,0.1975,0.1606,0.1977,0.1977,0.1977,0.21,0.2838,0.3455,0.3701,0.3943,0.4679,0.6412,0.7403,0.7273,0.6648,0.555,0.358,0.037,-0.1234,-0.1977,-0.1977,-0.1977,-0.1977,-0.21,-0.2469,-0.296,-0.3208,-0.3579,-0.395,-0.395,-0.395,-0.4195,-0.4805,-0.5295,-0.5784,-0.6399,-0.7133,-0.7503,-0.7503,-0.7625,-0.7872,-0.7994,-0.8119,-0.8244,-0.8369,-0.861,-0.8854,-0.9095,-0.9335,-0.9473,-0.9599,-0.9856,-1.0096,-1.0232,-1.0229,-1.0131,-1.0425,-1.0368,-1.0476,-0.7021,-0.6829,-0.4925,-0.4706,-0.5502,-0.1681,-0.0,-0.0,-0.0,-0.0,-0.0,-0.157,-0.157,-0.0,-0.0,-0.1009,-0.2018,-0.0,-0.0,-0.0,-0.0785,-0.1234,-0.1234,-0.157,-0.2465,-0.358,-0.4474,-0.5699,-0.7146,-0.6805,-0.7371,-0.8846,-0.9411,-0.8758,-0.7006,-0.6686,-0.6197,-0.538,-0.5047,-0.4562,-0.3826,-0.3579,-0.3579,-0.3702,-0.2837,-0.1356,0.0986,0.0986,0.1234,0.1853,0.1853,0.1729,0.1851,0.3337,0.4453,0.4327,0.2223,0.1482,0.2346,0.2221,0.2097,0.2467,0.4193,0.5427,0.58,0.5176,0.5912,0.7401,0.7891,0.7886,0.7891,0.7787,0.581,0.1233,-0.0617,-0.1358,-0.1853,-0.1977,-0.21,-0.2224,-0.2592,-0.2962,-0.321,-0.3581,-0.3826,-0.395,-0.4071,-0.4438,-0.5172,-0.5784,-0.6521,-0.7136,-0.7505,-0.7872,-0.7997,-0.8119,-0.8119,-0.8244,-0.8363,-0.8491,-0.8613,-0.8854,-0.9095,-0.9335,-0.9589,-0.9731,-0.9869,-1.0253,-1.0404,-1.0555,-1.0249,-0.9928,-1.026,-1.0602,-1.0587,-0.716,-0.6953,-0.5483,-0.4587,-0.3918,-0.1791,-0.0,-0.0,-0.0,-0.0,-0.1009,-0.4604,-0.3703,-0.0,-0.0,-0.2464,-0.528,-0.258,-0.0,-0.0448,-0.1458,-0.2019,-0.213,-0.2018,-0.2688,-0.4027,-0.6033,-0.7598,-0.8602,-0.8598,-0.8712,-0.8826,-0.9175,-0.8762,-0.7849,-0.7054,-0.6298,-0.5218,-0.4545,-0.395,-0.3455,-0.296,-0.296,-0.3455,-0.2466,-0.1479,-0.074,0.0864,0.1729,0.1853,0.1482,0.0987,0.0986,0.1234,0.3582,0.7311,0.4324,0.2468,0.3451,0.2956,0.3078,0.3817,0.6166,0.7536,0.7411,0.7529,0.7646,0.7768,0.7883,0.7877,0.7894,0.7782,0.6293,0.3322,0.0985,-0.0493,-0.1482,-0.1977,-0.21,-0.2346,-0.284,-0.3086,-0.3459,-0.3706,-0.395,-0.4071,-0.4438,-0.5049,-0.5786,-0.6396,-0.7133,-0.7625,-0.7872,-0.7994,-0.8244,-0.8369,-0.8369,-0.8491,-0.8732,-0.8854,-0.9095,-0.9217,-0.9339,-0.9582,-0.9883,-1.0029,-1.0345,-1.0496,-1.0461,-1.0378,-1.0059,-0.9564,-0.9784,-0.9995,-1.0485,-0.7165,-0.7179,-0.6725,-0.6279,-0.6061,-0.5272,-0.4143,-0.2573,-0.2463,-0.2463,-0.2463,-0.2351,-0.3138,-0.3814,-0.1681,-0.2579,-0.6878,-0.5514,-0.4042,-0.2688,-0.2801,-0.3587,-0.4257,-0.347,-0.4139,-0.5922,-0.7595,-0.8491,-0.8826,-0.8826,-0.8374,-0.7485,-0.8012,-0.7917,-0.7031,-0.6992,-0.6375,-0.538,-0.5042,-0.4562,-0.3825,-0.296,-0.2343,-0.1849,-0.1109,-0.0123,0.0986,0.037,0.0617,0.1853,0.1853,0.1235,0.0617,0.037,0.284,0.7439,0.6938,0.494,0.4189,0.53,0.6043,0.6539,0.7406,0.7779,0.7902,0.7891,0.788,0.788,0.7875,0.7877,0.7771,0.7403,0.5667,0.2214,-0.0,-0.074,-0.0,-0.0,-0.1233,-0.2345,-0.2838,-0.3085,-0.3457,-0.3703,-0.4071,-0.4438,-0.4803,-0.5293,-0.6276,-0.6766,-0.7133,-0.775,-0.7872,-0.8116,-0.8366,-0.861,-0.8854,-0.8854,-0.9098,-0.9217,-0.9339,-0.9457,-0.97,-0.9866,-1.0166,-1.0489,-1.0685,-1.0642,-1.0608,-1.0005,-0.9379,-0.9124,-0.9118,-0.9373,-0.9891,-0.716,-0.7171,-0.7171,-0.7176,-0.7182,-0.7187,-0.6396,-0.5039,-0.4929,-0.4931,-0.4592,-0.3469,-0.3248,-0.3924,-0.2241,-0.2466,-0.4606,-0.6193,-0.5848,-0.392,-0.3924,-0.4597,-0.5601,-0.481,-0.4583,-0.581,-0.7038,-0.8048,-0.8846,-0.8048,-0.726,-0.6601,-0.7148,-0.6921,-0.5983,-0.6316,-0.5933,-0.4913,-0.4807,-0.4564,-0.3948,-0.3207,-0.2218,-0.1109,0.0123,0.1109,0.1851,0.074,0.074,0.1606,0.1606,0.1605,0.2593,0.3088,0.4076,0.5808,0.7301,0.7047,0.5792,0.6908,0.7902,0.7896,0.7891,0.7888,0.7886,0.7875,0.7872,0.7872,0.7877,0.7635,0.7023,0.7033,0.5298,0.2092,0.1108,0.0123,-0.0,-0.0,-0.0,-0.222,-0.2837,-0.3208,-0.3579,-0.3826,-0.4195,-0.4682,-0.517,-0.5538,-0.6641,-0.7133,-0.7503,-0.7872,-0.7997,-0.8241,-0.8488,-0.8854,-0.9095,-0.9339,-0.946,-0.946,-0.9579,-0.9704,-0.9825,-1.0169,-1.0486,-1.1007,-1.1221,-1.0799,-1.0496,-0.9723,-0.9365,-0.9157,-0.9323,-0.8918,-0.9429,-0.7154,-0.7154,-0.7154,-0.7157,-0.716,-0.7173,-0.7065,-0.707,-0.7073,-0.6966,-0.6964,-0.6621,-0.4704,-0.1902,-0.2463,-0.2015,-0.112,-0.4263,-0.5166,-0.3811,-0.3702,-0.4377,-0.5041,-0.5144,-0.4916,-0.4472,-0.525,-0.6599,-0.8183,-0.6824,-0.5929,-0.6067,-0.6273,-0.6018,-0.5068,-0.5258,-0.486,-0.394,-0.395,-0.395,-0.3826,-0.3453,-0.2835,-0.1356,0.0616,0.1849,0.1605,0.1482,0.1853,0.2224,0.1853,0.3088,0.6438,0.7688,0.6427,0.5051,0.6664,0.7656,0.7774,0.7768,0.7888,0.7875,0.7875,0.7872,0.7875,0.7503,0.7378,0.7378,0.7266,0.6778,0.591,0.6041,0.5181,0.3324,0.283,0.2338,0.037,-0.0,-0.0,-0.2343,-0.3083,-0.3208,-0.3826,-0.395,-0.4316,-0.4928,-0.5538,-0.6274,-0.6888,-0.75,-0.7747,-0.7997,-0.8244,-0.8485,-0.8732,-0.8973,-0.9335,-0.9457,-0.97,-0.9704,-0.9846,-0.9856,-1.0124,-1.0591,-1.0985,-1.1515,-1.1637,-1.1202,-1.1034,-1.083,-1.0359,-0.9902,-0.9359,-0.8915,-0.9279,-0.7154,-0.7154,-0.7154,-0.7154,-0.7154,-0.716,-0.7163,-0.7163,-0.7165,-0.7176,-0.7184,-0.7192,-0.6403,-0.5054,-0.2129,-0.056,-0.056,-0.1457,-0.2243,-0.2242,-0.1906,-0.2802,-0.4029,-0.5029,-0.5139,-0.4804,-0.4916,-0.5697,-0.6262,-0.5813,-0.5288,-0.4447,-0.5203,-0.5059,-0.4311,-0.4254,-0.4174,-0.3824,-0.3826,-0.395,-0.3826,-0.296,-0.3208,-0.4198,-0.0493,0.1234,0.0617,0.0494,0.2593,0.6064,0.6066,0.5313,0.5306,0.6794,0.7416,0.6908,0.7278,0.7894,0.7883,0.788,0.7875,0.7872,0.7627,0.738,0.7508,0.6394,0.5778,0.5533,0.492,0.4555,0.4681,0.4928,0.4433,0.3815,0.369,0.2707,0.0739,0.0616,0.0123,-0.2466,-0.3208,-0.3579,-0.3948,-0.4316,-0.4805,-0.5538,-0.6151,-0.6766,-0.7378,-0.7747,-0.7994,-0.8244,-0.8369,-0.8732,-0.8973,-0.9214,-0.9457,-0.97,-0.9822,-0.9825,-0.9995,-1.0169,-1.0584,-1.1155,-1.1503,-1.1935,-1.1899,-1.1724,-1.1694,-1.1633,-1.0829,-1.0035,-0.9102,-0.8676,-0.9468,-0.7154,-0.7154,-0.7154,-0.7154,-0.7154,-0.7154,-0.7157,-0.7168,-0.7165,-0.7176,-0.6961,-0.6056,-0.6291,-0.6756,-0.4267,-0.1794,-0.0224,-0.0561,-0.1234,-0.1683,-0.157,-0.2017,-0.3023,-0.4024,-0.4359,-0.3914,-0.3916,-0.3914,-0.3916,-0.4252,-0.418,-0.4017,-0.4318,-0.4271,-0.3976,-0.392,-0.395,-0.395,-0.395,-0.3948,-0.4193,-0.3699,-0.3453,-0.4444,-0.2345,-0.1976,-0.0494,-0.0494,0.0741,0.3459,0.5442,0.6058,0.4435,0.6043,0.7158,0.6778,0.715,0.7271,0.6888,0.7136,0.751,0.7508,0.7266,0.6893,0.6399,0.541,0.4918,0.4918,0.3936,0.3816,0.4186,0.3939,0.3692,0.3692,0.3322,0.2092,-0.0,0.0246,-0.0616,-0.2342,-0.3455,-0.3701,-0.4193,-0.4682,-0.5295,-0.6029,-0.6521,-0.7136,-0.775,-0.7997,-0.8119,-0.8369,-0.8613,-0.8973,-0.9217,-0.9457,-0.97,-0.9943,-1.0218,-1.0218,-1.0309,-1.0634,-1.1102,-1.1587,-1.2043,-1.2334,-1.2409,-1.2342,-1.2123,-1.1762,-1.0955,-1.0555,-1.0025,-0.9495,-1.0293,-0.7154,-0.7154,-0.7154,-0.7154,-0.7154,-0.7154,-0.7165,-0.7179,-0.7179,-0.7187,-0.6852,-0.4931,-0.5048,-0.6527,-0.483,-0.3815,-0.0112,-0.1009,-0.157,-0.1795,-0.1683,-0.1906,-0.2018,-0.2911,-0.2911,-0.2241,-0.1907,-0.2018,-0.2357,-0.2697,-0.318,-0.3698,-0.3872,-0.3931,-0.3876,-0.3928,-0.3947,-0.395,-0.4071,-0.4193,-0.4685,-0.481,-0.4318,-0.3207,-0.4199,-0.3459,-0.1482,-0.1235,-0.1606,-0.1853,0.2839,0.4442,0.3943,0.5423,0.5667,0.5167,0.5538,0.5784,0.5165,0.6031,0.6653,0.6403,0.653,0.6283,0.4921,0.4427,0.4303,0.418,0.3939,0.3325,0.3201,0.2584,0.2337,0.2583,0.1845,0.0739,-0.037,-0.074,-0.1356,-0.3208,-0.3579,-0.4069,-0.4682,-0.5172,-0.554,-0.6523,-0.7013,-0.738,-0.7872,-0.8119,-0.8366,-0.8491,-0.8854,-0.9339,-0.9457,-0.97,-0.9943,-1.019,-1.0612,-1.0782,-1.0918,-1.1143,-1.1645,-1.2167,-1.2576,-1.295,-1.3164,-1.3079,-1.2824,-1.282,-1.2545,-1.215,-1.189,-1.149,-1.1886,-0.7154,-0.7154,-0.7154,-0.7154,-0.7154,-0.7154,-0.7165,-0.7182,-0.7179,-0.6964,-0.6974,-0.641,-0.4377,-0.0,-0.0,-0.0785,-0.0224,-0.0897,-0.1346,-0.1795,-0.1795,-0.1795,-0.1795,-0.2242,-0.2018,-0.1795,-0.1795,-0.1795,-0.1912,-0.2501,-0.3113,-0.3749,-0.3805,-0.3869,-0.3924,-0.3937,-0.395,-0.395,-0.4438,-0.4438,-0.4441,-0.506,-0.469,-0.3334,-0.2593,-0.1976,-0.1853,-0.1853,-0.1977,-0.1358,0.0616,0.2463,0.2954,0.3568,0.369,0.3566,0.3565,0.3688,0.3688,0.4306,0.48,0.4306,0.4432,0.4189,0.32,0.283,0.2707,0.2461,0.1601,0.1109,0.1108,0.1354,0.1107,0.0615,-0.0123,-0.1108,-0.2219,-0.1971,-0.2341,-0.3575,-0.4438,-0.4805,-0.5546,-0.6154,-0.6523,-0.6896,-0.7261,-0.7625,-0.7994,-0.8244,-0.8488,-0.8735,-0.9098,-0.946,-0.971,-0.9971,-1.0246,-1.0638,-1.1064,-1.1414,-1.1553,-1.1763,-1.2139,-1.2664,-1.308,-1.3434,-1.3748,-1.3884,-1.3744,-1.3875,-1.4006,-1.3608,-1.321,-1.3083,-1.2684,-0.7154,-0.7154,-0.7154,-0.7154,-0.7154,-0.7154,-0.7168,-0.6959,-0.594,-0.4819,-0.3926,-0.3815,-0.2355,-0.0,-0.0,-0.0336,-0.0785,-0.0897,-0.1234,-0.1683,-0.1795,-0.1795,-0.1795,-0.1795,-0.1795,-0.1795,-0.1907,-0.1913,-0.2043,-0.2634,-0.3255,-0.3807,-0.3846,-0.3887,-0.3942,-0.395,-0.4073,-0.4438,-0.4682,-0.4928,-0.5302,-0.4315,-0.3453,-0.2471,-0.1359,-0.1359,-0.1853,-0.1977,-0.1977,-0.1729,-0.0863,0.037,0.1477,0.2091,0.2214,0.1723,0.2214,0.2092,0.2092,0.2584,0.3446,0.3321,0.3199,0.2707,0.2338,0.2093,0.1601,0.1108,0.0493,0.0123,0.037,-0.0,-0.0246,-0.0862,-0.1724,-0.2712,-0.3453,-0.3081,-0.2956,-0.419,-0.4803,-0.5421,-0.6035,-0.6768,-0.7133,-0.7383,-0.7505,-0.7872,-0.8241,-0.8491,-0.8729,-0.9095,-0.9339,-0.9707,-0.9961,-1.0243,-1.0685,-1.1117,-1.1577,-1.1838,-1.2127,-1.2314,-1.2627,-1.303,-1.343,-1.3709,-1.4015,-1.4272,-1.4539,-1.4539,-1.4403,-1.4403,-1.4272,-1.4006,-1.3608,-0.6932,-0.7043,-0.7043,-0.7157,-0.716,-0.716,-0.7173,-0.6855,-0.5044,-0.3137,-0.0,-0.0,-0.0,-0.0,-0.0,-0.0897,-0.1346,-0.1346,-0.1458,-0.1683,-0.1795,-0.1795,-0.1795,-0.1795,-0.18,-0.18,-0.2031,-0.2044,-0.229,-0.2776,-0.3416,-0.3849,-0.3873,-0.3905,-0.3942,-0.4073,-0.4195,-0.4561,-0.5053,-0.5298,-0.5673,-0.4192,-0.296,-0.1235,-0.1235,-0.173,-0.1977,-0.1977,-0.1977,-0.1977,-0.1977,-0.1358,-0.037,0.0616,0.0985,-0.0247,0.0616,0.0616,0.0123,0.0739,0.1724,0.2953,0.1968,0.1353,0.1108,0.1231,0.0862,0.0369,-0.0246,-0.0123,0.0615,-0.0615,-0.1354,-0.1969,-0.2958,-0.3822,-0.4315,-0.4193,-0.4436,-0.5047,-0.5538,-0.6033,-0.6648,-0.7261,-0.7503,-0.7747,-0.7872,-0.8116,-0.8488,-0.8732,-0.8973,-0.9214,-0.9457,-0.989,-1.0159,-1.0808,-1.1248,-1.1499,-1.1972,-1.2242,-1.2668,-1.2984,-1.3164,-1.3383,-1.3744,-1.4146,-1.4277,-1.4539,-1.467,-1.4805,-1.48,-1.467,-1.48,-1.4936,-1.4403,-0.604,-0.6487,-0.6485,-0.6715,-0.7176,-0.7176,-0.719,-0.7206,-0.6636,-0.4039,-0.0,-0.0,-0.0,-0.0,-0.1121,-0.157,-0.1683,-0.157,-0.1683,-0.1795,-0.1795,-0.1795,-0.1795,-0.1795,-0.1808,-0.1827,-0.2177,-0.2412,-0.2551,-0.3066,-0.3588,-0.3867,-0.3907,-0.3942,-0.4189,-0.4439,-0.4439,-0.4564,-0.5179,-0.5304,-0.5311,-0.5315,-0.4818,-0.2224,-0.1853,-0.1729,-0.1976,-0.21,-0.1977,-0.1977,-0.1977,-0.1853,-0.1605,-0.1234,-0.1357,-0.1358,-0.1234,-0.1111,-0.1357,-0.1357,-0.1234,-0.1111,-0.0863,-0.1233,-0.1109,-0.0616,-0.037,-0.0616,-0.0985,-0.1232,-0.259,-0.2712,-0.3328,-0.3942,-0.4309,-0.4926,-0.5418,-0.554,-0.5665,-0.6396,-0.6521,-0.6768,-0.7261,-0.763,-0.7872,-0.8116,-0.8241,-0.8485,-0.8729,-0.8973,-0.9214,-0.9457,-0.9579,-1.0036,-1.0493,-1.1282,-1.1724,-1.189,-1.2258,-1.2615,-1.3018,-1.3505,-1.3718,-1.3875,-1.4146,-1.4403,-1.467,-1.48,-1.48,-1.4936,-1.4936,-1.4936,-1.4931,-1.5062,-1.5323,-0.5706,-0.6262,-0.6262,-0.6606,-0.7179,-0.7182,-0.7192,-0.7209,-0.7097,-0.4491,-0.0,-0.0,-0.0336,-0.0897,-0.1458,-0.1795,-0.1795,-0.1795,-0.1795,-0.1795,-0.1795,-0.1795,-0.1795,-0.1795,-0.1927,-0.2067,-0.2433,-0.269,-0.2828,-0.3346,-0.3755,-0.3909,-0.3939,-0.4071,-0.4316,-0.4316,-0.481,-0.506,-0.4685,-0.4937,-0.5444,-0.5818,-0.4573,-0.5442,-0.3089,-0.2223,-0.2962,-0.2223,-0.21,-0.21,-0.2099,-0.2222,-0.2345,-0.2469,-0.2346,-0.2222,-0.2222,-0.2222,-0.2222,-0.2222,-0.1974,-0.148,-0.148,-0.1479,-0.1479,-0.1108,-0.1232,-0.1848,-0.2218,-0.2589,-0.3331,-0.3946,-0.4436,-0.4802,-0.517,-0.5784,-0.6276,-0.6399,-0.6888,-0.75,-0.7136,-0.7258,-0.7875,-0.8241,-0.8363,-0.8485,-0.861,-0.8851,-0.9095,-0.9214,-0.946,-0.9741,-1.0002,-1.0479,-1.0974,-1.1568,-1.2264,-1.2418,-1.2532,-1.2896,-1.3349,-1.3827,-1.3993,-1.4137,-1.4403,-1.4665,-1.48,-1.48,-1.4936,-1.4936,-1.4931,-1.5062,-1.5062,-1.5192,-1.5583,-0.5483,-0.6151,-0.6151,-0.6495,-0.7067,-0.6616,-0.6058,-0.5844,-0.562,-0.3478,-0.0,-0.0,-0.0673,-0.157,-0.1795,-0.1795,-0.1795,-0.1795,-0.1795,-0.1795,-0.1795,-0.1795,-0.1796,-0.1918,-0.205,-0.232,-0.2821,-0.2977,-0.2998,-0.3511,-0.3786,-0.3931,-0.3947,-0.4316,-0.4807,-0.493,-0.5425,-0.4805,-0.4186,-0.4562,-0.5684,-0.4942,-0.4817,-0.8427,-0.4817,-0.3085,-0.3944,-0.2839,-0.2099,-0.2222,-0.259,-0.2958,-0.3081,-0.3451,-0.3574,-0.3082,-0.2836,-0.259,-0.259,-0.259,-0.2343,-0.1849,-0.1354,-0.1354,-0.1724,-0.2094,-0.234,-0.3206,-0.3822,-0.3944,-0.4313,-0.4682,-0.5172,-0.5538,-0.6029,-0.6641,-0.7253,-0.7622,-0.7989,-0.8113,-0.7625,-0.7875,-0.8616,-0.8488,-0.8607,-0.8845,-0.897,-0.9095,-0.9335,-0.946,-0.9595,-1.0026,-1.0461,-1.094,-1.1454,-1.1884,-1.2479,-1.2859,-1.2942,-1.3282,-1.3705,-1.4006,-1.4277,-1.4408,-1.467,-1.48,-1.4936,-1.4936,-1.4936,-1.4931,-1.5062,-1.5192,-1.5453,-1.5839,-1.6359,-0.4479,-0.5483,-0.5483,-0.6161,-0.6842,-0.515,-0.2909,-0.1231,-0.1345,-0.0673,-0.0,-0.0,-0.0673,-0.157,-0.1795,-0.1795,-0.1795,-0.1795,-0.1795,-0.1907,-0.1795,-0.1797,-0.1913,-0.2167,-0.2311,-0.2583,-0.3099,-0.3125,-0.3148,-0.367,-0.3936,-0.3948,-0.4438,-0.4926,-0.5419,-0.579,-0.5659,-0.4674,-0.4798,-0.5168,-0.5663,-0.6162,-0.6785,-0.6782,-0.5297,-0.3937,-0.4307,-0.3328,-0.2591,-0.2836,-0.3696,-0.4307,-0.4795,-0.5776,-0.6265,-0.5655,-0.4432,-0.296,-0.3206,-0.3328,-0.3451,-0.3202,-0.2956,-0.2959,-0.3571,-0.4185,-0.4553,-0.4556,-0.5293,-0.5661,-0.5659,-0.5784,-0.6151,-0.6764,-0.7497,-0.823,-0.8842,-0.9076,-0.9447,-0.9569,-0.9444,-0.922,-0.9358,-0.9105,-0.8973,-0.9089,-0.9329,-0.9576,-0.9717,-0.9852,-1.005,-1.0631,-1.0981,-1.1469,-1.1953,-1.2387,-1.2759,-1.3147,-1.3447,-1.3625,-1.4015,-1.4277,-1.4539,-1.467,-1.4805,-1.4936,-1.4936,-1.4936,-1.4936,-1.5062,-1.5323,-1.5583,-1.5844,-1.6359,-1.7001,-0.459,-0.5369,-0.5817,-0.6383,-0.7067,-0.6274,-0.3914,-0.1007,-0.0559,-0.056,-0.0561,-0.0561,-0.1009,-0.1683,-0.1795,-0.1907,-0.2019,-0.1907,-0.2019,-0.2132,-0.202,-0.203,-0.2276,-0.241,-0.2444,-0.2974,-0.3246,-0.3516,-0.354,-0.3684,-0.395,-0.4067,-0.4556,-0.5293,-0.5908,-0.6528,-0.653,-0.6532,-0.6903,-0.7401,-0.7526,-0.7401,-0.7641,-0.8497,-0.627,-0.5651,-0.5772,-0.5161,-0.4674,-0.504,-0.5776,-0.6139,-0.6385,-0.6999,-0.7365,-0.7368,-0.6632,-0.5898,-0.5651,-0.5159,-0.5284,-0.5651,-0.5649,-0.5768,-0.6385,-0.6754,-0.6999,-0.7118,-0.7365,-0.7487,-0.7609,-0.7856,-0.8221,-0.8711,-0.9319,-0.9687,-1.0297,-1.0657,-1.0895,-1.102,-1.1269,-1.105,-1.094,-1.0804,-1.0899,-1.1234,-1.1125,-1.0906,-1.0719,-1.0537,-1.0772,-1.1294,-1.153,-1.19,-1.2383,-1.2771,-1.2975,-1.346,-1.3849,-1.4146,-1.4272,-1.4534,-1.467,-1.48,-1.4805,-1.4936,-1.4936,-1.4931,-1.4931,-1.5323,-1.5714,-1.6099,-1.6488,-1.713,-1.7776,-0.526,-0.5706,-0.6151,-0.6604,-0.7173,-0.7624,-0.5933,-0.3019,-0.2347,-0.1677,-0.1232,-0.1121,-0.1346,-0.1795,-0.1907,-0.2019,-0.2132,-0.2131,-0.2356,-0.2356,-0.2361,-0.2378,-0.2632,-0.2656,-0.2819,-0.3377,-0.3517,-0.3662,-0.3809,-0.395,-0.3947,-0.3937,-0.4802,-0.5784,-0.6646,-0.7018,-0.7148,-0.7763,-0.8384,-0.9004,-0.9133,-0.8378,-0.8738,-0.8732,-0.7989,-0.7118,-0.785,-0.7116,-0.663,-0.6872,-0.7484,-0.7847,-0.8216,-0.8824,-0.9313,-0.9434,-0.931,-0.9188,-0.8329,-0.7715,-0.7593,-0.7839,-0.8085,-0.7596,-0.8332,-0.8945,-0.9067,-0.8824,-0.907,-0.9313,-0.9552,-0.9919,-1.0158,-1.0642,-1.1253,-1.1378,-1.1744,-1.2221,-1.2457,-1.2582,-1.296,-1.3245,-1.3125,-1.2857,-1.2942,-1.326,-1.303,-1.2479,-1.2231,-1.1864,-1.215,-1.2699,-1.2779,-1.3041,-1.2913,-1.3274,-1.3477,-1.3884,-1.4403,-1.4534,-1.4665,-1.4796,-1.48,-1.4936,-1.4936,-1.4936,-1.4936,-1.4931,-1.5057,-1.5583,-1.6104,-1.6618,-1.7136,-1.7776,-1.8296,-0.6151,-0.6262,-0.6262,-0.6707,-0.7271,-0.7619,-0.7736,-0.6834,-0.5483,-0.3578,-0.179,-0.168,-0.1683,-0.1907,-0.2132,-0.2244,-0.2244,-0.2468,-0.2693,-0.2693,-0.2698,-0.2726,-0.2879,-0.3041,-0.3322,-0.3623,-0.4025,-0.4056,-0.407,-0.4562,-0.4189,-0.406,-0.5287,-0.6521,-0.7505,-0.7997,-0.8122,-0.8613,-0.8983,-0.9345,-0.9592,-0.946,-0.9704,-0.9579,-0.8833,-0.8216,-0.8218,-0.7847,-0.7842,-0.8204,-0.93,-0.9913,-1.0517,-1.1129,-1.1615,-1.1856,-1.1976,-1.1976,-1.1483,-0.9533,-0.8199,-0.8447,-0.8939,-0.9303,-0.967,-0.9677,-0.9802,-1.0286,-1.0891,-1.1253,-1.1495,-1.1611,-1.2088,-1.2449,-1.3053,-1.3297,-1.354,-1.3904,-1.4262,-1.4267,-1.4535,-1.4939,-1.534,-1.5069,-1.4756,-1.508,-1.4766,-1.4212,-1.4382,-1.4161,-1.4215,-1.4496,-1.4421,-1.4295,-1.3687,-1.4015,-1.4917,-1.5303,-1.5564,-1.5308,-1.5057,-1.5062,-1.5318,-1.4936,-1.4936,-1.4936,-1.4931,-1.5192,-1.5448,-1.5974,-1.6488,-1.7136,-1.7776,-1.8425,-1.881,-0.6485,-0.6818,-0.7046,-0.7268,-0.7493,-0.7829,-0.7721,-0.716,-0.5924,-0.4026,-0.1904,-0.1794,-0.1795,-0.1907,-0.2132,-0.2356,-0.2468,-0.2581,-0.2917,-0.3041,-0.3059,-0.3102,-0.3267,-0.3672,-0.3853,-0.4752,-0.5039,-0.5291,-0.5651,-0.5902,-0.5026,-0.502,-0.6132,-0.7856,-0.8964,-0.9335,-0.9335,-0.9457,-0.9579,-0.9697,-1.0543,-1.0061,-1.0183,-1.0906,-1.0058,-0.9687,-0.9926,-1.0517,-1.0989,-1.1583,-1.2551,-1.2795,-1.2804,-1.3412,-1.3655,-1.3894,-1.4018,-1.4143,-1.3904,-1.1956,-1.1125,-1.1495,-1.1864,-1.1736,-1.1727,-1.2337,-1.2697,-1.2942,-1.3301,-1.378,-1.4028,-1.4147,-1.4267,-1.45,-1.4852,-1.5213,-1.5451,-1.5811,-1.5861,-1.5872,-1.6244,-1.6634,-1.7037,-1.731,-1.7022,-1.684,-1.6414,-1.6132,-1.6317,-1.6366,-1.6302,-1.6302,-1.6227,-1.6136,-1.5529,-1.5944,-1.6457,-1.6586,-1.6721,-1.6597,-1.6213,-1.6213,-1.6213,-1.5574,-1.5062,-1.5187,-1.5448,-1.5578,-1.5969,-1.6488,-1.7136,-1.7776,-1.8419,-1.9066,-1.9194,-0.6818,-0.7265,-0.7493,-0.7607,-0.7607,-0.8045,-0.782,-0.7257,-0.6813,-0.5363,-0.3358,-0.3135,-0.2689,-0.2578,-0.2803,-0.2803,-0.2917,-0.2917,-0.3253,-0.3494,-0.3757,-0.3937,-0.4236,-0.4775,-0.5561,-0.6372,-0.6637,-0.6874,-0.7113,-0.785,-0.697,-0.6469,-0.7456,-0.968,-1.0933,-1.0796,-1.0422,-1.066,-1.066,-1.0899,-1.1989,-1.174,-1.1499,-1.2462,-1.1981,-1.2093,-1.2569,-1.3159,-1.3989,-1.4584,-1.53,-1.5542,-1.5429,-1.5311,-1.5316,-1.5553,-1.5671,-1.5913,-1.5558,-1.4267,-1.3449,-1.3818,-1.4152,-1.4386,-1.4743,-1.5332,-1.5666,-1.5666,-1.6155,-1.6526,-1.6526,-1.6744,-1.6862,-1.7208,-1.7331,-1.7572,-1.7572,-1.7818,-1.7669,-1.7493,-1.7885,-1.8195,-1.8166,-1.8397,-1.8484,-1.8398,-1.8263,-1.8201,-1.8303,-1.8357,-1.8271,-1.8123,-1.8058,-1.7959,-1.7736,-1.7736,-1.7736,-1.7876,-1.8005,-1.8005,-1.7753,-1.7619,-1.7109,-1.6343,-1.5959,-1.5834,-1.6213,-1.685,-1.712,-1.726,-1.7905,-1.8676,-1.8682,-1.9194,-1.945,-0.7154,-0.7265,-0.7493,-0.7607,-0.7718,-0.8266,-0.8484,-0.8263,-0.8266,-0.7485,-0.6035,-0.5252,-0.4472,-0.3917,-0.392,-0.392,-0.3695,-0.3808,-0.392,-0.4271,-0.5026,-0.5442,-0.5992,-0.6565,-0.7158,-0.7834,-0.8099,-0.8218,-0.8581,-0.9067,-0.8545,-0.8769,-1.013,-1.1889,-1.3314,-1.2034,-1.1627,-1.2097,-1.2457,-1.2822,-1.3426,-1.3536,-1.3526,-1.3885,-1.388,-1.387,-1.4589,-1.5306,-1.602,-1.648,-1.6833,-1.7073,-1.6962,-1.6962,-1.7085,-1.7208,-1.7554,-1.7787,-1.7793,-1.5219,-1.4764,-1.5493,-1.593,-1.6144,-1.6844,-1.7547,-1.7892,-1.7658,-1.8131,-1.8487,-1.8835,-1.9067,-1.9203,-1.9435,-1.9441,-1.9611,-1.9502,-1.9549,-1.9298,-1.9568,-1.9628,-1.9602,-1.9414,-1.9439,-1.9738,-1.982,-1.9994,-2.0106,-2.0,-2.0071,-1.9834,-1.9871,-1.9668,-1.9789,-1.9528,-1.9018,-1.889,-1.903,-1.9285,-1.954,-1.9158,-1.864,-1.7999,-1.7109,-1.7109,-1.7361,-1.7871,-1.8506,-1.878,-1.9048,-1.906,-1.945,-1.945,-1.9699,-2.0449,-0.7823,-0.7493,-0.7715,-0.8045,-0.8156,-0.8377,-0.8598,-0.8598,-0.7934,-0.6594,-0.5029,-0.4474,-0.436,-0.4249,-0.4697,-0.5031,-0.5472,-0.5806,-0.5919,-0.5944,-0.6541,-0.6746,-0.7197,-0.7806,-0.8536,-0.93,-0.9677,-1.0286,-1.1253,-1.1133,-1.1242,-1.1711,-1.2808,-1.4062,-1.4077,-1.3324,-1.3195,-1.3564,-1.3674,-1.3789,-1.4759,-1.4495,-1.4594,-1.5311,-1.4806,-1.4919,-1.5891,-1.685,-1.7554,-1.8131,-1.8487,-1.8842,-1.8609,-1.8493,-1.8616,-1.8616,-1.8848,-1.9618,-1.9645,-1.8472,-1.6856,-1.7331,-1.756,-1.7775,-1.8008,-1.859,-1.8938,-1.9176,-1.9652,-1.989,-1.9903,-1.991,-2.0148,-2.035,-2.05,-2.0975,-2.1032,-2.1118,-2.1117,-2.1685,-2.2053,-2.1646,-2.1425,-2.1136,-2.1311,-2.1135,-2.1146,-2.0922,-2.0697,-2.0975,-2.0936,-2.1188,-2.1209,-2.1461,-2.1328,-2.0683,-2.0676,-2.1062,-2.1195,-2.1454,-2.081,-1.9916,-1.9407,-1.8774,-1.889,-1.8884,-1.9782,-2.0423,-2.0823,-2.0969,-2.1215,-2.1209,-2.1202,-2.1818,-2.2688,-0.8045,-0.7829,-0.8045,-0.8263,-0.8484,-0.8595,-0.8712,-0.8716,-0.8045,-0.6816,-0.5808,-0.581,-0.5695,-0.5693,-0.5804,-0.6028,-0.6914,-0.7368,-0.7304,-0.7332,-0.7976,-0.8206,-0.8446,-0.8948,-1.013,-1.0774,-1.1257,-1.1868,-1.2595,-1.296,-1.3066,-1.3665,-1.539,-1.5979,-1.572,-1.5105,-1.4639,-1.5007,-1.4997,-1.5224,-1.5828,-1.6048,-1.6144,-1.6486,-1.6469,-1.6334,-1.7184,-1.8144,-1.9094,-1.9781,-2.0249,-2.0608,-2.0141,-2.0026,-2.0026,-1.9917,-2.0385,-2.1018,-2.1247,-2.1132,-1.9991,-2.0106,-1.9639,-1.9292,-1.9639,-2.0336,-2.0565,-2.0923,-2.1052,-2.1303,-2.1425,-2.1432,-2.1698,-2.2017,-2.2398,-2.2774,-2.3207,-2.3309,-2.3208,-2.3795,-2.3841,-2.3587,-2.3215,-2.3002,-2.2849,-2.2577,-2.2284,-2.1943,-2.1594,-2.1607,-2.1859,-2.1985,-2.223,-2.2223,-2.2348,-2.2473,-2.2591,-2.2981,-2.2856,-2.2606,-2.2215,-2.1188,-2.081,-2.0563,-2.0297,-2.055,-2.1699,-2.2348,-2.2841,-2.3216,-2.3589,-2.3457,-2.3201,-2.369,-2.4301,-0.7826,-0.8045,-0.8374,-0.8484,-0.8595,-0.8823,-0.8937,-0.8937,-0.8826,-0.8716,-0.8605,-0.8595,-0.8257,-0.7805,-0.7692,-0.7578,-0.7692,-0.8263,-0.8227,-0.8222,-0.9056,-0.9418,-1.0162,-1.1044,-1.1487,-1.2113,-1.2599,-1.2719,-1.3204,-1.3407,-1.3765,-1.5229,-1.7191,-1.7762,-1.7361,-1.6985,-1.6549,-1.6819,-1.6903,-1.7226,-1.7787,-1.8383,-1.8351,-1.8687,-1.8796,-1.9245,-1.997,-2.0702,-2.1067,-2.1303,-2.1417,-2.1425,-2.1318,-2.1325,-2.1325,-2.1546,-2.1987,-2.232,-2.2862,-2.2741,-2.2652,-2.2297,-2.1601,-2.1373,-2.1502,-2.1851,-2.2078,-2.2312,-2.2554,-2.3151,-2.3521,-2.3828,-2.4248,-2.4486,-2.4775,-2.5231,-2.5716,-2.5761,-2.5545,-2.5586,-2.5473,-2.5214,-2.5032,-2.4735,-2.4286,-2.4262,-2.3986,-2.3623,-2.3032,-2.223,-2.2355,-2.2362,-2.2606,-2.2981,-2.3106,-2.3106,-2.3106,-2.3106,-2.3238,-2.2981,-2.2724,-2.2591,-2.2334,-2.1957,-2.158,-2.2083,-2.334,-2.434,-2.4964,-2.5333,-2.5448,-2.5439,-2.5048,-2.4917,-2.5407,-0.9258,-0.8923,-0.8592,-0.8598,-0.8823,-0.8826,-0.8937,-0.8937,-0.8937,-0.8602,-0.8042,-0.8257,-0.8478,-0.8361,-0.8244,-0.8799,-0.9357,-0.9831,-1.0036,-1.0175,-1.0452,-1.0736,-1.126,-1.2021,-1.2337,-1.2719,-1.308,-1.3679,-1.366,-1.3861,-1.5263,-1.6968,-1.8829,-1.9269,-1.9223,-1.9299,-1.9283,-1.9096,-1.89,-1.915,-1.9929,-2.063,-2.0601,-2.0573,-2.0793,-2.1353,-2.1805,-2.3239,-2.3617,-2.3536,-2.3631,-2.3631,-2.3743,-2.3966,-2.4078,-2.4172,-2.3958,-2.3751,-2.4599,-2.43,-2.3999,-2.4223,-2.3751,-2.3207,-2.2998,-2.2909,-2.3255,-2.34,-2.3658,-2.4053,-2.4444,-2.4788,-2.5403,-2.5846,-2.6002,-2.6299,-2.6784,-2.7184,-2.6972,-2.7248,-2.714,-2.6807,-2.6671,-2.6092,-2.5739,-2.5791,-2.5646,-2.5343,-2.4723,-2.3931,-2.3464,-2.3472,-2.323,-2.3479,-2.323,-2.323,-2.3106,-2.3106,-2.3362,-2.3487,-2.3355,-2.3347,-2.3604,-2.3596,-2.334,-2.3961,-2.5202,-2.5831,-2.5953,-2.6562,-2.6796,-2.6788,-2.6779,-2.665,-2.6762,-1.057,-1.0562,-1.0233,-0.9911,-0.9588,-0.9592,-0.9592,-0.9588,-0.9158,-0.8602,-0.8374,-0.8592,-0.892,-0.9247,-0.9357,-0.9798,-1.0468,-1.0594,-1.0933,-1.1746,-1.1968,-1.2655,-1.309,-1.3584,-1.4232,-1.4376,-1.4614,-1.5327,-1.5069,-1.5381,-1.6534,-1.8364,-2.0333,-2.0665,-2.0608,-2.0909,-2.1524,-2.1332,-2.1167,-2.1112,-2.1632,-2.2247,-2.203,-2.2096,-2.2305,-2.2489,-2.3205,-2.5086,-2.5299,-2.4974,-2.4956,-2.4939,-2.4939,-2.527,-2.5388,-2.5371,-2.516,-2.5168,-2.57,-2.5498,-2.5406,-2.5533,-2.5661,-2.552,-2.4761,-2.434,-2.4278,-2.4215,-2.4369,-2.4687,-2.5028,-2.5486,-2.6195,-2.6795,-2.6909,-2.714,-2.7561,-2.8111,-2.8519,-2.8811,-2.8719,-2.8426,-2.7931,-2.7458,-2.7277,-2.7709,-2.7718,-2.7227,-2.6582,-2.5887,-2.5301,-2.5186,-2.4456,-2.4092,-2.3845,-2.372,-2.372,-2.372,-2.3611,-2.386,-2.3852,-2.4224,-2.4463,-2.4964,-2.5218,-2.5831,-2.6432,-2.6441,-2.6684,-2.7289,-2.7779,-2.7771,-2.7771,-2.8011,-2.8241,-1.176,-1.2413,-1.2417,-1.1651,-1.0891,-1.0781,-1.0891,-1.0781,-0.9915,-0.9375,-0.9596,-0.9706,-1.0029,-1.0351,-1.0453,-1.0777,-1.1463,-1.1717,-1.2353,-1.3264,-1.3432,-1.4099,-1.5173,-1.6262,-1.5908,-1.6733,-1.7085,-1.6844,-1.7418,-1.7609,-1.8178,-1.9645,-2.1643,-2.2337,-2.1979,-2.2515,-2.3103,-2.3552,-2.3167,-2.2807,-2.2712,-2.2807,-2.2927,-2.3215,-2.3142,-2.3205,-2.4463,-2.5247,-2.552,-2.5551,-2.5617,-2.5818,-2.6136,-2.6245,-2.6354,-2.6354,-2.6463,-2.6788,-2.7013,-2.7023,-2.698,-2.7098,-2.7098,-2.7241,-2.6691,-2.5825,-2.5517,-2.5951,-2.6273,-2.6563,-2.7032,-2.7185,-2.7631,-2.7893,-2.8084,-2.8192,-2.8337,-2.8701,-2.8883,-2.925,-2.9231,-2.9094,-2.9296,-2.8728,-2.8828,-2.9554,-2.9573,-2.8911,-2.8564,-2.7727,-2.7125,-2.6771,-2.592,-2.5309,-2.5309,-2.5056,-2.4571,-2.4456,-2.4579,-2.4941,-2.5774,-2.5668,-2.5448,-2.6164,-2.6883,-2.69,-2.7151,-2.728,-2.7409,-2.79,-2.8268,-2.8388,-2.8627,-2.8865,-2.8865,-1.2852,-1.3073,-1.2635,-1.2195,-1.1978,-1.1982,-1.2082,-1.2285,-1.2073,-1.1546,-1.1017,-1.0582,-1.0907,-1.1764,-1.1185,-1.162,-1.297,-1.3586,-1.4145,-1.4616,-1.4879,-1.5561,-1.62,-1.7085,-1.7202,-1.7085,-1.7547,-1.8351,-1.8899,-1.9347,-2.005,-2.1494,-2.2761,-2.2828,-2.3231,-2.3776,-2.4334,-2.5017,-2.5186,-2.4879,-2.4824,-2.5431,-2.5945,-2.59,-2.5828,-2.62,-2.7079,-2.753,-2.7764,-2.7843,-2.8038,-2.8349,-2.8658,-2.8552,-2.8774,-2.888,-2.8329,-2.8532,-2.8658,-2.8698,-2.8593,-2.8917,-2.9046,-2.8846,-2.8353,-2.7502,-2.7318,-2.7828,-2.8286,-2.8616,-2.8928,-2.906,-2.9068,-2.9226,-2.9334,-2.9328,-2.9194,-2.9331,-2.9468,-2.9515,-2.9624,-2.9898,-3.0121,-3.0329,-3.044,-3.0499,-3.0616,-3.0392,-3.0265,-2.9667,-2.8573,-2.7975,-2.7134,-2.6641,-2.6641,-2.6512,-2.6017,-2.6374,-2.6737,-2.7091,-2.7563,-2.7572,-2.758,-2.817,-2.8646,-2.8554,-2.8334,-2.8113,-2.825,-2.8847,-2.9085,-2.9322,-2.9203,-2.9331,-2.9213,-1.4159,-1.4374,-1.3506,-1.3181,-1.3181,-1.3285,-1.3491,-1.3588,-1.3809,-1.3712,-1.3181,-1.2417,-1.2304,-1.3166,-1.2474,-1.2582,-1.4418,-1.5932,-1.6022,-1.6239,-1.6594,-1.7395,-1.7805,-1.837,-1.8848,-1.8971,-1.9428,-2.0106,-2.0516,-2.0866,-2.1707,-2.2659,-2.3014,-2.3456,-2.4016,-2.4573,-2.5247,-2.586,-2.6582,-2.6915,-2.692,-2.721,-2.7168,-2.7239,-2.7688,-2.8174,-2.8534,-2.8854,-2.895,-2.9152,-2.9237,-2.9554,-2.9649,-2.9743,-2.9973,-3.0078,-2.9963,-2.9963,-3.0214,-3.0223,-3.0062,-3.0457,-3.111,-3.1024,-3.1454,-3.073,-3.0168,-3.0539,-2.9888,-3.0084,-3.0947,-3.1241,-3.1033,-3.1087,-3.1377,-3.1542,-3.1245,-3.1033,-3.1025,-3.0953,-3.0818,-3.0186,-3.0497,-3.0625,-3.0752,-3.0752,-3.0879,-3.0995,-3.1112,-3.1238,-3.0147,-2.9412,-2.8673,-2.8316,-2.8435,-2.8068,-2.758,-2.8059,-2.8774,-2.8765,-2.8874,-2.9347,-2.97,-2.9944,-3.0179,-3.0081,-2.9747,-2.9521,-2.9757,-3.047,-3.047,-3.0363,-3.0246,-3.0128,-3.0353,-1.5357,-1.5672,-1.4809,-1.4379,-1.4487,-1.4691,-1.4793,-1.49,-1.5339,-1.566,-1.5547,-1.4674,-1.4454,-1.4239,-1.4116,-1.4363,-1.5161,-1.7058,-1.761,-1.8138,-1.8266,-1.9521,-2.048,-2.0931,-2.0945,-2.096,-2.131,-2.1752,-2.2176,-2.2628,-2.3079,-2.336,-2.3576,-2.3784,-2.4342,-2.5101,-2.6082,-2.6726,-2.7552,-2.8357,-2.8347,-2.8028,-2.7689,-2.7825,-2.8213,-2.8708,-2.9056,-2.9394,-2.9679,-2.9889,-3.0183,-3.0297,-3.0297,-3.0391,-3.0516,-3.063,-3.0872,-3.0872,-3.1019,-3.0927,-3.136,-3.1977,-3.2802,-3.3388,-3.3715,-3.3605,-3.3023,-3.268,-3.2012,-3.2014,-3.2786,-3.3283,-3.3056,-3.2819,-3.3272,-3.3283,-3.283,-3.2281,-3.2165,-3.2077,-3.1466,-3.0655,-3.0772,-3.0898,-3.0995,-3.0995,-3.1112,-3.1218,-3.145,-3.1566,-3.1199,-3.082,-3.0568,-3.0334,-3.0227,-2.9855,-2.9484,-2.9963,-3.0548,-3.0305,-3.0412,-3.1235,-3.1582,-3.1476,-3.1602,-3.1486,-3.1486,-3.1371,-3.1737,-3.1852,-3.1842,-3.1717,-3.1717,-3.1832,-3.2052,-1.5785,-1.5885,-1.5678,-1.5565,-1.5678,-1.5885,-1.6105,-1.6305,-1.6636,-1.6955,-1.7047,-1.7153,-1.6717,-1.5524,-1.4478,-1.4883,-1.6946,-1.8426,-1.9583,-2.0366,-2.0281,-2.1812,-2.271,-2.2176,-2.2207,-2.2441,-2.2554,-2.2667,-2.3015,-2.4044,-2.5325,-2.6415,-2.6318,-2.6381,-2.649,-2.7121,-2.7834,-2.8357,-2.9086,-3.0005,-3.02,-2.9601,-2.8391,-2.8535,-2.9052,-2.9611,-3.0037,-3.0514,-3.0764,-3.0991,-3.1289,-3.1208,-3.1105,-3.1023,-3.1056,-3.1402,-3.1646,-3.183,-3.1833,-3.2135,-3.264,-3.3353,-3.4051,-3.45,-3.4877,-3.5361,-3.5011,-3.5109,-3.4659,-3.4549,-3.5113,-3.5234,-3.5223,-3.4526,-3.4515,-3.3845,-3.318,-3.2623,-3.2319,-3.1872,-3.1357,-3.1122,-3.1161,-3.1248,-3.1179,-3.1305,-3.1546,-3.1652,-3.1787,-3.1903,-3.2018,-3.1998,-3.1977,-3.2113,-3.1893,-3.1872,-3.1622,-3.2102,-3.2332,-3.2197,-3.253,-3.347,-3.3706,-3.3222,-3.2985,-3.2768,-3.2882,-3.3098,-3.2861,-3.2975,-3.3067,-3.3056,-3.318,-3.3304,-3.3642]},{"header":{"parameterUnit":"m.s-1","parameterCategory":1,"la1":31.0,"la2":29.5877,"lo1":-88.7671,"lo2":-86.6584,"dx":0.0162,"dy":0.0185,"nx":115,"ny":88,"refTime":"2023-01-25T18:00:00:Z","depth":0,"parameterNumber":3,"parameterNumberName":"V-component_of_WINDS"},"data":[0.0,0.0,0.0,0.0,0.0,0.0,0.0,0.0,0.0,0.0,0.0,0.0,0.0,0.0,0.0,0.0,0.0,0.0,0.0,0.0,0.0,0.0,0.0,0.0,0.0,0.0,0.0,0.0,0.0,0.0,0.0,0.0,0.0,0.0,0.0,0.0,0.0,0.0,0.0,0.0,0.0,0.0,0.0,0.0,0.0,0.0,0.0,0.0,0.0,0.0,0.0,0.0,0.0,0.0,0.0,0.0,0.0,0.0,0.0,0.0,0.0,0.0,0.0,0.0,0.0,0.0,0.0,0.0,0.0,0.0,0.0,0.0,0.0,0.0,0.0,0.0,0.0,0.0,0.0,0.0,0.0,0.0,0.0,0.0,0.0,0.0,0.0,0.0,0.0,0.0,0.0,0.0,0.0,0.0,0.0,0.0,0.0,0.0,0.0,0.0,0.0,0.0,0.0,0.0,0.0,0.0,0.0,0.0,0.0,0.0,0.0,0.0,0.0,0.0,0.0,0.0,0.0,0.0,0.0,0.0,0.0,0.0,0.0,0.0,0.0,0.0,0.0,0.0,0.0,0.0,0.0,0.0,0.0,0.0,0.0,0.0,0.0,0.0,0.0,0.0,0.0,0.0,0.0,0.0,0.0,0.0,0.0,0.0,0.0,0.0,0.0,0.0,0.0,0.0,0.0,0.0,0.0,0.0,0.0,0.0,0.0,0.0,0.0,0.0,0.0,0.0,0.0,0.0,0.0,0.0,0.0,0.0,0.0,0.0,0.0,0.0,0.0,0.0,0.0,0.0,0.0,0.0,0.0,0.0,0.0,0.0,0.0,0.0,0.0,0.0,0.0,0.0,0.0,0.0,0.0,0.0,0.0,0.0,0.0,0.0,0.0,0.0,0.0,0.0,0.0,0.0,0.0,0.0,0.0,0.0,0.0,0.0,0.0,0.0,0.0,0.0,0.0,0.0,0.0,0.0,0.0,0.0,0.0,0.0,0.0,0.0,0.0,0.0,0.0,0.0,0.0,0.0,0.0,0.0,0.0,0.0,0.0,0.0,0.0,0.0,0.0,0.0,0.0,0.0,0.0,0.0,0.0,0.0,0.0,0.0,0.0,0.0,0.0,0.0,0.0,0.0,0.0,0.0,0.0,0.0,0.0,0.0,0.0,0.0,0.0,0.0,0.0,0.0,0.0,0.0,0.0,0.0,0.0,0.0,0.0,0.0,0.0,0.0,0.0,0.0,0.0,0.0,0.0,0.0,0.0,0.0,0.0,0.0,0.0,0.0,0.0,0.0,0.0,0.0,0.0,0.0,0.0,0.0,0.0,0.0,0.0,0.0,0.0,0.0,0.0,0.0,0.0,0.0,0.0,0.0,0.0,0.0,0.0,0.0,0.0,0.0,0.0,0.0,0.0,0.0,0.0,0.0,0.0,0.0,0.0,0.0,0.0,0.0,0.0,0.0,0.0,0.0,0.0,0.0,0.0,0.0,0.0,0.0,0.0,0.0,0.0,0.0,0.0,0.0,0.0,0.0,0.0,0.0,0.0,0.0,0.0,0.0,0.0,0.0,0.0,0.0,0.0,0.0,0.0,0.0,0.0,0.0,0.0,0.0,0.0,0.0,0.0,0.0,0.0,0.0,0.0,0.0,0.0,0.0,0.0,0.0,0.0,0.0,0.0,0.0,0.0,0.0,0.0,0.0,0.0,0.0,0.0,0.0,0.0,0.0,0.0,0.0,0.0,0.0,0.0,0.0,0.0,0.0,0.0,0.0,0.0,0.0,0.0,0.0,0.0,0.0,0.0,0.0,0.0,0.0,0.0,0.0,0.0,0.0,0.0,0.0,0.0,0.0,0.0,0.0,0.0,0.0,0.0,0.0,0.0,0.0,0.0,0.0,0.0,0.0,0.0,0.0,0.0,0.0,0.0,0.0,0.0,0.0,0.0,0.0,0.0,0.0,0.0,0.0,0.0,0.0,0.0,0.0,0.0,0.0,0.0,0.0,0.0,0.0,0.0,0.0,0.0,0.0,0.0,0.0,0.0,0.0,0.0,0.0,0.0,0.0,0.0,0.0,0.0,0.0,0.0,0.0,0.0,0.0,0.0,0.0,0.0,0.0,0.0,0.0,0.0,0.0,0.0,0.0,0.0,0.0,0.0,0.0,0.0,0.0,0.0,0.0,0.0,0.0,0.0,0.0,0.0,0.0,0.0,0.0,0.0,0.0,0.0,0.0,0.0,0.0,0.0,0.0,0.0,0.0,0.0,0.0,0.0,0.0,0.0,0.0,0.0,0.0,0.0,0.0,0.0,0.0,0.0,0.0,0.0,0.0,0.0,0.0,0.0,0.0,0.0,0.0,0.0,0.0,0.0,0.0,0.0,0.0,0.0,0.0,0.0,0.0,0.0,0.0,0.0,0.0,0.0,0.0,0.0,0.0,0.0,0.0,0.0,0.0,0.0,0.0,0.0,0.0,0.0,0.0,0.0,0.0,0.0,0.0,0.0,0.0,0.0,0.0,0.0,0.0,0.0,0.0,0.0,0.0,0.0,0.0,0.0,0.0,0.0,0.0,0.0,0.0,0.0,0.0,0.0,0.0,0.0,0.0,0.0,0.0,0.0,0.0,0.0,0.0,0.0,0.0,0.0,0.0,0.0,0.0,0.0,0.0,0.0,0.0,0.0,0.0,0.0,0.0,0.0,0.0,0.0,0.0,0.0,0.0,0.0,0.0,0.0,0.0,0.0,0.0,0.0,0.0,0.0,0.0,0.0,0.0,0.0,0.0,0.0,0.0,0.0,0.0,0.0,0.0,0.0,0.0,0.0,0.0,0.0,0.0,0.0,0.0,0.0,0.0,0.0,0.0,0.0,0.0,0.0,0.0,0.0,0.0,0.0,0.0,0.0,0.0,0.0,0.0,0.0,0.0,0.0,0.0,0.0,0.0,0.0,0.0,0.0,0.0,0.0,0.0,0.0,0.0,0.0,0.0,0.0,0.0,0.0,0.0,0.0,0.0,0.0,0.0,0.0,0.0,0.0,0.0,0.0,0.0,0.0,0.0,0.0,0.0,0.0,0.0,0.0,0.0,0.0,0.0,0.0,0.0,0.0,0.0,0.0,0.0,0.0,0.0,0.0,0.0,0.0,0.0,0.0,0.0,0.0,0.0,0.0,0.0,0.0,0.0,0.0,0.0,0.0,0.0,0.0,0.0,0.0,0.0,0.0,0.0,0.0,0.0,0.0,0.0,0.0,0.0,0.0,0.0,0.0,0.0,0.0,0.0,0.0,0.0,0.0,0.0,0.0,0.0,0.0,0.0,0.0,0.0,0.0,0.0,0.0,0.0,0.0,0.0,0.0,0.0,0.0,0.0,0.0,0.0,0.0,0.0,0.0,0.0,0.0,0.0,0.0,0.0,0.0,0.0,0.0,0.0,0.0,0.0,0.0,0.0,0.0,0.0,0.0,0.0,0.0,0.0,0.0,0.0,0.0,0.0,0.0,0.0,0.0,0.0,0.0,0.0,0.0,0.0,0.0,0.0,0.0,0.0,0.0,0.0,0.0,0.0,0.0,0.0,0.0,0.0,0.0,0.0,0.0,0.0,0.0,0.0,0.0,0.0,0.0,0.0,0.0,0.0,0.0,0.0,0.0,0.0,0.0,0.0,0.0,0.0,0.0,0.0,0.0,0.0,0.0,0.0,0.0,0.0,0.0,0.0,0.0,0.0,0.0,0.0,0.0,0.0,0.0,0.0,0.0,0.0,0.0,0.0,0.0,0.0,0.0,0.0,0.0,0.0,0.0,0.0,0.0,0.0,0.0,0.0,0.0,0.0,0.0,0.0,0.0,0.0,0.0,0.0,0.0,0.0,0.0,0.0,0.0,0.0,0.0,0.0,0.0,0.0,0.0,0.0,0.0,0.0,0.0,0.0,0.0,0.0,0.0,0.0,0.0,0.0,0.0,0.0,0.0,0.0,0.0,0.0,0.0,0.0,0.0,0.0,0.0,0.0,0.0,0.0,0.0,0.0,0.0,0.0,0.0,0.0,0.0,0.0,0.0,0.0,0.0,0.0,0.0,0.0,0.0,0.0,0.0,0.0,0.0,0.0,0.0,0.0,0.0,0.0,0.0,0.0,0.0,0.0,0.0,0.0,0.0,0.0,0.0,0.0,0.0,0.0,0.0,0.0,0.0,0.0,0.0,0.0,0.0,0.0,0.0,0.0,0.0,0.0,0.0,0.0,0.0,0.0,0.0,0.0,0.0,0.0,0.0,0.0,0.0,0.0,-1.9623,0.0,0.0,0.0,0.0,0.0,0.0,0.0,0.0,0.0,0.0,0.0,0.0,0.0,0.0,0.0,0.0,0.0,0.0,0.0,0.0,0.0,0.0,0.0,0.0,0.0,0.0,0.0,0.0,0.0,0.0,0.0,0.0,0.0,0.0,0.0,0.0,0.0,0.0,0.0,0.0,0.0,0.0,0.0,0.0,0.0,0.0,0.0,0.0,0.0,0.0,0.0,0.0,0.0,0.0,0.0,0.0,0.0,0.0,0.0,0.0,0.0,0.0,0.0,0.0,0.0,0.0,0.0,0.0,0.0,0.0,0.0,0.0,0.0,0.0,0.0,0.0,0.0,0.0,0.0,0.0,0.0,0.0,0.0,0.0,0.0,0.0,0.0,0.0,0.0,0.0,0.0,0.0,0.0,0.0,0.0,0.0,0.0,0.0,0.0,0.0,0.0,0.0,0.0,0.0,0.0,0.0,0.0,0.0,0.0,0.0,-1.8015,-1.7456,-1.7523,-1.8318,-1.9748,0.0,0.0,0.0,0.0,0.0,0.0,0.0,0.0,0.0,0.0,0.0,0.0,0.0,0.0,0.0,0.0,0.0,0.0,0.0,0.0,0.0,0.0,0.0,0.0,0.0,0.0,0.0,0.0,0.0,0.0,0.0,0.0,0.0,0.0,0.0,0.0,0.0,0.0,0.0,0.0,0.0,0.0,0.0,0.0,0.0,0.0,0.0,0.0,0.0,0.0,0.0,0.0,0.0,0.0,0.0,0.0,0.0,0.0,0.0,0.0,0.0,0.0,0.0,0.0,0.0,0.0,0.0,0.0,0.0,0.0,0.0,0.0,0.0,0.0,0.0,0.0,0.0,0.0,0.0,0.0,0.0,0.0,0.0,0.0,0.0,0.0,0.0,0.0,0.0,0.0,0.0,0.0,0.0,0.0,0.0,0.0,0.0,0.0,0.0,0.0,0.0,0.0,0.0,0.0,0.0,0.0,0.0,0.0,0.0,0.0,0.0,0.0,-1.7861,-1.8669,-1.9453,0.0,0.0,0.0,0.0,0.0,0.0,0.0,0.0,0.0,0.0,0.0,0.0,0.0,0.0,0.0,0.0,0.0,0.0,0.0,0.0,0.0,0.0,0.0,0.0,0.0,0.0,0.0,0.0,0.0,0.0,0.0,0.0,0.0,0.0,0.0,0.0,0.0,0.0,0.0,0.0,0.0,0.0,0.0,0.0,0.0,0.0,0.0,0.0,0.0,0.0,0.0,0.0,0.0,0.0,0.0,0.0,0.0,0.0,0.0,0.0,0.0,0.0,0.0,0.0,0.0,0.0,0.0,0.0,0.0,0.0,0.0,0.0,0.0,0.0,0.0,0.0,0.0,0.0,0.0,0.0,0.0,0.0,0.0,0.0,0.0,0.0,0.0,0.0,0.0,0.0,0.0,0.0,0.0,0.0,0.0,0.0,0.0,0.0,0.0,0.0,0.0,0.0,0.0,0.0,0.0,0.0,0.0,0.0,0.0,0.0,-2.037,-2.0283,-2.0344,0.0,-2.0599,0.0,0.0,0.0,0.0,0.0,0.0,0.0,0.0,0.0,0.0,0.0,0.0,0.0,0.0,0.0,0.0,0.0,0.0,0.0,0.0,0.0,0.0,0.0,0.0,0.0,0.0,0.0,0.0,0.0,0.0,0.0,0.0,0.0,0.0,0.0,0.0,0.0,0.0,0.0,0.0,0.0,0.0,0.0,0.0,0.0,0.0,0.0,0.0,0.0,0.0,0.0,0.0,0.0,0.0,0.0,0.0,0.0,0.0,0.0,0.0,0.0,0.0,0.0,0.0,0.0,0.0,0.0,0.0,0.0,0.0,0.0,0.0,0.0,0.0,0.0,0.0,0.0,0.0,0.0,0.0,0.0,0.0,0.0,0.0,0.0,0.0,0.0,0.0,0.0,0.0,0.0,0.0,0.0,0.0,0.0,0.0,0.0,0.0,0.0,0.0,0.0,0.0,0.0,0.0,0.0,0.0,0.0,0.0,0.0,0.0,-2.0695,-1.9773,-2.066,-2.1095,0.0,0.0,0.0,0.0,0.0,0.0,0.0,0.0,0.0,0.0,0.0,0.0,0.0,0.0,0.0,0.0,0.0,0.0,0.0,0.0,0.0,0.0,0.0,0.0,0.0,0.0,0.0,0.0,0.0,0.0,0.0,0.0,0.0,0.0,0.0,0.0,0.0,0.0,0.0,0.0,0.0,0.0,0.0,0.0,0.0,0.0,0.0,0.0,0.0,0.0,0.0,0.0,0.0,0.0,0.0,0.0,0.0,0.0,0.0,0.0,0.0,0.0,0.0,0.0,0.0,0.0,0.0,0.0,0.0,0.0,0.0,0.0,0.0,0.0,0.0,0.0,0.0,0.0,0.0,0.0,0.0,0.0,0.0,0.0,0.0,0.0,0.0,0.0,0.0,0.0,0.0,0.0,0.0,0.0,0.0,0.0,0.0,0.0,0.0,0.0,0.0,0.0,0.0,0.0,0.0,0.0,0.0,0.0,0.0,0.0,-2.0563,-2.0666,-1.9658,-2.0871,-2.1547,-2.141,0.0,0.0,0.0,0.0,0.0,0.0,0.0,0.0,0.0,0.0,0.0,0.0,0.0,0.0,0.0,0.0,0.0,0.0,0.0,0.0,0.0,0.0,0.0,0.0,0.0,0.0,0.0,0.0,0.0,0.0,0.0,0.0,0.0,0.0,0.0,0.0,0.0,0.0,0.0,0.0,0.0,0.0,0.0,0.0,0.0,0.0,0.0,0.0,0.0,0.0,0.0,0.0,0.0,0.0,0.0,0.0,0.0,0.0,0.0,0.0,0.0,0.0,0.0,0.0,0.0,0.0,0.0,0.0,0.0,0.0,0.0,0.0,0.0,0.0,0.0,0.0,0.0,0.0,0.0,0.0,0.0,0.0,0.0,0.0,0.0,0.0,0.0,0.0,0.0,0.0,0.0,0.0,0.0,0.0,0.0,0.0,0.0,0.0,0.0,0.0,0.0,0.0,0.0,0.0,0.0,0.0,0.0,0.0,-2.0573,-2.0699,-2.0712,-2.0612,-2.1545,-2.1883,0.0,0.0,0.0,0.0,0.0,0.0,0.0,0.0,0.0,0.0,0.0,0.0,0.0,0.0,0.0,0.0,0.0,0.0,0.0,0.0,0.0,0.0,0.0,0.0,0.0,0.0,0.0,0.0,0.0,0.0,0.0,0.0,0.0,0.0,0.0,0.0,0.0,0.0,0.0,0.0,0.0,0.0,0.0,0.0,0.0,0.0,0.0,0.0,0.0,0.0,0.0,0.0,0.0,0.0,0.0,0.0,0.0,0.0,0.0,0.0,0.0,0.0,0.0,0.0,0.0,0.0,0.0,0.0,0.0,0.0,0.0,0.0,0.0,0.0,0.0,0.0,0.0,0.0,0.0,0.0,0.0,0.0,0.0,0.0,0.0,0.0,0.0,0.0,0.0,0.0,0.0,0.0,0.0,0.0,0.0,0.0,0.0,0.0,0.0,0.0,0.0,0.0,0.0,0.0,0.0,0.0,0.0,0.0,0.0,-2.0825,-2.0775,-2.0386,-1.9772,-2.0951,-2.1403,0.0,0.0,0.0,0.0,0.0,0.0,0.0,0.0,0.0,0.0,0.0,0.0,0.0,0.0,0.0,0.0,0.0,0.0,0.0,0.0,0.0,0.0,0.0,0.0,0.0,0.0,0.0,0.0,0.0,0.0,0.0,0.0,0.0,0.0,0.0,0.0,0.0,0.0,0.0,0.0,0.0,0.0,0.0,0.0,0.0,0.0,0.0,0.0,0.0,0.0,0.0,0.0,0.0,0.0,0.0,0.0,0.0,0.0,0.0,0.0,0.0,0.0,0.0,0.0,0.0,0.0,0.0,0.0,0.0,0.0,0.0,0.0,0.0,0.0,0.0,0.0,0.0,0.0,0.0,0.0,0.0,0.0,0.0,0.0,0.0,0.0,0.0,0.0,0.0,0.0,0.0,0.0,0.0,0.0,0.0,0.0,0.0,0.0,0.0,0.0,0.0,0.0,0.0,0.0,0.0,0.0,0.0,0.0,0.0,-2.0354,0.0,-1.9629,-1.9177,-2.0399,-2.1139,0.0,0.0,0.0,0.0,0.0,0.0,0.0,0.0,0.0,0.0,0.0,0.0,0.0,0.0,0.0,0.0,0.0,0.0,0.0,0.0,0.0,0.0,0.0,0.0,0.0,0.0,0.0,0.0,0.0,0.0,0.0,0.0,0.0,0.0,0.0,0.0,0.0,0.0,0.0,0.0,0.0,0.0,0.0,0.0,0.0,0.0,0.0,0.0,0.0,0.0,0.0,0.0,0.0,0.0,0.0,0.0,0.0,0.0,0.0,0.0,0.0,0.0,0.0,0.0,0.0,0.0,0.0,0.0,0.0,0.0,0.0,0.0,0.0,0.0,0.0,0.0,0.0,0.0,0.0,0.0,0.0,0.0,0.0,0.0,0.0,0.0,0.0,0.0,0.0,0.0,0.0,0.0,0.0,0.0,0.0,0.0,0.0,0.0,0.0,0.0,0.0,0.0,0.0,0.0,0.0,0.0,0.0,0.0,-2.0304,-1.9183,-1.863,-1.8613,-1.9083,-2.0026,-2.103,0.0,0.0,0.0,0.0,0.0,0.0,0.0,0.0,0.0,0.0,0.0,0.0,0.0,0.0,0.0,0.0,0.0,0.0,0.0,0.0,0.0,0.0,0.0,0.0,0.0,0.0,0.0,0.0,0.0,0.0,0.0,0.0,0.0,0.0,0.0,0.0,0.0,0.0,0.0,0.0,0.0,0.0,0.0,0.0,0.0,0.0,0.0,0.0,0.0,0.0,0.0,0.0,0.0,0.0,0.0,0.0,0.0,0.0,0.0,0.0,0.0,0.0,0.0,0.0,0.0,0.0,0.0,0.0,0.0,0.0,0.0,0.0,0.0,0.0,0.0,0.0,0.0,0.0,0.0,0.0,0.0,0.0,0.0,0.0,0.0,0.0,0.0,0.0,0.0,0.0,0.0,0.0,0.0,0.0,0.0,0.0,0.0,0.0,0.0,0.0,0.0,0.0,0.0,0.0,0.0,0.0,0.0,0.0,0.0,-1.971,-1.8798,-1.8015,-1.7523,-1.9146,-1.985,0.0,0.0,0.0,0.0,0.0,0.0,0.0,0.0,0.0,0.0,0.0,0.0,0.0,0.0,0.0,0.0,0.0,0.0,0.0,0.0,0.0,0.0,0.0,0.0,0.0,0.0,0.0,0.0,0.0,0.0,0.0,0.0,0.0,0.0,0.0,0.0,0.0,0.0,0.0,0.0,0.0,0.0,0.0,0.0,0.0,0.0,0.0,0.0,0.0,0.0,0.0,0.0,0.0,0.0,0.0,0.0,0.0,0.0,0.0,0.0,0.0,0.0,0.0,0.0,0.0,0.0,0.0,0.0,0.0,0.0,0.0,0.0,0.0,0.0,0.0,0.0,0.0,0.0,0.0,0.0,0.0,0.0,0.0,0.0,0.0,0.0,0.0,0.0,0.0,0.0,0.0,0.0,0.0,0.0,0.0,0.0,0.0,0.0,0.0,0.0,0.0,0.0,0.0,0.0,0.0,0.0,0.0,0.0,0.0,-1.9743,-1.8753,-1.7956,-1.7516,-1.9161,-1.9922,-1.9674,0.0,0.0,0.0,0.0,0.0,0.0,0.0,0.0,0.0,0.0,0.0,0.0,0.0,0.0,0.0,0.0,0.0,0.0,0.0,0.0,0.0,0.0,0.0,0.0,0.0,0.0,0.0,0.0,0.0,0.0,0.0,0.0,0.0,0.0,0.0,0.0,0.0,0.0,0.0,0.0,0.0,0.0,0.0,0.0,0.0,0.0,0.0,0.0,0.0,0.0,0.0,0.0,0.0,0.0,0.0,0.0,0.0,0.0,0.0,0.0,0.0,0.0,0.0,0.0,0.0,0.0,0.0,0.0,0.0,0.0,0.0,0.0,0.0,0.0,0.0,0.0,0.0,0.0,0.0,0.0,0.0,0.0,0.0,0.0,0.0,0.0,0.0,0.0,0.0,0.0,0.0,0.0,0.0,0.0,0.0,0.0,0.0,0.0,0.0,0.0,0.0,0.0,0.0,0.0,0.0,0.0,0.0,0.0,-1.9592,-1.8655,-1.8468,-1.8897,-1.9863,-2.0882,0.0,0.0,0.0,0.0,0.0,0.0,0.0,0.0,0.0,0.0,0.0,0.0,0.0,0.0,0.0,0.0,0.0,0.0,0.0,0.0,0.0,0.0,0.0,0.0,0.0,0.0,0.0,0.0,0.0,0.0,0.0,0.0,0.0,0.0,0.0,0.0,0.0,0.0,0.0,0.0,0.0,0.0,0.0,0.0,0.0,0.0,0.0,0.0,0.0,0.0,0.0,0.0,0.0,0.0,0.0,0.0,0.0,0.0,0.0,0.0,0.0,0.0,0.0,0.0,0.0,0.0,0.0,0.0,0.0,0.0,0.0,0.0,0.0,0.0,0.0,0.0,0.0,0.0,0.0,0.0,0.0,0.0,0.0,0.0,0.0,0.0,0.0,0.0,0.0,0.0,0.0,0.0,0.0,0.0,0.0,0.0,0.0,0.0,0.0,0.0,0.0,0.0,0.0,0.0,0.0,0.0,0.0,0.0,0.0,-2.0724,-2.0683,-2.0217,-1.9351,-1.9987,-2.0711,0.0,0.0,0.0,0.0,0.0,0.0,0.0,0.0,0.0,0.0,0.0,0.0,0.0,0.0,0.0,0.0,0.0,0.0,0.0,0.0,0.0,0.0,0.0,0.0,0.0,0.0,0.0,0.0,0.0,0.0,0.0,0.0,0.0,0.0,0.0,0.0,0.0,0.0,0.0,0.0,0.0,0.0,0.0,0.0,0.0,0.0,0.0,0.0,0.0,0.0,0.0,0.0,0.0,0.0,0.0,0.0,0.0,0.0,0.0,0.0,0.0,0.0,0.0,0.0,0.0,0.0,0.0,0.0,0.0,0.0,0.0,0.0,0.0,0.0,0.0,0.0,0.0,0.0,0.0,0.0,0.0,0.0,0.0,0.0,0.0,0.0,0.0,0.0,0.0,0.0,0.0,0.0,0.0,0.0,0.0,0.0,0.0,0.0,0.0,0.0,0.0,0.0,0.0,0.0,0.0,0.0,0.0,0.0,-2.2847,-2.3044,-2.3467,-2.3614,-2.3279,-2.1555,-2.0967,0.0,0.0,0.0,0.0,0.0,0.0,0.0,0.0,0.0,0.0,0.0,0.0,0.0,0.0,0.0,0.0,0.0,0.0,0.0,0.0,0.0,0.0,0.0,0.0,0.0,0.0,0.0,0.0,0.0,0.0,0.0,0.0,0.0,0.0,0.0,0.0,0.0,0.0,0.0,0.0,0.0,0.0,0.0,0.0,0.0,0.0,0.0,0.0,0.0,0.0,0.0,0.0,0.0,0.0,0.0,0.0,0.0,0.0,0.0,0.0,0.0,0.0,0.0,0.0,0.0,0.0,0.0,0.0,0.0,0.0,0.0,0.0,0.0,0.0,0.0,0.0,0.0,0.0,0.0,0.0,0.0,0.0,0.0,0.0,0.0,0.0,0.0,0.0,0.0,0.0,0.0,0.0,0.0,0.0,0.0,0.0,0.0,0.0,0.0,0.0,0.0,0.0,0.0,0.0,0.0,0.0,0.0,0.0,-2.5638,-2.591,-2.6593,-2.7507,-2.8503,-2.3916,-2.1696,0.0,0.0,0.0,0.0,0.0,0.0,0.0,0.0,0.0,0.0,0.0,0.0,0.0,0.0,0.0,0.0,0.0,0.0,0.0,0.0,0.0,0.0,0.0,0.0,0.0,0.0,0.0,0.0,0.0,0.0,0.0,0.0,0.0,0.0,0.0,0.0,0.0,0.0,0.0,0.0,0.0,0.0,0.0,0.0,0.0,0.0,0.0,0.0,0.0,0.0,0.0,0.0,0.0,0.0,0.0,0.0,0.0,0.0,0.0,0.0,0.0,0.0,0.0,0.0,0.0,0.0,0.0,0.0,0.0,0.0,0.0,0.0,0.0,0.0,0.0,0.0,0.0,0.0,0.0,0.0,0.0,0.0,0.0,0.0,0.0,0.0,0.0,0.0,0.0,0.0,0.0,0.0,0.0,0.0,0.0,0.0,0.0,0.0,0.0,0.0,0.0,0.0,0.0,0.0,0.0,0.0,0.0,0.0,-2.6787,-2.7931,-2.8186,-2.8447,-2.8682,-2.5406,-2.428,0.0,0.0,0.0,0.0,0.0,0.0,0.0,0.0,0.0,0.0,0.0,0.0,0.0,0.0,0.0,0.0,0.0,0.0,0.0,0.0,0.0,0.0,0.0,0.0,0.0,0.0,0.0,0.0,0.0,0.0,0.0,0.0,0.0,0.0,0.0,0.0,0.0,0.0,0.0,0.0,0.0,0.0,0.0,0.0,0.0,0.0,0.0,0.0,-3.7713,0.0,0.0,0.0,0.0,0.0,0.0,0.0,0.0,0.0,0.0,0.0,0.0,0.0,0.0,0.0,0.0,0.0,0.0,0.0,0.0,0.0,0.0,0.0,0.0,0.0,0.0,0.0,0.0,0.0,0.0,0.0,0.0,0.0,0.0,0.0,0.0,0.0,0.0,0.0,0.0,0.0,0.0,0.0,0.0,0.0,0.0,0.0,0.0,0.0,0.0,0.0,0.0,0.0,0.0,0.0,0.0,0.0,0.0,0.0,-2.9369,-3.2178,-3.1034,-3.0683,-3.1213,-2.8339,-2.6804,0.0,0.0,0.0,0.0,0.0,0.0,0.0,0.0,0.0,0.0,0.0,0.0,0.0,0.0,0.0,0.0,0.0,0.0,0.0,0.0,0.0,0.0,0.0,0.0,0.0,0.0,0.0,0.0,0.0,0.0,0.0,0.0,0.0,0.0,0.0,0.0,0.0,0.0,0.0,0.0,0.0,0.0,0.0,0.0,0.0,0.0,0.0,0.0,0.0,0.0,0.0,0.0,0.0,0.0,0.0,0.0,0.0,0.0,0.0,0.0,0.0,0.0,0.0,0.0,0.0,0.0,0.0,0.0,0.0,0.0,0.0,0.0,0.0,0.0,0.0,0.0,0.0,0.0,0.0,0.0,0.0,0.0,0.0,0.0,0.0,0.0,0.0,0.0,0.0,0.0,0.0,0.0,0.0,0.0,0.0,0.0,0.0,0.0,0.0,0.0,0.0,0.0,0.0,0.0,0.0,0.0,0.0,-2.8168,-3.2009,-3.6184,-3.3951,-3.3129,-3.4216,-3.1254,-2.9065,-2.779,0.0,0.0,0.0,0.0,0.0,0.0,0.0,0.0,0.0,0.0,0.0,0.0,0.0,0.0,0.0,0.0,0.0,0.0,0.0,0.0,0.0,0.0,0.0,0.0,0.0,0.0,0.0,0.0,0.0,0.0,0.0,0.0,0.0,0.0,0.0,0.0,0.0,0.0,-3.6228,-3.5951,0.0,0.0,0.0,0.0,0.0,0.0,0.0,0.0,-3.742,0.0,0.0,0.0,0.0,0.0,0.0,0.0,0.0,0.0,0.0,0.0,0.0,0.0,0.0,0.0,0.0,0.0,0.0,0.0,0.0,0.0,0.0,0.0,0.0,0.0,0.0,0.0,0.0,0.0,0.0,0.0,0.0,0.0,0.0,0.0,0.0,0.0,0.0,0.0,0.0,0.0,0.0,0.0,0.0,0.0,0.0,0.0,0.0,0.0,0.0,0.0,0.0,0.0,0.0,0.0,0.0,-2.5037,-2.868,-3.2446,-3.6322,-3.4838,-3.4066,-3.4201,-3.1676,-3.0474,-3.0842,0.0,0.0,0.0,0.0,0.0,0.0,0.0,0.0,0.0,0.0,0.0,0.0,0.0,0.0,0.0,0.0,0.0,0.0,0.0,0.0,0.0,0.0,0.0,0.0,0.0,0.0,0.0,0.0,0.0,0.0,0.0,0.0,0.0,0.0,0.0,0.0,0.0,0.0,0.0,-3.7522,-3.6364,0.0,0.0,0.0,0.0,0.0,0.0,0.0,0.0,-3.8573,0.0,0.0,0.0,0.0,0.0,0.0,0.0,0.0,0.0,0.0,0.0,0.0,0.0,0.0,0.0,0.0,0.0,0.0,0.0,0.0,0.0,0.0,0.0,0.0,0.0,0.0,0.0,0.0,0.0,0.0,0.0,0.0,0.0,0.0,0.0,0.0,0.0,0.0,0.0,0.0,0.0,0.0,0.0,0.0,0.0,0.0,0.0,0.0,0.0,0.0,0.0,0.0,0.0,0.0,0.0,-2.5448,-3.038,-3.4248,-3.6353,-3.5398,-3.4604,-3.4269,-3.176,-3.0785,0.0,0.0,0.0,0.0,0.0,0.0,0.0,0.0,0.0,0.0,0.0,0.0,0.0,0.0,0.0,0.0,0.0,0.0,0.0,0.0,0.0,0.0,0.0,0.0,0.0,0.0,0.0,0.0,0.0,0.0,0.0,0.0,0.0,0.0,0.0,0.0,0.0,0.0,0.0,0.0,-3.7567,-3.776,-3.954,0.0,0.0,0.0,0.0,0.0,0.0,-3.9042,-3.8732,0.0,0.0,0.0,0.0,0.0,0.0,0.0,0.0,0.0,0.0,0.0,0.0,0.0,0.0,0.0,0.0,0.0,0.0,0.0,0.0,0.0,0.0,0.0,0.0,0.0,0.0,0.0,0.0,0.0,0.0,0.0,0.0,0.0,0.0,0.0,0.0,0.0,0.0,0.0,0.0,0.0,0.0,0.0,0.0,0.0,0.0,0.0,0.0,0.0,0.0,0.0,0.0,0.0,0.0,0.0,-2.7494,-3.2585,-3.5991,-3.7101,-3.5889,-3.4925,-3.4455,-3.178,-3.0807,0.0,0.0,0.0,0.0,0.0,0.0,0.0,0.0,0.0,0.0,0.0,0.0,0.0,0.0,0.0,0.0,0.0,0.0,0.0,0.0,0.0,0.0,0.0,0.0,0.0,0.0,0.0,0.0,0.0,0.0,0.0,0.0,0.0,0.0,0.0,0.0,0.0,0.0,0.0,0.0,0.0,-3.9038,-4.074,-3.9705,0.0,0.0,0.0,0.0,-3.9586,-3.9816,0.0,0.0,0.0,0.0,0.0,0.0,0.0,0.0,0.0,0.0,0.0,0.0,0.0,0.0,0.0,0.0,0.0,0.0,0.0,0.0,0.0,0.0,0.0,0.0,0.0,0.0,0.0,0.0,0.0,0.0,0.0,0.0,0.0,0.0,0.0,0.0,0.0,0.0,0.0,0.0,0.0,0.0,0.0,0.0,0.0,0.0,0.0,0.0,0.0,0.0,0.0,0.0,0.0,0.0,0.0,0.0,-3.4539,-3.511,-3.6821,-3.9365,-3.677,-3.517,-3.5076,-3.1845,-3.0615,0.0,0.0,0.0,0.0,0.0,0.0,0.0,0.0,0.0,0.0,0.0,0.0,0.0,0.0,0.0,0.0,0.0,0.0,0.0,0.0,0.0,0.0,0.0,0.0,0.0,0.0,0.0,0.0,0.0,0.0,0.0,0.0,0.0,0.0,0.0,0.0,0.0,0.0,0.0,0.0,0.0,-3.9013,-4.0766,-4.0218,-3.9629,0.0,0.0,-4.3,-4.2948,-4.4153,0.0,0.0,0.0,0.0,0.0,0.0,0.0,0.0,0.0,0.0,0.0,0.0,0.0,0.0,0.0,0.0,0.0,0.0,0.0,0.0,0.0,0.0,0.0,0.0,0.0,0.0,0.0,0.0,0.0,0.0,0.0,0.0,0.0,0.0,0.0,0.0,0.0,0.0,0.0,0.0,0.0,0.0,0.0,0.0,0.0,0.0,0.0,0.0,0.0,0.0,0.0,0.0,0.0,0.0,0.0,-3.5367,-3.6649,-3.762,-3.852,-3.9336,-3.7748,-3.6672,-3.6307,-3.3031,-3.1734,0.0,0.0,0.0,0.0,0.0,0.0,0.0,0.0,0.0,0.0,0.0,0.0,0.0,0.0,0.0,0.0,0.0,0.0,0.0,0.0,0.0,0.0,0.0,0.0,0.0,0.0,0.0,0.0,0.0,0.0,0.0,0.0,0.0,0.0,0.0,0.0,0.0,0.0,0.0,0.0,0.0,0.0,-4.2434,-4.2197,0.0,0.0,0.0,-4.3303,-4.2334,0.0,0.0,0.0,0.0,0.0,0.0,0.0,0.0,0.0,0.0,0.0,0.0,0.0,0.0,0.0,0.0,0.0,0.0,0.0,0.0,0.0,0.0,0.0,0.0,0.0,0.0,0.0,0.0,0.0,0.0,0.0,0.0,0.0,0.0,0.0,0.0,0.0,0.0,0.0,0.0,0.0,0.0,0.0,0.0,0.0,0.0,0.0,0.0,0.0,0.0,0.0,0.0,0.0,0.0,0.0,0.0,0.0,-3.7961,-3.9887,-4.0646,-4.0215,-3.9204,-3.8463,-3.795,-3.5131,0.0,0.0,0.0,0.0,0.0,0.0,0.0,0.0,0.0,0.0,0.0,0.0,0.0,0.0,0.0,0.0,0.0,0.0,0.0,0.0,0.0,0.0,0.0,0.0,0.0,0.0,0.0,-3.654,0.0,0.0,0.0,0.0,0.0,0.0,0.0,0.0,0.0,0.0,0.0,0.0,0.0,0.0,-4.361,-4.3668,-4.3849,-4.4118,0.0,0.0,-4.4046,-4.3199,-4.5526,-4.6304,0.0,0.0,0.0,0.0,0.0,0.0,0.0,0.0,0.0,0.0,0.0,0.0,0.0,0.0,0.0,0.0,0.0,0.0,0.0,0.0,0.0,0.0,0.0,0.0,0.0,0.0,0.0,0.0,0.0,0.0,0.0,0.0,0.0,0.0,0.0,0.0,0.0,0.0,0.0,0.0,0.0,0.0,0.0,0.0,0.0,0.0,0.0,0.0,0.0,0.0,0.0,0.0,0.0,0.0,0.0,-3.9783,-4.1808,-4.3145,-4.3662,-4.1411,-4.0134,-4.0043,-3.8529,-3.7051,0.0,0.0,0.0,0.0,0.0,0.0,0.0,0.0,0.0,0.0,0.0,0.0,0.0,0.0,0.0,0.0,0.0,0.0,0.0,0.0,0.0,0.0,0.0,0.0,0.0,0.0,0.0,0.0,0.0,0.0,0.0,0.0,0.0,0.0,0.0,0.0,0.0,0.0,0.0,0.0,0.0,-4.3616,-4.3612,-4.4345,-4.5443,0.0,0.0,-4.6522,-4.7869,-4.9601,-4.9726,-4.6377,0.0,0.0,0.0,0.0,0.0,0.0,0.0,0.0,0.0,0.0,0.0,0.0,0.0,0.0,0.0,0.0,0.0,0.0,0.0,0.0,0.0,0.0,0.0,0.0,0.0,0.0,0.0,0.0,0.0,0.0,0.0,0.0,0.0,0.0,0.0,0.0,0.0,0.0,0.0,0.0,0.0,0.0,0.0,0.0,0.0,0.0,0.0,0.0,0.0,0.0,0.0,0.0,0.0,-4.0294,-4.0415,-4.2189,-4.3247,-4.342,-4.2216,-4.1516,-4.1499,-4.0134,-3.8755,0.0,0.0,0.0,0.0,0.0,0.0,0.0,0.0,0.0,0.0,0.0,0.0,0.0,0.0,0.0,0.0,0.0,0.0,0.0,0.0,0.0,0.0,0.0,0.0,0.0,0.0,0.0,0.0,-4.0912,-4.1181,-3.9994,0.0,0.0,0.0,0.0,0.0,0.0,0.0,0.0,0.0,0.0,-4.5417,-4.653,-4.6951,0.0,0.0,-4.7913,-4.7569,-4.7186,-4.8612,-4.8627,-4.5216,-4.4655,0.0,0.0,0.0,0.0,0.0,0.0,0.0,0.0,0.0,0.0,0.0,0.0,0.0,0.0,0.0,0.0,0.0,0.0,0.0,0.0,0.0,0.0,0.0,0.0,0.0,0.0,0.0,0.0,0.0,0.0,0.0,0.0,0.0,0.0,0.0,0.0,0.0,0.0,0.0,0.0,0.0,0.0,0.0,0.0,0.0,0.0,0.0,0.0,0.0,0.0,0.0,0.0,-4.1194,-4.0742,-4.2998,-4.4129,-4.3863,-4.3443,-4.3107,-4.3,-4.2106,-4.11,0.0,0.0,0.0,0.0,0.0,0.0,0.0,0.0,0.0,0.0,0.0,0.0,0.0,0.0,0.0,0.0,0.0,0.0,0.0,0.0,0.0,0.0,0.0,0.0,0.0,0.0,0.0,0.0,-4.2117,-4.2369,-4.1281,0.0,0.0,0.0,0.0,0.0,0.0,0.0,0.0,0.0,0.0,-4.6978,-4.7748,-4.7826,-4.7845,-4.7874,-4.7517,-4.6972,-4.6347,-4.7297,-4.7281,-4.487,0.0,0.0,0.0,0.0,0.0,0.0,0.0,0.0,0.0,0.0,0.0,0.0,0.0,0.0,0.0,0.0,0.0,0.0,0.0,0.0,0.0,0.0,0.0,0.0,0.0,0.0,0.0,0.0,0.0,0.0,0.0,0.0,0.0,0.0,0.0,0.0,0.0,0.0,0.0,0.0,0.0,0.0,0.0,0.0,0.0,0.0,0.0,0.0,0.0,0.0,0.0,0.0,0.0,0.0,-4.082,-4.4688,-4.64,-4.5562,-4.5321,-4.5003,-4.458,-4.4932,-4.4475,-4.3022,0.0,0.0,0.0,0.0,0.0,0.0,0.0,0.0,0.0,0.0,0.0,0.0,0.0,0.0,0.0,0.0,0.0,0.0,0.0,0.0,0.0,0.0,0.0,0.0,0.0,0.0,-3.9035,-4.0095,-4.1285,0.0,0.0,0.0,0.0,0.0,0.0,0.0,0.0,0.0,0.0,-4.7404,-4.792,-4.6402,-4.6216,-4.6319,-4.6338,-4.4968,-4.444,-4.6041,-4.6327,-4.6327,0.0,0.0,0.0,0.0,0.0,0.0,0.0,0.0,0.0,0.0,0.0,0.0,0.0,0.0,0.0,0.0,0.0,0.0,0.0,0.0,0.0,0.0,0.0,0.0,0.0,0.0,0.0,0.0,-3.2725,0.0,0.0,0.0,0.0,0.0,0.0,0.0,0.0,0.0,0.0,0.0,-3.6608,-3.5794,0.0,0.0,0.0,0.0,0.0,0.0,0.0,0.0,0.0,0.0,0.0,0.0,-4.2758,-4.1629,-4.5186,-4.7107,-4.6973,-4.6221,-4.5767,-4.5597,-4.5767,-4.5361,-4.4369,0.0,0.0,0.0,0.0,0.0,0.0,0.0,0.0,0.0,0.0,0.0,0.0,0.0,0.0,0.0,0.0,0.0,0.0,0.0,0.0,0.0,0.0,0.0,0.0,0.0,-4.1914,0.0,0.0,0.0,0.0,0.0,0.0,0.0,0.0,0.0,0.0,0.0,-4.3849,-4.5525,-4.5349,-4.5247,-4.581,-4.5899,-4.6338,0.0,0.0,0.0,0.0,0.0,0.0,0.0,0.0,0.0,0.0,0.0,0.0,0.0,0.0,-4.4531,-4.3081,-4.3762,-4.4557,-4.4538,0.0,0.0,0.0,0.0,0.0,0.0,0.0,0.0,0.0,0.0,0.0,0.0,0.0,0.0,0.0,0.0,-3.5876,0.0,0.0,0.0,0.0,0.0,0.0,0.0,0.0,-3.9751,-4.067,-4.1396,-4.0616,-4.0866,0.0,-4.061,-3.8933,0.0,0.0,0.0,0.0,0.0,0.0,0.0,0.0,-4.3382,-4.31,-4.5997,-4.7493,-4.7321,-4.672,-4.6293,-4.6116,-4.6371,-4.64,-4.6074,-4.5148,-4.4207,0.0,0.0,0.0,0.0,0.0,0.0,0.0,0.0,0.0,0.0,0.0,0.0,0.0,0.0,0.0,0.0,0.0,0.0,0.0,0.0,0.0,0.0,0.0,-4.3167,0.0,0.0,0.0,0.0,0.0,0.0,0.0,0.0,0.0,-4.3891,-4.4001,-4.3997,-4.3907,-4.4527,-4.4974,-4.4897,0.0,0.0,0.0,0.0,0.0,0.0,0.0,-4.4343,-4.3708,-4.4187,-4.4962,-4.6002,-4.6561,-4.6876,-4.697,0.0,0.0,-4.5369,-4.6041,-4.7008,-4.6996,-4.7016,-4.6941,-4.6649,-4.6557,-4.6466,0.0,0.0,0.0,0.0,0.0,0.0,0.0,0.0,-3.7697,-3.7156,0.0,-3.7111,0.0,0.0,0.0,0.0,0.0,0.0,0.0,0.0,-4.6027,-4.7324,-4.5863,-4.5071,-4.5519,-4.6785,-4.3495,-4.2389,-4.3371,-4.2648,0.0,0.0,0.0,0.0,0.0,0.0,-4.4169,-4.5305,-4.7151,-4.7643,-4.6739,-4.6864,-4.6735,-4.6275,-4.6999,-4.7679,-4.8041,-4.6946,-4.6438,-4.6656,-4.3964,0.0,0.0,0.0,0.0,0.0,0.0,0.0,0.0,0.0,0.0,0.0,0.0,0.0,0.0,0.0,0.0,0.0,0.0,0.0,0.0,-4.3665,0.0,0.0,0.0,0.0,0.0,0.0,0.0,0.0,0.0,0.0,-4.506,-4.5423,-4.4388,-4.1116,0.0,0.0,0.0,0.0,-4.4628,-4.1582,-4.1868,-4.2597,-4.2695,-4.4752,-4.6897,-4.8489,0.0,0.0,-5.1313,-5.0017,-4.9002,-4.8972,-5.0394,-5.0647,-4.8033,-4.8165,-4.8588,-4.858,-4.8695,-4.8321,-4.759,-4.7759,-4.7462,-3.6657,0.0,0.0,0.0,0.0,-3.7246,-3.8505,-4.0068,-4.0388,-4.0222,-3.9718,-4.0374,0.0,0.0,0.0,0.0,0.0,0.0,-4.3535,-4.5357,-4.6483,-4.7411,-4.814,-4.794,-4.8073,-4.8494,-4.7615,-4.739,-4.7765,-4.7946,-4.5354,-4.029,0.0,0.0,0.0,0.0,-4.4789,-4.5797,-4.7729,-4.8458,-4.7811,-4.8098,-4.8197,-4.8025,-4.8439,-4.8728,-4.873,-4.8893,-4.845,-4.7391,-4.6797,0.0,0.0,0.0,0.0,0.0,0.0,0.0,0.0,0.0,0.0,0.0,0.0,0.0,0.0,0.0,0.0,0.0,0.0,0.0,-4.3634,-4.464,-4.4514,0.0,0.0,0.0,0.0,0.0,0.0,0.0,0.0,0.0,-4.2249,-4.3069,-4.364,0.0,0.0,-4.2684,-4.2318,-4.3732,-4.5109,-4.5978,0.0,0.0,0.0,-4.797,-4.7862,-4.828,-4.9819,-5.1037,-5.1042,-5.168,-5.226,-5.2327,-5.3186,-5.3633,-5.304,-5.2558,-5.2356,-5.2382,-5.2402,-5.2307,-5.1968,-5.1866,-5.1676,-4.0736,-3.8711,-3.8077,-3.8332,-3.9132,-3.963,-4.0769,-4.2329,-4.2378,-4.2087,-4.1523,-4.2331,-4.1715,-4.0134,-4.1472,0.0,0.0,0.0,-4.621,-4.8417,-4.8338,-4.8886,-4.9868,-4.9921,-4.9968,-4.9995,-4.9879,-4.9986,-5.0209,-4.9681,-4.7442,-4.3561,0.0,0.0,-4.3125,-4.4751,-4.5897,-4.6499,-4.8269,-4.8973,-4.8532,-4.8765,-4.8881,-4.8881,-4.9211,-4.9377,-4.929,-4.9876,-4.9716,-4.8739,-4.8318,-4.7252,0.0,0.0,0.0,0.0,0.0,0.0,0.0,0.0,0.0,0.0,0.0,-4.3255,0.0,0.0,0.0,0.0,-4.4694,-4.4616,-4.4523,-4.4809,0.0,0.0,0.0,0.0,0.0,0.0,0.0,-4.2624,-4.4624,-4.4705,-4.1088,-4.319,-4.5201,-4.5528,-4.4699,-4.4157,-4.4331,0.0,-4.7214,-4.8101,-4.8538,-4.9114,-5.0079,-5.0349,-5.0598,-5.1252,-5.2324,-5.3114,-5.3172,-5.4081,-5.4779,-5.4909,-5.5264,-5.5598,-5.5638,-5.5286,-5.4936,-5.4854,-5.4854,-5.4757,-5.4339,-5.4236,-5.4097,-4.3791,-4.3545,-4.1001,-4.0574,-4.1593,-4.1612,-4.2434,-4.3726,-4.3744,-4.3089,-4.2089,-4.3457,-4.3166,-4.1713,-4.3384,0.0,0.0,-4.8183,-4.9129,-5.086,-5.0994,-5.1053,-5.1053,-5.1093,-5.1166,-5.114,-5.0734,-5.0758,-5.1067,-4.9215,-4.8217,-4.8103,-4.7799,-4.6942,-4.5696,-4.6564,-4.7169,-4.7367,-4.8661,-4.9183,-4.8934,-4.8996,-4.9043,-4.9108,-4.9527,-4.9744,-4.9746,-5.0139,-5.0348,-5.0291,-4.9009,-4.8246,-4.815,0.0,0.0,0.0,0.0,0.0,0.0,0.0,0.0,0.0,0.0,0.0,0.0,0.0,0.0,0.0,-4.6326,0.0,-4.615,-4.4793,0.0,0.0,0.0,-4.394,-4.5539,-4.5832,-4.5836,-4.5701,0.0,0.0,0.0,0.0,-4.8413,-4.8664,-4.8933,-4.8894,-4.8279,-4.949,-5.0144,-4.8875,-4.9481,-5.0104,-5.061,-5.224,-5.4084,-5.5482,-5.6459,-5.6308,-5.6257,-5.6372,-5.6519,-5.6386,-5.6553,-5.6558,-5.6509,-5.64,-5.6413,-5.6119,-5.6139,-5.5936,-5.5202,-5.505,-5.4855,-4.4732,-4.4497,-4.3825,-4.3525,-4.3434,-4.3453,-4.3785,-4.4288,-4.4325,-4.4552,-4.499,-4.5552,-4.6396,-4.7472,-4.7818,-4.8683,-4.9892,-4.9867,-5.012,-5.0666,-5.0591,-5.0622,-5.072,-5.0741,-5.0764,-5.0801,-5.0813,-5.0917,-5.1105,-5.0624,-4.969,-4.844,-4.8072,-4.7018,-4.5381,-4.5794,-4.6629,-4.7761,-4.7952,-4.8624,-4.9757,-4.9483,-4.9464,-4.9822,-5.005,-5.013,-4.9999,-5.0546,-5.0773,-5.0621,-5.0491,-4.9847,-4.8545,-4.6572,0.0,0.0,0.0,0.0,0.0,0.0,0.0,0.0,0.0,-4.3147,-4.181,0.0,-4.3883,0.0,-4.6671,-4.8157,-4.8055,-4.7734,0.0,0.0,-4.5544,-4.534,-4.5734,-4.7393,-4.8009,-4.6721,-4.8471,-4.9433,-4.8414,-4.9337,-5.1029,-5.3396,-4.9606,-4.7127,-4.8779,-4.999,-5.1048,-5.1895,-5.3147,-5.4226,-5.4149,-5.4804,-5.5478,-5.6065,-5.629,-5.6366,-5.6339,-5.6452,-5.6528,-5.6491,-5.6511,-5.6511,-5.6485,-5.6491,-5.6478,-5.641,-5.6418,-5.6316,-5.5889,-5.5825,-5.5708,-4.5041,-4.4908,-4.5021,-4.4842,-4.4512,-4.4512,-4.4562,-4.4667,-4.5191,-4.5735,-4.6282,-4.7226,-4.8356,-4.9583,-4.9917,-5.0326,-5.0843,-5.0814,-5.086,-5.0959,-5.0881,-5.0835,-5.0867,-5.0931,-5.0957,-5.0926,-5.105,-5.1154,-5.1208,-5.1179,-5.066,-4.9731,-4.9479,-4.849,-4.6807,-4.6039,-4.6086,-4.6907,-4.7477,-4.8625,-5.0255,-5.0092,-4.9716,-4.9175,-4.9344,-4.9029,-4.818,-4.8543,-4.8742,-4.8658,-4.8841,-4.8496,-4.7524,-4.5879,-4.4514,0.0,0.0,0.0,0.0,0.0,0.0,0.0,0.0,0.0,0.0,0.0,-4.4816,0.0,-4.7235,0.0,-4.7579,-4.7584,-4.7545,-4.7291,-4.7484,-4.7889,-4.8561,-5.0159,-5.0795,-4.9817,-5.1279,-5.2337,-5.2202,-5.2606,-5.3568,-5.5455,-5.2471,-5.0586,-5.1895,-5.2624,-5.3259,-5.4161,-5.5064,-5.564,-5.5638,-5.5729,-5.5844,-5.591,-5.6063,-5.6142,-5.6136,-5.6208,-5.6261,-5.6241,-5.632,-5.6366,-5.6377,-5.643,-5.6491,-5.6484,-5.6491,-5.6437,-5.632,-5.628,-5.6197,-4.504,-4.5059,-4.5289,-4.5243,-4.5047,-4.5183,-4.5168,-4.5095,-4.6126,-4.6702,-4.6988,-4.8683,-4.9577,-4.993,-5.068,-5.1102,-5.1284,-5.1301,-5.1346,-5.1382,-5.1398,-5.1322,-5.1209,-5.131,-5.1269,-5.1171,-5.1275,-5.1303,-5.1328,-5.1213,-5.1029,-5.0798,-5.0739,-4.9915,-4.8302,-4.6521,-4.5668,-4.5733,-4.7262,-4.8778,-5.0244,-5.0113,-4.9276,-4.7799,-4.7941,-4.7334,-4.5793,-4.5898,-4.6027,-4.6075,-4.6084,-4.6182,-4.6385,-4.4798,-4.3942,0.0,-4.2615,0.0,0.0,0.0,0.0,0.0,0.0,0.0,0.0,-4.6296,-4.6348,-4.6433,-4.7878,-4.8274,-4.6975,-4.696,-4.7636,-4.9118,-4.9937,-5.0936,-5.2232,-5.308,-5.3507,-5.3377,-5.4127,-5.4552,-5.428,-5.5128,-5.5707,-5.5665,-5.5393,-5.5126,-5.557,-5.5534,-5.5513,-5.564,-5.5596,-5.5573,-5.5558,-5.563,-5.5712,-5.573,-5.5891,-5.5971,-5.5971,-5.5971,-5.5986,-5.5986,-5.611,-5.622,-5.6236,-5.6349,-5.6472,-5.6492,-5.648,-5.6441,-5.6449,-5.6449,-5.6422,-4.525,-4.5235,-4.5222,-4.5186,-4.5227,-4.6147,-4.6422,-4.6265,-4.6453,-4.7393,-4.8927,-5.0055,-5.0685,-5.083,-5.1074,-5.117,-5.1211,-5.133,-5.1386,-5.1386,-5.1389,-5.1327,-5.1195,-5.1103,-5.1016,-5.0952,-5.0861,-5.085,-5.0834,-5.0818,-5.0086,-4.8719,-4.8681,-4.7871,0.0,0.0,0.0,0.0,-4.7469,-4.8427,-4.8593,-4.7224,-4.6334,-4.608,-4.6205,0.0,-4.5805,-4.5925,-4.5988,-4.6017,-4.6066,0.0,0.0,0.0,0.0,0.0,0.0,0.0,0.0,0.0,0.0,0.0,-4.6085,-4.5964,-4.6257,-4.63,-4.6882,-4.8216,-4.8691,-4.9595,-5.1269,-5.1457,-5.1892,-5.2854,-5.3022,-5.3143,-5.3354,-5.4014,-5.4396,-5.4302,-5.5094,-5.5557,-5.54,-5.5673,-5.5789,-5.5662,-5.5618,-5.5665,-5.5769,-5.5905,-5.5943,-5.5808,-5.5624,-5.5538,-5.5652,-5.5691,-5.5731,-5.5821,-5.5888,-5.5955,-5.6073,-5.599,-5.602,-5.6136,-5.6212,-5.6212,-5.6267,-5.6319,-5.6388,-5.6474,-5.6417,-5.6349,-5.6328,-5.6349,-5.6278,-4.5452,0.0,-4.564,-4.5841,0.0,-4.6877,-4.7599,-4.8265,-4.8158,-4.8926,-5.0213,-5.0771,-5.1043,-5.1153,-5.1215,-5.1263,-5.1299,-5.1363,-5.1386,-5.1398,-5.1342,-5.1238,-5.1113,-5.1031,-5.0953,-5.0902,-5.0867,-5.0848,-5.0848,-5.0825,-5.0347,-4.9473,-4.941,-4.9009,-4.8298,-4.8385,-4.8043,-4.7297,-4.8155,-4.8991,-4.9692,-4.8866,-4.7944,-4.7101,0.0,0.0,0.0,0.0,0.0,0.0,0.0,0.0,0.0,0.0,0.0,-4.7418,-4.6733,-4.6626,-4.744,-4.7528,-4.7903,-4.874,-4.8814,-4.8443,-4.7608,-4.831,-4.9169,-5.0028,-5.0513,-5.1302,-5.255,-5.3065,-5.3512,-5.3955,-5.433,-5.4488,-5.4436,-5.5009,-5.5442,-5.5346,-5.5691,-5.5959,-5.5932,-5.5917,-5.5882,-5.575,-5.5787,-5.5865,-5.5883,-5.5941,-5.5923,-5.5882,-5.569,-5.5564,-5.563,-5.5583,-5.5554,-5.5647,-5.5711,-5.5769,-5.5844,-5.5843,-5.5877,-5.6001,-5.6052,-5.6097,-5.616,-5.6194,-5.6275,-5.6336,-5.6306,-5.6263,-5.6271,-5.6275,-5.6255,-4.5715,-4.5759,-4.6205,-4.6658,-4.7105,-4.769,-4.88,-5.0192,0.0,0.0,0.0,-5.1093,-5.1159,-5.1217,-5.1284,-5.1327,-5.1402,-5.1387,-5.1396,-5.1362,-5.1252,-5.1123,-5.0991,-5.0972,-5.0945,-5.0855,-5.0918,-5.0953,-5.0953,-5.0898,-5.0871,-5.0848,-5.0757,-5.0779,-5.0894,-5.0947,-5.0403,-4.9269,-4.8899,-4.9453,-5.0859,-5.0591,-4.9664,-4.8113,-4.8175,-4.7524,-4.6008,-4.6041,-4.6112,-4.6176,-4.6206,-4.6348,-4.664,-4.6645,-4.6796,-4.7086,-4.7125,-4.7761,-4.9142,-4.9249,-4.9878,-5.1316,-5.1394,-5.0789,-4.9364,-5.0711,-5.1629,-5.1629,-5.2426,-5.2984,-5.3144,-5.3788,-5.4292,-5.4443,-5.5083,-5.5483,-5.5365,-5.5881,-5.6203,-5.6122,-5.609,-5.6122,-5.6071,-5.6067,-5.601,-5.588,-5.5923,-5.6054,-5.6024,-5.5952,-5.5935,-5.6001,-5.5769,-5.5607,-5.5585,-5.5499,-5.5384,-5.5434,-5.5508,-5.5561,-5.558,-5.5667,-5.5749,-5.5827,-5.5903,-5.6012,-5.6026,-5.6117,-5.6181,-5.6194,-5.6181,-5.6181,-5.6194,-5.6232,-5.6219,-4.6109,-4.6177,-4.6917,-4.726,-4.7464,-4.8939,-5.0107,-5.1015,-5.1004,-5.1061,-5.1173,-5.1184,-5.1206,-5.121,-5.1327,-5.1367,-5.1338,-5.1363,-5.1338,0.0,-5.1203,-5.1083,-5.0913,-5.0913,-5.0858,-5.074,-5.074,-5.0758,-5.0758,-5.0721,-5.074,-5.0721,-5.0702,-5.0758,-5.0893,-5.0902,-5.0901,-5.0844,-4.9337,-4.8742,-4.914,-4.764,-4.6706,-4.6466,-4.6538,-4.6371,-4.6079,-4.6136,-4.6108,-4.6115,-4.6164,-4.6874,-4.8318,-4.8435,-4.9087,-5.0508,-5.0644,-5.0805,-5.1019,-5.1015,-5.1137,-5.1355,-5.1394,-5.1277,-5.1102,-5.1941,-5.2526,-5.2546,-5.3305,-5.4136,-5.4824,-5.5031,-5.5391,-5.6061,-5.6302,-5.6327,-5.6121,-5.621,-5.6261,-5.6135,-5.6211,-5.6222,-5.6155,-5.6199,-5.6194,-5.6004,-5.5938,-5.5941,-5.6112,-5.6154,-5.6135,-5.6121,-5.5843,-5.5649,-5.5628,-5.548,-5.5415,-5.5403,-5.5495,-5.558,-5.5729,-5.5748,-5.5808,-5.6007,-5.601,-5.6026,-5.6056,-5.6102,-5.6112,-5.6154,-5.6146,-5.6132,-5.6154,-5.6174,-5.6146,-4.6425,-4.6881,-4.7288,-4.7979,-4.8904,-5.0174,-5.0926,-5.1292,-5.1307,-5.1272,-5.1214,-5.1233,-5.1256,-5.1249,-5.1371,-5.1382,-5.1346,-5.1394,-5.1362,-5.1297,-5.115,-5.1083,-5.1047,-5.0887,-5.0812,-5.081,-5.0721,-5.0683,-5.0683,-5.0683,-5.0683,-5.0702,-5.0748,-5.0825,-5.0902,-5.0942,-5.1023,-5.1189,-5.0387,-5.004,-5.0207,-4.9406,-4.8943,-4.8926,-4.892,-4.8906,-4.8907,-4.897,-4.8977,-4.8989,-4.8986,-4.9391,-5.0133,-5.0219,-5.0738,-5.1895,-5.2064,-5.2279,-5.2656,-5.2767,-5.2819,-5.28,-5.28,-5.28,-5.28,-5.2741,-5.2897,-5.3366,-5.4193,-5.4853,-5.5273,-5.5719,-5.6161,-5.6563,-5.661,-5.6558,-5.6497,-5.6472,-5.6439,-5.6383,-5.6398,-5.6398,-5.6329,-5.6375,-5.6324,-5.6154,-5.6048,-5.6117,-5.6306,-5.6358,-5.6358,-5.6347,-5.6121,-5.5965,-5.5896,-5.5649,-5.5531,-5.5596,-5.5602,-5.5667,-5.5827,-5.5866,-5.5956,-5.6026,-5.6029,-5.601,-5.6043,-5.604,-5.6059,-5.6078,-5.6062,-5.6082,-5.6078,-5.6082,-5.6062,-4.6622,-4.7385,-4.7678,-4.8777,-5.0353,-5.1069,-5.14,-5.1388,-5.1388,-5.1349,-5.1271,-5.1291,-5.1323,-5.1314,-5.1374,-5.1385,-5.1386,-5.1394,-5.1398,-5.1327,-5.1131,-5.1084,-5.1103,-5.0879,-5.0822,-5.0898,-5.0805,-5.0775,-5.0756,-5.0775,-5.0756,-5.0791,-5.0868,-5.0908,-5.0932,-5.1172,-5.1253,-5.1181,-5.1541,-5.176,-5.1784,-5.1901,-5.1947,-5.1923,-5.1892,-5.1874,-5.1879,-5.1937,-5.1986,-5.1971,-5.1976,-5.198,-5.1999,-5.1999,-5.2235,-5.2779,-5.2933,-5.323,-5.3774,-5.3928,-5.399,-5.399,-5.399,-5.4088,-5.4225,-5.3678,-5.3561,-5.4244,-5.5088,-5.5609,-5.57,-5.6172,-5.6619,-5.6618,-5.6606,-5.6606,-5.6606,-5.6606,-5.6606,-5.6602,-5.6553,-5.6484,-5.6491,-5.6494,-5.6422,-5.6309,-5.6271,-5.6347,-5.6474,-5.6483,-5.6483,-5.6446,-5.6325,-5.6168,-5.6135,-5.5807,-5.5628,-5.5769,-5.5769,-5.5788,-5.5885,-5.5993,-5.604,-5.601,-5.5995,-5.5995,-5.5995,-5.5977,-5.5979,-5.598,-5.598,-5.5981,-5.5999,-5.598,-5.598,-4.664,-4.7404,-4.8299,-4.9683,-5.1191,-5.1367,-5.1387,-5.1387,-5.1387,-5.1387,-5.1367,-5.1387,-5.1387,-5.1384,-5.1387,-5.1387,-5.1387,-5.1402,-5.1333,-5.1234,-5.1193,-5.1132,-5.1061,-5.0984,-5.0991,-5.0984,-5.0959,-5.0946,-5.0946,-5.0979,-5.0959,-5.0972,-5.0977,-5.1016,-5.1095,-5.1774,-5.1792,-5.1072,-5.2638,-5.3292,-5.2986,-5.3429,-5.3699,-5.3754,-5.367,-5.3648,-5.3559,-5.3742,-5.3715,-5.3693,-5.3665,-5.3737,-5.3717,-5.3737,-5.3771,-5.3845,-5.3889,-5.3928,-5.4001,-5.3986,-5.4068,-5.399,-5.4088,-5.44,-5.5103,-5.5103,-5.5064,-5.5298,-5.5977,-5.639,-5.6462,-5.6558,-5.662,-5.661,-5.6614,-5.6606,-5.6606,-5.6606,-5.6606,-5.6606,-5.6533,-5.6484,-5.6485,-5.6485,-5.6489,-5.6446,-5.6436,-5.6456,-5.6503,-5.6483,-5.6483,-5.6456,-5.629,-5.6132,-5.6083,-5.5865,-5.5728,-5.5747,-5.5788,-5.5866,-5.5923,-5.5959,-5.6012,-5.6031,-5.5996,-5.5998,-5.5999,-5.5962,-5.5924,-5.5905,-5.5905,-5.5924,-5.5924,-5.5905,-5.5924,-4.7326,-4.8157,-4.9061,-5.0171,-5.1269,-5.1387,-5.1387,-5.1387,-5.1387,-5.1387,-5.1387,-5.1387,-5.1387,-5.1387,-5.1387,-5.1387,-5.1387,-5.1386,-5.1379,-5.1297,-5.1235,-5.1213,-5.1218,-5.1063,-5.1042,-5.1113,-5.1042,-5.1008,-5.1008,-5.0969,-5.0952,-5.0953,-5.0987,-5.1304,-5.1881,-5.2281,-5.2522,-5.2756,-5.3954,-5.4741,-5.4963,-5.4312,-5.3923,-5.3928,-5.3923,-5.3903,-5.396,-5.3991,-5.3979,-5.3977,-5.3986,-5.399,-5.399,-5.399,-5.4192,-5.4626,-5.5087,-5.5399,-5.5528,-5.5552,-5.5532,-5.5532,-5.5532,-5.5708,-5.602,-5.6079,-5.604,-5.6016,-5.6333,-5.6602,-5.6612,-5.66,-5.662,-5.6612,-5.6618,-5.6606,-5.6606,-5.6606,-5.6606,-5.6586,-5.6553,-5.6484,-5.6478,-5.6492,-5.6495,-5.6485,-5.6485,-5.6483,-5.6483,-5.6446,-5.6388,-5.6368,-5.6214,-5.6141,-5.6168,-5.6004,-5.5884,-5.5902,-5.5866,-5.5866,-5.5941,-5.5977,-5.5995,-5.5996,-5.5999,-5.5981,-5.5962,-5.5924,-5.5885,-5.5865,-5.5865,-5.5865,-5.5846,-5.5846,-5.5846,-4.7913,-4.8972,-4.9885,-5.0666,-5.1308,-5.1387,-5.1387,-5.1387,-5.1387,-5.1387,-5.1387,-5.1387,-5.1387,-5.1387,-5.1387,-5.1387,-5.1387,-5.1387,-5.1385,-5.1391,-5.1307,-5.1301,-5.1367,-5.1211,-5.1159,-5.123,-5.1103,-5.1042,-5.1008,-5.095,-5.094,-5.094,-5.0995,-5.1464,-5.2368,-5.2695,-5.3226,-5.3922,-5.4974,-5.5868,-5.6235,-5.5264,-5.4612,-5.4606,-5.4607,-5.4645,-5.4681,-5.4704,-5.4713,-5.4713,-5.4732,-5.4713,-5.4713,-5.4679,-5.4879,-5.5431,-5.6032,-5.6426,-5.6602,-5.6606,-5.6606,-5.6606,-5.6606,-5.6606,-5.6602,-5.6567,-5.6515,-5.6398,-5.6474,-5.6517,-5.6507,-5.6542,-5.6562,-5.6561,-5.6568,-5.6606,-5.6606,-5.6606,-5.6606,-5.6606,-5.6553,-5.6497,-5.6498,-5.6488,-5.6503,-5.6483,-5.6483,-5.6455,-5.6446,-5.6359,-5.6308,-5.6267,-5.6168,-5.616,-5.6207,-5.6067,-5.6007,-5.6007,-5.594,-5.5904,-5.5977,-5.5996,-5.5996,-5.5961,-5.5962,-5.5943,-5.5885,-5.5846,-5.5826,-5.5787,-5.5766,-5.5785,-5.5785,-5.5785,-5.5745,-4.8159,-4.9726,-5.0712,-5.1191,-5.1387,-5.1387,-5.1387,-5.1387,-5.1387,-5.1387,-5.1387,-5.1387,-5.1387,-5.1387,-5.1387,-5.1387,-5.1387,-5.1387,-5.1387,-5.1387,-5.1381,-5.1391,-5.1394,-5.139,-5.1367,-5.1338,-5.1245,-5.1123,-5.1008,-5.1008,-5.0996,-5.0996,-5.0989,-5.1411,-5.2318,-5.3172,-5.371,-5.4205,-5.557,-5.6433,-5.6488,-5.6375,-5.6264,-5.6224,-5.6341,-5.6265,-5.6309,-5.643,-5.643,-5.6469,-5.6372,-5.6411,-5.6426,-5.6237,-5.6182,-5.63,-5.6485,-5.6602,-5.6606,-5.6606,-5.6606,-5.6606,-5.6602,-5.6602,-5.6572,-5.6476,-5.6398,-5.6406,-5.6335,-5.6323,-5.6327,-5.6445,-5.6479,-5.646,-5.6536,-5.661,-5.6606,-5.6606,-5.6606,-5.6602,-5.6553,-5.6497,-5.6484,-5.65,-5.6492,-5.6483,-5.6483,-5.6455,-5.6349,-5.6308,-5.6267,-5.6207,-5.616,-5.6102,-5.6083,-5.604,-5.601,-5.5993,-5.5993,-5.5977,-5.5998,-5.5999,-5.5962,-5.5905,-5.5885,-5.5846,-5.5806,-5.5766,-5.5724,-5.5703,-5.5703,-5.5703,-5.5682,-5.564,-5.5618,-4.901,-5.0592,-5.1035,-5.1249,-5.1346,-5.1369,-5.1387,-5.1387,-5.1387,-5.1387,-5.1387,-5.1387,-5.1387,-5.1387,-5.1387,-5.1387,-5.1387,-5.1387,-5.1387,-5.1387,-5.1402,-5.1396,-5.1391,-5.1402,-5.1338,-5.1284,-5.1218,-5.1094,-5.0966,-5.0952,-5.0926,-5.0935,-5.0889,-5.1592,-5.2884,-5.3404,-5.4181,-5.5485,-5.6161,-5.6398,-5.6492,-5.6492,-5.6488,-5.6485,-5.6484,-5.6495,-5.6489,-5.6527,-5.6566,-5.6606,-5.6606,-5.6606,-5.6597,-5.6533,-5.6485,-5.6537,-5.6567,-5.6618,-5.6606,-5.6606,-5.6606,-5.6602,-5.6511,-5.6496,-5.6461,-5.6386,-5.631,-5.6276,-5.6233,-5.6191,-5.617,-5.6348,-5.6508,-5.6542,-5.6568,-5.6606,-5.6606,-5.6606,-5.6606,-5.6602,-5.6548,-5.6485,-5.6491,-5.6488,-5.6483,-5.6483,-5.6483,-5.6446,-5.6338,-5.6275,-5.6207,-5.616,-5.6071,-5.6043,-5.6043,-5.6026,-5.6012,-5.5995,-5.5996,-5.5998,-5.5999,-5.5943,-5.5905,-5.5846,-5.5787,-5.5862,-5.5861,-5.5895,-5.5833,-5.5887,-5.5868,-5.6025,-5.5573,-5.5942,-5.5842,-4.9958,-5.101,-5.115,-5.121,-5.1268,-5.134,-5.1367,-5.1367,-5.1387,-5.1387,-5.1387,-5.1382,-5.1382,-5.1387,-5.1367,-5.1377,-5.1367,-5.1387,-5.1387,-5.1387,-5.14,-5.1391,-5.1391,-5.1402,-5.1327,-5.1203,-5.1133,-5.1011,-5.0848,-5.0835,-5.0835,-5.0818,-5.0776,-5.1645,-5.3213,-5.349,-5.4394,-5.5874,-5.6278,-5.6398,-5.6492,-5.6488,-5.6488,-5.648,-5.6491,-5.6488,-5.6495,-5.6515,-5.6549,-5.6591,-5.661,-5.6575,-5.6532,-5.6581,-5.6583,-5.6553,-5.6577,-5.6582,-5.6553,-5.6538,-5.6523,-5.6509,-5.6426,-5.636,-5.6362,-5.6325,-5.6253,-5.6214,-5.6147,-5.6109,-5.6147,-5.63,-5.646,-5.651,-5.6539,-5.6566,-5.6591,-5.6606,-5.6602,-5.6597,-5.6542,-5.6524,-5.653,-5.6527,-5.6492,-5.6483,-5.6455,-5.6388,-5.6286,-5.6207,-5.6146,-5.6091,-5.6062,-5.6012,-5.6014,-5.5996,-5.5996,-5.5998,-5.596,-5.5981,-5.5962,-5.5905,-5.5846,-5.5787,-5.5803,-5.5898,-5.5972,-5.6003,-5.6134,-5.6264,-5.6678,-5.7033,-5.6736,-5.6514,-5.6437,-5.0945,-5.1091,-5.1093,-5.1142,-5.1217,-5.1277,-5.1289,-5.1308,-5.1367,-5.1367,-5.1357,-5.1337,-5.1351,-5.1367,-5.1328,-5.1308,-5.1311,-5.138,-5.1387,-5.1365,-5.1385,-5.1386,-5.1362,-5.1367,-5.1297,-5.117,-5.0972,-5.0841,-5.0721,-5.0702,-5.0702,-5.0702,-5.0739,-5.1665,-5.3312,-5.3581,-5.4225,-5.5458,-5.6184,-5.6483,-5.6496,-5.6485,-5.6485,-5.6496,-5.6489,-5.6484,-5.6499,-5.6556,-5.6575,-5.661,-5.6602,-5.6534,-5.6476,-5.6549,-5.6547,-5.6482,-5.6514,-5.6528,-5.6418,-5.6407,-5.6381,-5.6355,-5.6304,-5.6295,-5.6291,-5.6236,-5.6181,-5.6164,-5.6089,-5.6051,-5.6167,-5.6261,-5.6329,-5.6328,-5.6456,-5.6541,-5.6582,-5.6606,-5.6602,-5.6572,-5.655,-5.6517,-5.6554,-5.6539,-5.6483,-5.6455,-5.6388,-5.6297,-5.6226,-5.6141,-5.6071,-5.6026,-5.6012,-5.5995,-5.5998,-5.5999,-5.5999,-5.5981,-5.5924,-5.5905,-5.5846,-5.5826,-5.5806,-5.5765,-5.6049,-5.6162,-5.6502,-5.6633,-5.7136,-5.7389,-5.7783,-5.7927,-5.7692,-5.7418,-5.7271,-5.0983,-5.108,-5.1083,-5.1139,-5.1205,-5.1233,-5.1219,-5.1244,-5.1269,-5.1269,-5.1269,-5.1274,-5.131,-5.1323,-5.134,-5.1361,-5.1377,-5.1385,-5.1364,-5.1297,-5.131,-5.13,-5.123,-5.123,-5.1161,-5.0985,-5.0822,-5.074,-5.0702,-5.0702,-5.072,-5.0839,-5.1312,-5.2196,-5.3406,-5.4022,-5.4885,-5.5874,-5.622,-5.6398,-5.6472,-5.6485,-5.6494,-5.6493,-5.6493,-5.6484,-5.6495,-5.6522,-5.6539,-5.661,-5.661,-5.6588,-5.6539,-5.6561,-5.655,-5.6504,-5.6509,-5.6464,-5.6368,-5.6333,-5.6317,-5.6301,-5.6253,-5.6242,-5.6225,-5.6147,-5.607,-5.607,-5.6031,-5.6051,-5.6184,-5.6233,-5.6278,-5.6363,-5.6484,-5.6558,-5.6543,-5.6543,-5.6529,-5.6533,-5.6511,-5.6498,-5.6515,-5.65,-5.6455,-5.6388,-5.6319,-5.6255,-5.6174,-5.6117,-5.6071,-5.6029,-5.6012,-5.5977,-5.598,-5.5943,-5.5905,-5.5905,-5.5865,-5.5826,-5.5806,-5.5766,-5.5724,-5.5953,-5.6217,-5.6595,-5.6956,-5.742,-5.7943,-5.8229,-5.8392,-5.8432,-5.8394,-5.8353,-5.8327,-5.0945,-5.1022,-5.1022,-5.1061,-5.1099,-5.1138,-5.1164,-5.1159,-5.1189,-5.1208,-5.1201,-5.1211,-5.1264,-5.1295,-5.1318,-5.1347,-5.1356,-5.1366,-5.1328,-5.1237,-5.1295,-5.1259,-5.1139,-5.1122,-5.1103,-5.0998,-5.0883,-5.0812,-5.0818,-5.0812,-5.0851,-5.1,-5.1676,-5.2574,-5.3553,-5.438,-5.5288,-5.6153,-5.6358,-5.6417,-5.6464,-5.6471,-5.646,-5.6493,-5.6465,-5.6493,-5.6532,-5.6538,-5.6558,-5.6598,-5.6618,-5.6579,-5.6562,-5.6556,-5.6513,-5.644,-5.6404,-5.6378,-5.6285,-5.6257,-5.6225,-5.6186,-5.6147,-5.6128,-5.6109,-5.6031,-5.6012,-5.6012,-5.6051,-5.6104,-5.6184,-5.6261,-5.6314,-5.6387,-5.6434,-5.6484,-5.6484,-5.6484,-5.6484,-5.6499,-5.6491,-5.6491,-5.6488,-5.6492,-5.6446,-5.6349,-5.6267,-5.6232,-5.6112,-5.6071,-5.6043,-5.6012,-5.6014,-5.5979,-5.5961,-5.5905,-5.5846,-5.5806,-5.5785,-5.5785,-5.5745,-5.5744,-5.5722,-5.6236,-5.6575,-5.7292,-5.7728,-5.8265,-5.8777,-5.889,-5.9126,-5.9495,-5.9706,-5.9669,-5.9531,-5.0906,-5.0906,-5.0906,-5.0925,-5.0945,-5.1041,-5.1076,-5.1115,-5.1134,-5.1188,-5.1169,-5.1155,-5.119,-5.1254,-5.1269,-5.1288,-5.1316,-5.1307,-5.1303,-5.1284,-5.1331,-5.1317,-5.1178,-5.1089,-5.1053,-5.1113,-5.102,-5.0981,-5.0948,-5.0971,-5.1043,-5.1263,-5.2025,-5.2822,-5.3864,-5.4611,-5.5549,-5.6347,-5.6483,-5.6483,-5.6492,-5.6457,-5.6452,-5.6488,-5.6461,-5.6474,-5.6579,-5.6602,-5.6591,-5.6597,-5.6591,-5.6556,-5.6509,-5.6491,-5.6412,-5.6317,-5.6306,-5.6259,-5.6203,-5.6164,-5.6128,-5.6031,-5.6031,-5.6012,-5.6031,-5.6043,-5.604,-5.604,-5.6133,-5.6214,-5.6233,-5.6298,-5.6383,-5.6367,-5.6355,-5.6377,-5.6464,-5.6484,-5.6484,-5.6494,-5.6478,-5.6491,-5.6492,-5.6483,-5.6417,-5.6328,-5.6232,-5.6154,-5.6102,-5.6024,-5.601,-5.6014,-5.5998,-5.5942,-5.5924,-5.5866,-5.5787,-5.5766,-5.5724,-5.5744,-5.5838,-5.5895,-5.5986,-5.6456,-5.7177,-5.7889,-5.8502,-5.9004,-5.9533,-5.9888,-6.0288,-6.08,-6.0807,-6.0558,-6.0286,-5.0906,-5.0906,-5.0906,-5.0906,-5.0906,-5.0945,-5.0964,-5.0964,-5.0983,-5.1061,-5.1119,-5.1177,-5.1222,-5.1314,-5.1342,-5.1364,-5.1364,-5.1366,-5.1377,-5.1357,-5.1371,-5.133,-5.1189,-5.1061,-5.1031,-5.1063,-5.1053,-5.0991,-5.1004,-5.1017,-5.1389,-5.2135,-5.283,-5.3766,-5.4772,-5.5599,-5.6173,-5.6453,-5.6492,-5.6483,-5.6492,-5.6485,-5.6491,-5.6485,-5.6521,-5.6568,-5.6598,-5.6619,-5.6562,-5.6511,-5.6531,-5.6469,-5.6391,-5.635,-5.633,-5.6257,-5.623,-5.6167,-5.6089,-5.607,-5.6031,-5.6012,-5.6046,-5.6059,-5.6082,-5.6121,-5.6149,-5.6173,-5.623,-5.63,-5.6329,-5.6328,-5.633,-5.6316,-5.6305,-5.6361,-5.646,-5.6442,-5.6445,-5.6489,-5.6491,-5.6488,-5.6464,-5.6417,-5.6338,-5.6232,-5.6168,-5.6117,-5.604,-5.601,-5.5995,-5.5998,-5.5999,-5.5924,-5.5866,-5.5807,-5.5766,-5.5724,-5.5703,-5.5722,-5.597,-5.6236,-5.6418,-5.6726,-5.7832,-5.8661,-5.9147,-5.962,-6.0163,-6.0553,-6.0642,-6.0779,-6.0905,-6.077,-6.0632,-5.0906,-5.0906,-5.0906,-5.0906,-5.0906,-5.0906,-5.0925,-5.1003,-5.0983,-5.1061,-5.1149,-5.1166,-5.1236,-5.1315,-5.1346,-5.1375,-5.1386,-5.1384,-5.1391,-5.1398,-5.1382,-5.1347,-5.1258,-5.1131,-5.1103,-5.1159,-5.1178,-5.1159,-5.1178,-5.1171,-5.1667,-5.2503,-5.338,-5.4266,-5.513,-5.6054,-5.6483,-5.6483,-5.6483,-5.6464,-5.6426,-5.6441,-5.6457,-5.6466,-5.6533,-5.6586,-5.6599,-5.6619,-5.6597,-5.6554,-5.6516,-5.6453,-5.6349,-5.6317,-5.6265,-5.6214,-5.6207,-5.6172,-5.6102,-5.6091,-5.6101,-5.6082,-5.6133,-5.6141,-5.616,-5.6185,-5.6211,-5.6211,-5.6288,-5.6336,-5.6329,-5.6327,-5.6324,-5.6324,-5.6328,-5.6367,-5.6484,-5.6464,-5.6461,-5.6475,-5.6496,-5.6461,-5.6426,-5.6349,-5.6275,-5.6181,-5.6146,-5.6091,-5.6029,-5.6014,-5.5996,-5.5999,-5.5962,-5.5866,-5.5826,-5.5766,-5.5724,-5.5682,-5.581,-5.581,-5.631,-5.6687,-5.7114,-5.7596,-5.854,-5.9297,-5.966,-5.9993,-6.0257,-6.0508,-6.058,-6.0631,-6.0721,-6.0806,-6.0696,-5.0906,-5.0906,-5.0906,-5.0906,-5.0906,-5.0906,-5.0983,-5.108,-5.108,-5.1138,-5.1184,-5.1208,-5.1256,-5.1305,-5.1336,-5.1343,-5.1386,-5.1396,-5.1382,-5.1394,-5.1398,-5.1371,-5.1367,-5.1265,-5.1265,-5.1338,-5.139,-5.1367,-5.1411,-5.1453,-5.1993,-5.2879,-5.3689,-5.4507,-5.5431,-5.6171,-5.6444,-5.6483,-5.6455,-5.6426,-5.6388,-5.6397,-5.6437,-5.6471,-5.6504,-5.6554,-5.6602,-5.6607,-5.6598,-5.661,-5.653,-5.6446,-5.6386,-5.6321,-5.6278,-5.6228,-5.6232,-5.6207,-5.6208,-5.6201,-5.6209,-5.6199,-5.6223,-5.6232,-5.625,-5.6252,-5.6242,-5.6251,-5.6327,-5.6386,-5.6374,-5.6366,-5.6358,-5.6347,-5.6356,-5.6421,-5.6483,-5.6499,-5.6488,-5.6491,-5.6488,-5.6416,-5.6349,-5.6286,-5.6251,-5.6165,-5.6106,-5.6059,-5.6012,-5.5996,-5.598,-5.5981,-5.5905,-5.5806,-5.5766,-5.5724,-5.5682,-5.5657,-5.5896,-5.6122,-5.6832,-5.7325,-5.7883,-5.8494,-5.9166,-5.9645,-5.9998,-6.0237,-6.0332,-6.0313,-6.0311,-6.0391,-6.0463,-6.052,-6.0444,-5.0906,-5.0906,-5.0906,-5.0906,-5.0906,-5.0906,-5.0983,-5.1099,-5.108,-5.1169,-5.1246,-5.128,-5.1317,-5.1367,-5.1367,-5.1381,-5.1386,-5.1398,-5.1389,-5.1394,-5.1394,-5.1394,-5.1394,-5.1357,-5.1367,-5.1394,-5.1394,-5.1414,-5.1527,-5.2069,-5.2779,-5.3619,-5.4418,-5.5333,-5.6113,-5.6308,-5.6483,-5.6483,-5.6388,-5.6388,-5.6427,-5.6414,-5.6446,-5.6542,-5.6562,-5.6586,-5.661,-5.661,-5.6606,-5.6585,-5.65,-5.6411,-5.6368,-5.6313,-5.6305,-5.6293,-5.6274,-5.6266,-5.6266,-5.6281,-5.628,-5.6281,-5.631,-5.6368,-5.6354,-5.6355,-5.6361,-5.6372,-5.6422,-5.6454,-5.6434,-5.6409,-5.6395,-5.6383,-5.6386,-5.6434,-5.648,-5.645,-5.6436,-5.643,-5.6388,-5.6338,-5.6309,-5.6187,-5.6165,-5.616,-5.6094,-5.6026,-5.5995,-5.5998,-5.5961,-5.5943,-5.5865,-5.5785,-5.5782,-5.5835,-5.5964,-5.603,-5.6266,-5.6734,-5.7424,-5.7819,-5.836,-5.8948,-5.9617,-5.9979,-6.0148,-6.0137,-6.0129,-6.0099,-6.0068,-6.014,-6.0208,-6.0256,-6.0321,-5.0906,-5.0906,-5.0906,-5.0906,-5.0906,-5.0906,-5.1003,-5.113,-5.114,-5.1219,-5.1315,-5.1343,-5.1372,-5.1387,-5.1387,-5.1386,-5.14,-5.1398,-5.1391,-5.1398,-5.1394,-5.1394,-5.1394,-5.1394,-5.1394,-5.1394,-5.139,-5.1566,-5.1991,-5.2453,-5.3221,-5.4437,-5.5002,-5.5587,-5.6366,-5.6483,-5.6474,-5.6388,-5.6349,-5.6328,-5.6353,-5.6398,-5.6457,-5.6587,-5.6605,-5.6605,-5.661,-5.6606,-5.6606,-5.6595,-5.6536,-5.6464,-5.6406,-5.6348,-5.6363,-5.638,-5.6363,-5.6367,-5.6367,-5.6366,-5.634,-5.6308,-5.6335,-5.6361,-5.6377,-5.6406,-5.6422,-5.6434,-5.6463,-5.6484,-5.6464,-5.6426,-5.6406,-5.6419,-5.6438,-5.6458,-5.6457,-5.6439,-5.6407,-5.6387,-5.6319,-5.6302,-5.6239,-5.6136,-5.6071,-5.6078,-5.6062,-5.6012,-5.5979,-5.5981,-5.5904,-5.5846,-5.5806,-5.5763,-5.5778,-5.5945,-5.628,-5.6534,-5.6901,-5.7545,-5.8303,-5.8563,-5.8776,-5.9388,-5.996,-5.9977,-6.0106,-6.0026,-5.9982,-5.9982,-5.9994,-5.9994,-6.0026,-6.0068,-6.014,-5.0937,-5.0921,-5.0921,-5.0925,-5.0945,-5.0945,-5.1041,-5.1203,-5.1217,-5.1291,-5.1367,-5.1387,-5.1387,-5.1387,-5.1387,-5.1398,-5.1389,-5.1389,-5.1385,-5.1398,-5.1394,-5.1394,-5.1394,-5.1394,-5.1531,-5.155,-5.1698,-5.203,-5.245,-5.2974,-5.3915,-5.5041,-5.5392,-5.584,-5.6366,-5.6474,-5.6446,-5.6378,-5.6336,-5.6314,-5.6336,-5.6407,-5.6485,-5.6588,-5.6607,-5.6614,-5.6606,-5.6606,-5.6606,-5.6606,-5.6606,-5.6585,-5.6522,-5.6461,-5.6456,-5.6503,-5.6461,-5.6461,-5.6484,-5.646,-5.6419,-5.6348,-5.6352,-5.637,-5.6415,-5.6432,-5.6439,-5.6444,-5.6464,-5.6465,-5.6422,-5.6422,-5.6409,-5.6391,-5.6446,-5.6433,-5.6398,-5.6426,-5.6369,-5.6278,-5.6232,-5.622,-5.617,-5.6094,-5.6043,-5.601,-5.6012,-5.5977,-5.5961,-5.5924,-5.5866,-5.5807,-5.5766,-5.6088,-5.6179,-5.6256,-5.6548,-5.7155,-5.7557,-5.8219,-5.8967,-5.9178,-5.9378,-5.975,-6.0129,-6.0076,-6.0045,-5.9982,-5.995,-5.9937,-5.9918,-5.995,-5.9918,-5.9904,-5.9994,-5.103,-5.0995,-5.0976,-5.1005,-5.1061,-5.1061,-5.1157,-5.1273,-5.1271,-5.1326,-5.1387,-5.1387,-5.1387,-5.1387,-5.1394,-5.1402,-5.1398,-5.1402,-5.1398,-5.1394,-5.1394,-5.1394,-5.1394,-5.1414,-5.1765,-5.2331,-5.2494,-5.2601,-5.3103,-5.3995,-5.4746,-5.5295,-5.5879,-5.6366,-5.6368,-5.6407,-5.6407,-5.6417,-5.6364,-5.6372,-5.645,-5.6489,-5.6494,-5.6597,-5.661,-5.6595,-5.6586,-5.6602,-5.6606,-5.6606,-5.6606,-5.6591,-5.6559,-5.6549,-5.6546,-5.6566,-5.6568,-5.6551,-5.6546,-5.6546,-5.6549,-5.6551,-5.6517,-5.649,-5.6493,-5.6481,-5.6464,-5.6442,-5.6437,-5.6451,-5.6484,-5.6458,-5.6425,-5.6366,-5.632,-5.6308,-5.6263,-5.6251,-5.6258,-5.6141,-5.6146,-5.6136,-5.6094,-5.6065,-5.6012,-5.5977,-5.5979,-5.5942,-5.5904,-5.5866,-5.5807,-5.5766,-5.5745,-5.6201,-5.6614,-5.6721,-5.699,-5.7793,-5.8295,-5.8719,-5.9331,-5.9682,-6.0015,-6.0099,-6.0076,-5.9994,-5.995,-5.9918,-5.9918,-5.9904,-5.9904,-5.9904,-5.9885,-5.9853,-5.9786,-5.1069,-5.1004,-5.1004,-5.1039,-5.108,-5.1099,-5.1177,-5.1293,-5.1308,-5.1327,-5.1387,-5.1387,-5.1386,-5.1398,-5.1385,-5.1394,-5.1394,-5.1394,-5.1394,-5.1394,-5.1394,-5.1394,-5.1414,-5.1414,-5.1937,-5.2616,-5.3069,-5.3565,-5.3969,-5.4702,-5.5439,-5.5899,-5.6327,-5.6455,-5.6417,-5.6417,-5.6397,-5.6414,-5.6388,-5.6425,-5.6535,-5.6537,-5.6534,-5.6516,-5.6576,-5.6577,-5.6524,-5.6577,-5.6602,-5.6602,-5.6563,-5.6558,-5.6533,-5.6548,-5.6572,-5.6558,-5.6558,-5.6558,-5.6558,-5.6558,-5.6528,-5.6504,-5.6504,-5.6484,-5.6465,-5.6434,-5.6451,-5.6454,-5.646,-5.6464,-5.6484,-5.6425,-5.6369,-5.6299,-5.6267,-5.6207,-5.6174,-5.616,-5.6102,-5.6024,-5.6091,-5.6075,-5.6031,-5.5979,-5.596,-5.5942,-5.5943,-5.5885,-5.5846,-5.5807,-5.5785,-5.5955,-5.6008,-5.6537,-5.7119,-5.75,-5.7695,-5.8421,-5.8956,-5.9397,-5.9597,-5.9889,-6.0011,-6.0038,-5.9994,-5.9931,-5.9918,-5.9918,-5.9904,-5.9904,-5.9885,-5.9853,-5.9853,-5.982,-5.9719,-5.1093,-5.1017,-5.1017,-5.1053,-5.1095,-5.1116,-5.1186,-5.1289,-5.1314,-5.1347,-5.1387,-5.1387,-5.1402,-5.1382,-5.1394,-5.1394,-5.1394,-5.1394,-5.1394,-5.1394,-5.1394,-5.1394,-5.1433,-5.1703,-5.2186,-5.3133,-5.3832,-5.4528,-5.4918,-5.5416,-5.5887,-5.621,-5.6444,-5.6417,-5.6358,-5.6347,-5.6341,-5.6338,-5.6329,-5.6398,-5.6453,-5.6483,-5.6475,-5.6385,-5.6475,-5.6498,-5.6405,-5.653,-5.6582,-5.6558,-5.6503,-5.6446,-5.6439,-5.6418,-5.641,-5.6459,-5.6472,-5.6484,-5.6503,-5.6503,-5.6494,-5.6474,-5.6429,-5.6429,-5.6419,-5.6426,-5.6416,-5.6452,-5.6433,-5.6405,-5.6378,-5.6349,-5.6286,-5.6232,-5.6181,-5.6112,-5.6036,-5.6007,-5.5956,-5.5958,-5.6026,-5.6031,-5.5981,-5.5961,-5.5923,-5.5847,-5.5847,-5.5846,-5.5787,-5.5785,-5.5842,-5.6143,-5.6441,-5.6947,-5.7583,-5.8413,-5.8708,-5.9225,-5.9607,-5.9912,-5.9957,-6.0068,-6.0045,-6.0013,-5.995,-5.9918,-5.9904,-5.9904,-5.9904,-5.9885,-5.9853,-5.982,-5.9753,-5.9631,-5.9491,-5.1191,-5.1093,-5.1093,-5.1095,-5.1106,-5.1147,-5.1226,-5.1294,-5.1349,-5.1382,-5.1387,-5.1387,-5.1402,-5.1402,-5.1394,-5.1394,-5.1394,-5.1394,-5.1394,-5.139,-5.1394,-5.1453,-5.1566,-5.224,-5.2938,-5.3766,-5.458,-5.5028,-5.5438,-5.5993,-5.6288,-5.6464,-5.6388,-5.6308,-5.6283,-5.6265,-5.62,-5.6251,-5.626,-5.6247,-5.6239,-5.6265,-5.6272,-5.6253,-5.6294,-5.6308,-5.63,-5.6425,-5.6523,-5.6472,-5.6383,-5.63,-5.6222,-5.6129,-5.6077,-5.6161,-5.631,-5.6485,-5.6452,-5.6425,-5.6418,-5.6393,-5.6407,-5.6465,-5.6371,-5.6309,-5.6281,-5.632,-5.6255,-5.6219,-5.62,-5.6207,-5.6168,-5.6097,-5.6004,-5.5901,-5.5827,-5.573,-5.5708,-5.5688,-5.5689,-5.5845,-5.5921,-5.5904,-5.5866,-5.5808,-5.5748,-5.5726,-5.5821,-5.5876,-5.6278,-5.6668,-5.7158,-5.7659,-5.81,-5.8907,-5.9387,-5.9922,-6.0036,-6.0216,-6.0106,-6.0045,-5.9982,-5.995,-5.9937,-5.9904,-5.9904,-5.9904,-5.9904,-5.9853,-5.9786,-5.9719,-5.965,-5.9491,-5.929,-5.1181,-5.1086,-5.1056,-5.1067,-5.1095,-5.1101,-5.1159,-5.1279,-5.1286,-5.1325,-5.1384,-5.1384,-5.1396,-5.1398,-5.1394,-5.139,-5.1386,-5.139,-5.1386,-5.1401,-5.1425,-5.1659,-5.2118,-5.2562,-5.3303,-5.447,-5.5041,-5.5494,-5.5884,-5.6207,-5.6483,-5.6396,-5.632,-5.6255,-5.6214,-5.6204,-5.6223,-5.6243,-5.6218,-5.6214,-5.6217,-5.6214,-5.6142,-5.6019,-5.6116,-5.6122,-5.609,-5.6169,-5.6251,-5.62,-5.6129,-5.6051,-5.6044,-5.599,-5.5943,-5.5962,-5.6035,-5.6117,-5.6122,-5.615,-5.6158,-5.6122,-5.6103,-5.6052,-5.6044,-5.602,-5.599,-5.5955,-5.5943,-5.5927,-5.591,-5.5896,-5.5843,-5.5789,-5.569,-5.5647,-5.5558,-5.547,-5.5404,-5.5399,-5.5389,-5.5552,-5.5634,-5.5581,-5.5423,-5.5216,-5.5298,-5.5461,-5.5796,-5.6168,-5.674,-5.7435,-5.7966,-5.8489,-5.8888,-5.9444,-5.976,-6.0093,-5.9985,-6.0076,-6.0026,-5.9963,-5.995,-5.9918,-5.9937,-5.9904,-5.9904,-5.9885,-5.9885,-5.9786,-5.9685,-5.9562,-5.9455,-5.9253,-5.9063,-5.1117,-5.1069,-5.1017,-5.102,-5.1041,-5.1015,-5.1082,-5.12,-5.1196,-5.1242,-5.1333,-5.1374,-5.1389,-5.1394,-5.139,-5.1386,-5.1401,-5.1381,-5.1391,-5.1391,-5.1489,-5.1879,-5.2414,-5.2882,-5.3793,-5.5209,-5.5514,-5.5876,-5.6238,-5.6483,-5.6444,-5.6308,-5.6299,-5.6207,-5.6151,-5.6145,-5.6188,-5.6126,-5.6096,-5.6059,-5.6077,-5.6057,-5.5962,-5.5924,-5.5956,-5.5955,-5.5857,-5.5936,-5.6015,-5.5966,-5.5907,-5.5838,-5.5805,-5.5712,-5.5652,-5.5631,-5.5633,-5.5653,-5.5729,-5.5777,-5.5794,-5.578,-5.5764,-5.5813,-5.5748,-5.5692,-5.5673,-5.5712,-5.5692,-5.5652,-5.5591,-5.5547,-5.5484,-5.5393,-5.5312,-5.5306,-5.525,-5.5126,-5.5053,-5.5045,-5.5038,-5.517,-5.5199,-5.5142,-5.4962,-5.4705,-5.48,-5.5149,-5.5744,-5.6422,-5.716,-5.7881,-5.8243,-5.8826,-5.9474,-5.9874,-6.0169,-6.0137,-5.9994,-5.9963,-5.9931,-5.9899,-5.9918,-5.9904,-5.9904,-5.9904,-5.9904,-5.9885,-5.9834,-5.9719,-5.9581,-5.9419,-5.9272,-5.9063,-5.8924,-5.1017,-5.1004,-5.1004,-5.0947,-5.0929,-5.0977,-5.0999,-5.1048,-5.1093,-5.1164,-5.1258,-5.132,-5.1398,-5.139,-5.1401,-5.1396,-5.1396,-5.1386,-5.1394,-5.1394,-5.1472,-5.2018,-5.2734,-5.3546,-5.4312,-5.5272,-5.5812,-5.6241,-5.6435,-5.6398,-5.6368,-5.6299,-5.6197,-5.6146,-5.6062,-5.6014,-5.6016,-5.5962,-5.5924,-5.5844,-5.5822,-5.5785,-5.5744,-5.5745,-5.577,-5.5805,-5.5824,-5.5838,-5.5799,-5.5727,-5.5575,-5.5508,-5.5397,-5.5317,-5.5237,-5.5186,-5.516,-5.516,-5.5205,-5.5476,-5.5689,-5.5691,-5.5654,-5.5594,-5.5551,-5.559,-5.5588,-5.55,-5.5384,-5.5312,-5.5262,-5.5218,-5.5096,-5.5015,-5.4895,-5.4857,-5.4817,-5.4746,-5.4654,-5.4673,-5.4723,-5.4797,-5.4848,-5.4802,-5.5069,-5.4839,-5.5107,-5.5454,-5.6116,-5.6796,-5.7548,-5.8142,-5.8382,-5.8976,-5.9881,-6.0106,-5.9828,-5.9711,-5.9643,-5.973,-5.9834,-5.9853,-5.9767,-5.9904,-5.9904,-5.9904,-5.9885,-5.982,-5.9734,-5.9616,-5.9455,-5.9272,-5.9063,-5.8884,-5.8762,-5.0976,-5.0932,-5.0941,-5.0909,-5.0897,-5.0866,-5.0902,-5.0945,-5.1005,-5.115,-5.1312,-5.1375,-5.1394,-5.139,-5.1401,-5.1391,-5.1386,-5.14,-5.1362,-5.157,-5.1863,-5.2604,-5.3416,-5.4212,-5.51,-5.5716,-5.6181,-5.6236,-5.6122,-5.6155,-5.6044,-5.5967,-5.5993,-5.5896,-5.5808,-5.5787,-5.5787,-5.5766,-5.5745,-5.5705,-5.5531,-5.564,-5.5618,-5.5461,-5.5621,-5.5647,-5.5585,-5.5397,-5.5246,-5.5084,-5.4912,-5.4876,-5.4914,-5.4809,-5.4769,-5.4708,-5.4697,-5.4685,-5.4746,-5.5065,-5.5298,-5.5262,-5.5224,-5.5212,-5.5174,-5.508,-5.4998,-5.4962,-5.4876,-5.4758,-5.4735,-5.4704,-5.4673,-5.4591,-5.4476,-5.4397,-5.433,-5.4246,-5.4415,-5.4453,-5.4404,-5.4408,-5.4447,-5.4484,-5.482,-5.5081,-5.5413,-5.5801,-5.6439,-5.7075,-5.7804,-5.829,-5.8514,-5.8681,-5.9511,-5.9502,-5.9342,-5.9306,-5.9289,-5.9344,-5.947,-5.947,-5.947,-5.9681,-5.9853,-5.9801,-5.9734,-5.97,-5.9597,-5.9455,-5.9272,-5.9063,-5.8865,-5.8679,-5.8638,-5.0932,-5.089,-5.0897,-5.0899,-5.0899,-5.0793,-5.0808,-5.0832,-5.0894,-5.1027,-5.1238,-5.1252,-5.1316,-5.1341,-5.1349,-5.1349,-5.1362,-5.1362,-5.1342,-5.1581,-5.2091,-5.2979,-5.3818,-5.4577,-5.5228,-5.5927,-5.6073,-5.5986,-5.5916,-5.5857,-5.5757,-5.57,-5.5694,-5.5609,-5.5595,-5.5542,-5.5554,-5.5489,-5.5489,-5.5423,-5.5217,-5.5231,-5.5282,-5.5072,-5.5179,-5.5115,-5.4988,-5.481,-5.4583,-5.4428,-5.4251,-5.4202,-5.4255,-5.4288,-5.4307,-5.424,-5.4206,-5.4156,-5.4259,-5.4673,-5.496,-5.4909,-5.4723,-5.4642,-5.4546,-5.4364,-5.4187,-5.4187,-5.4104,-5.4054,-5.4054,-5.3925,-5.3888,-5.3758,-5.3739,-5.3682,-5.3682,-5.3641,-5.3978,-5.4241,-5.4237,-5.438,-5.509,-5.5384,-5.6054,-5.6206,-5.6209,-5.6434,-5.675,-5.7348,-5.7949,-5.8364,-5.8609,-5.8742,-5.8932,-5.8932,-5.8932,-5.893,-5.8891,-5.8891,-5.8988,-5.9008,-5.9178,-5.9434,-5.9559,-5.9613,-5.947,-5.9252,-5.9215,-5.9215,-5.9024,-5.8784,-5.8803,-5.8638,-5.8553,-5.0906,-5.089,-5.0897,-5.0899,-5.0883,-5.0757,-5.0701,-5.0738,-5.0757,-5.0839,-5.0992,-5.1039,-5.1113,-5.1198,-5.1237,-5.1237,-5.1234,-5.1245,-5.1237,-5.1405,-5.22,-5.2885,-5.3631,-5.4449,-5.53,-5.5741,-5.5861,-5.5824,-5.575,-5.5673,-5.5518,-5.5364,-5.533,-5.5339,-5.5455,-5.5427,-5.5295,-5.5134,-5.5053,-5.499,-5.4866,-5.4798,-5.476,-5.4671,-5.4652,-5.4614,-5.4446,-5.427,-5.4083,-5.3904,-5.3795,-5.374,-5.3795,-5.3795,-5.3777,-5.3758,-5.3626,-5.3549,-5.3567,-5.4416,-5.4622,-5.448,-5.4212,-5.4067,-5.3832,-5.3607,-5.3473,-5.355,-5.3413,-5.3311,-5.3189,-5.3106,-5.312,-5.3036,-5.3054,-5.3158,-5.3219,-5.3347,-5.375,-5.413,-5.4295,-5.4595,-5.5594,-5.6454,-5.7322,-5.7562,-5.7254,-5.7173,-5.7272,-5.7475,-5.8012,-5.8123,-5.8357,-5.8295,-5.8363,-5.8531,-5.8572,-5.8568,-5.8484,-5.84,-5.8526,-5.8673,-5.8872,-5.9178,-5.9178,-5.9084,-5.8912,-5.8694,-5.8669,-5.8624,-5.8661,-5.8553,-5.8553,-5.8449,-5.815,-5.0827,-5.0897,-5.0863,-5.0793,-5.0775,-5.0739,-5.0702,-5.0702,-5.081,-5.0942,-5.1061,-5.1133,-5.1123,-5.1132,-5.1113,-5.1081,-5.0996,-5.0959,-5.0966,-5.1179,-5.2327,-5.303,-5.3759,-5.468,-5.546,-5.5575,-5.559,-5.55,-5.5312,-5.5336,-5.5255,-5.5097,-5.4933,-5.4867,-5.4924,-5.4971,-5.4962,-5.4912,-5.4844,-5.4795,-5.4603,-5.4572,-5.4465,-5.4288,-5.4307,-5.4256,-5.4081,-5.3851,-5.3626,-5.3413,-5.3311,-5.3208,-5.3289,-5.333,-5.3308,-5.3308,-5.3226,-5.3176,-5.325,-5.3647,-5.387,-5.3739,-5.3644,-5.3512,-5.3434,-5.3234,-5.3111,-5.3046,-5.2914,-5.2846,-5.2882,-5.29,-5.2831,-5.267,-5.2717,-5.2908,-5.3053,-5.3271,-5.3608,-5.4012,-5.4243,-5.4953,-5.5814,-5.653,-5.7381,-5.7675,-5.7317,-5.7483,-5.7647,-5.7629,-5.7914,-5.7822,-5.7877,-5.7784,-5.7812,-5.8005,-5.7986,-5.7868,-5.784,-5.7766,-5.7959,-5.8252,-5.8424,-5.865,-5.8572,-5.8553,-5.8277,-5.8076,-5.7996,-5.8006,-5.7895,-5.7877,-5.7859,-5.7587,-5.7229,-5.0793,-5.0866,-5.0793,-5.0738,-5.0701,-5.0682,-5.0702,-5.0721,-5.0793,-5.0913,-5.0979,-5.0998,-5.0972,-5.0952,-5.094,-5.0933,-5.0801,-5.0816,-5.1161,-5.1354,-5.2582,-5.3317,-5.4091,-5.494,-5.533,-5.5427,-5.5331,-5.5243,-5.5102,-5.5038,-5.4952,-5.4806,-5.457,-5.438,-5.4375,-5.4468,-5.4635,-5.4576,-5.4538,-5.4434,-5.4303,-5.4177,-5.4067,-5.3923,-5.3867,-5.3846,-5.3684,-5.345,-5.318,-5.2907,-5.2751,-5.2654,-5.2813,-5.2857,-5.2857,-5.2919,-5.2761,-5.2681,-5.2589,-5.2635,-5.2766,-5.2722,-5.2877,-5.3004,-5.2877,-5.2634,-5.2544,-5.2445,-5.2435,-5.2397,-5.2369,-5.2387,-5.2383,-5.2186,-5.2449,-5.2691,-5.3056,-5.3289,-5.3695,-5.4078,-5.4506,-5.5233,-5.6046,-5.6577,-5.727,-5.7315,-5.7304,-5.754,-5.7755,-5.7792,-5.7697,-5.7649,-5.7534,-5.7516,-5.7468,-5.7419,-5.7351,-5.7239,-5.7289,-5.7388,-5.7498,-5.7822,-5.7959,-5.8068,-5.812,-5.8031,-5.7653,-5.7468,-5.7252,-5.7102,-5.6948,-5.6982,-5.7065,-5.6843,-5.6563,-5.0846,-5.0793,-5.072,-5.0701,-5.0682,-5.0683,-5.0683,-5.0683,-5.0702,-5.0721,-5.074,-5.0682,-5.0699,-5.0711,-5.0709,-5.0706,-5.0709,-5.0738,-5.1218,-5.1911,-5.2704,-5.3414,-5.4172,-5.4896,-5.5224,-5.521,-5.5121,-5.5094,-5.5,-5.479,-5.4701,-5.4453,-5.4112,-5.3866,-5.3832,-5.387,-5.4128,-5.4167,-5.4019,-5.3814,-5.3549,-5.3388,-5.3296,-5.3138,-5.3079,-5.2876,-5.2711,-5.2554,-5.2472,-5.2397,-5.2351,-5.2369,-5.2434,-5.2452,-5.2452,-5.234,-5.2114,-5.1951,-5.1651,-5.1683,-5.1786,-5.1897,-5.2149,-5.2242,-5.2232,-5.2108,-5.2012,-5.1933,-5.1871,-5.1693,-5.1612,-5.1686,-5.1706,-5.1918,-5.2235,-5.2602,-5.3018,-5.3408,-5.3858,-5.425,-5.4626,-5.5326,-5.6222,-5.6886,-5.6527,-5.6133,-5.6167,-5.668,-5.7007,-5.7534,-5.7486,-5.7504,-5.7388,-5.7239,-5.7188,-5.7188,-5.7188,-5.7188,-5.7156,-5.7239,-5.732,-5.7351,-5.7431,-5.7576,-5.7719,-5.7528,-5.7051,-5.6653,-5.6402,-5.6237,-5.6164,-5.6146,-5.6258,-5.6295,-5.6075,-5.0566,-5.0606,-5.0663,-5.0702,-5.0683,-5.0702,-5.0683,-5.0683,-5.0683,-5.0721,-5.0773,-5.0699,-5.0663,-5.0642,-5.0622,-5.0548,-5.0488,-5.0577,-5.1034,-5.1743,-5.2545,-5.3364,-5.4134,-5.479,-5.508,-5.5094,-5.5009,-5.4863,-5.4787,-5.4576,-5.4119,-5.3814,-5.3543,-5.3304,-5.3175,-5.3023,-5.334,-5.3553,-5.3373,-5.2973,-5.2601,-5.2372,-5.23,-5.2227,-5.2118,-5.187,-5.1682,-5.1589,-5.1525,-5.1347,-5.126,-5.126,-5.1209,-5.1105,-5.1052,-5.0964,-5.1087,-5.1226,-5.0716,-5.0947,-5.1175,-5.107,-5.1226,-5.1518,-5.1654,-5.1758,-5.1625,-5.1645,-5.1614,-5.1582,-5.1829,-5.1969,-5.2084,-5.2411,-5.2726,-5.3037,-5.3428,-5.3642,-5.4098,-5.4353,-5.4734,-5.4963,-5.5918,-5.5954,-5.5514,-5.4995,-5.4998,-5.5611,-5.6188,-5.6721,-5.7,-5.7018,-5.7138,-5.7036,-5.7138,-5.7138,-5.7188,-5.7188,-5.7105,-5.7054,-5.7087,-5.7069,-5.6984,-5.6966,-5.7051,-5.6793,-5.6274,-5.6032,-5.5975,-5.5689,-5.5555,-5.5537,-5.5519,-5.556,-5.5484,-5.0268,-5.023,-5.0298,-5.0402,-5.0504,-5.0523,-5.0523,-5.0504,-5.0643,-5.0721,-5.072,-5.0663,-5.0587,-5.0508,-5.0488,-5.0404,-5.0329,-5.0382,-5.0889,-5.191,-5.236,-5.3223,-5.4003,-5.4484,-5.4541,-5.4604,-5.4541,-5.4345,-5.4336,-5.4086,-5.3663,-5.3333,-5.297,-5.2799,-5.2654,-5.2409,-5.2286,-5.247,-5.2389,-5.1927,-5.1585,-5.1472,-5.1587,-5.1431,-5.1298,-5.1111,-5.0919,-5.0869,-5.0742,-5.0642,-5.0607,-5.0572,-5.0572,-5.0407,-5.0369,-5.0335,-5.0462,-5.048,-5.0167,-5.0314,-5.0404,-5.0384,-5.0363,-5.0631,-5.105,-5.1317,-5.1476,-5.1635,-5.167,-5.1758,-5.2179,-5.2544,-5.2827,-5.316,-5.3387,-5.3554,-5.3801,-5.4,-5.4205,-5.4471,-5.4586,-5.4606,-5.4818,-5.4772,-5.471,-5.4383,-5.44,-5.4909,-5.5419,-5.5833,-5.6166,-5.6239,-5.6582,-5.6758,-5.6863,-5.6915,-5.6915,-5.6915,-5.7003,-5.6899,-5.6881,-5.6724,-5.6599,-5.6402,-5.631,-5.6032,-5.5729,-5.5746,-5.5631,-5.5336,-5.5113,-5.5096,-5.5096,-5.4974,-5.4834,-4.9943,-4.9784,-4.9803,-4.9968,-5.0159,-5.0183,-5.0159,-5.0183,-5.0421,-5.0584,-5.0542,-5.0521,-5.0418,-5.0313,-5.0252,-5.0164,-5.0152,-5.0253,-5.0965,-5.2229,-5.2408,-5.3081,-5.38,-5.4032,-5.4137,-5.3888,-5.3777,-5.3832,-5.3608,-5.3402,-5.317,-5.2895,-5.2575,-5.2305,-5.2096,-5.1782,-5.1586,-5.1383,-5.1429,-5.1226,-5.0713,-5.0927,-5.1494,-5.1236,-5.1076,-5.0919,-5.0717,-5.0637,-5.0631,-5.0418,-5.0276,-5.0129,-4.9941,-4.9884,-4.9827,-4.9827,-4.9769,-4.9595,-4.9495,-4.9512,-4.9691,-4.9649,-4.9649,-5.0171,-5.0731,-5.0959,-5.1179,-5.1486,-5.1563,-5.1854,-5.2206,-5.25,-5.2797,-5.3298,-5.3662,-5.3869,-5.4146,-5.4264,-5.4322,-5.4436,-5.4402,-5.4431,-5.4522,-5.4603,-5.4218,-5.3871,-5.3905,-5.4374,-5.4579,-5.5009,-5.5308,-5.5502,-5.5904,-5.6184,-5.6184,-5.6276,-5.651,-5.6582,-5.6528,-5.6348,-5.5907,-5.5999,-5.6164,-5.5791,-5.5426,-5.5461,-5.5361,-5.5319,-5.5277,-5.5053,-5.4886,-5.4824,-5.47,-5.4575,-5.4575,-4.9693,-4.9655,-4.9749,-4.9838,-4.9891,-4.991,-4.9846,-4.9736,-4.9808,-5.0012,-5.0212,-5.0325,-5.0236,-4.9962,-4.9935,-4.9835,-4.9703,-5.0266,-5.1005,-5.1826,-5.232,-5.2956,-5.3826,-5.3777,-5.374,-5.3777,-5.3607,-5.3296,-5.3001,-5.2797,-5.2576,-5.2214,-5.2036,-5.1879,-5.1571,-5.128,-5.1017,-5.0729,-5.0515,-5.0449,-5.0062,-4.991,-5.0107,-5.002,-4.9881,-4.9798,-4.9615,-4.9411,-4.9324,-4.9212,-4.9057,-4.8855,-4.8652,-4.8714,-4.8606,-4.8543,-4.8821,-4.868,-4.8652,-4.8719,-4.9029,-4.9338,-4.9557,-5.0215,-5.0629,-5.0652,-5.084,-5.1253,-5.1559,-5.189,-5.2187,-5.2426,-5.2711,-5.3271,-5.3746,-5.4016,-5.4333,-5.4303,-5.4274,-5.436,-5.4278,-5.4216,-5.4339,-5.4156,-5.3802,-5.3634,-5.3567,-5.3717,-5.3766,-5.4076,-5.4596,-5.4905,-5.5325,-5.5543,-5.5543,-5.5583,-5.5794,-5.5605,-5.5432,-5.5238,-5.4982,-5.4999,-5.5017,-5.4695,-5.4447,-5.4562,-5.472,-5.4878,-5.4852,-5.454,-5.4414,-5.4286,-5.435,-5.4303,-5.4367,-4.9377,-4.9315,-4.9539,-4.9627,-4.9627,-4.9579,-4.9483,-4.9416,-4.9375,-4.9442,-4.9627,-4.9803,-4.9811,-4.957,-4.9568,-4.954,-4.9465,-5.0147,-5.0815,-5.1504,-5.2232,-5.2753,-5.3213,-5.3351,-5.3226,-5.3203,-5.3017,-5.2722,-5.2417,-5.23,-5.2083,-5.1804,-5.169,-5.147,-5.1211,-5.0946,-5.0637,-5.048,-4.9993,-4.9571,-4.9323,-4.9342,-4.9521,-4.9393,-4.9188,-4.9046,-4.8928,-4.874,-4.866,-4.8517,-4.842,-4.8227,-4.8146,-4.8065,-4.7968,-4.7902,-4.7951,-4.7951,-4.7886,-4.8134,-4.858,-4.8978,-4.9306,-4.9891,-5.0336,-5.0393,-5.0708,-5.1078,-5.1507,-5.1845,-5.2017,-5.2252,-5.2421,-5.2775,-5.2739,-5.2754,-5.3044,-5.3213,-5.3737,-5.4432,-5.4194,-5.39,-5.3904,-5.3854,-5.3534,-5.3534,-5.3484,-5.3416,-5.3348,-5.3297,-5.3832,-5.4171,-5.4499,-5.4686,-5.4624,-5.4791,-5.5017,-5.4774,-5.4402,-5.4385,-5.4305,-5.4051,-5.3857,-5.3744,-5.3613,-5.3713,-5.3943,-5.4089,-5.396,-5.3583,-5.3583,-5.3666,-5.3732,-5.3798,-5.3649,-4.9079,-4.8959,-4.9206,-4.9334,-4.9302,-4.9201,-4.915,-4.9118,-4.9023,-4.8922,-4.8937,-4.9145,-4.919,-4.9252,-4.9227,-4.9277,-4.959,-5.025,-5.0783,-5.1219,-5.194,-5.2212,-5.2326,-5.2463,-5.2499,-5.2536,-5.2415,-5.2191,-5.1928,-5.1732,-5.1533,-5.1556,-5.1436,-5.1297,-5.1035,-5.0622,-5.0102,-4.9739,-4.9197,-4.8624,-4.8608,-4.8792,-4.894,-4.8931,-4.8866,-4.8736,-4.8597,-4.8439,-4.8196,-4.8066,-4.7836,-4.7787,-4.7787,-4.7704,-4.7671,-4.762,-4.7767,-4.7767,-4.7765,-4.8312,-4.8521,-4.8772,-4.9092,-4.9499,-4.9985,-5.0294,-5.0609,-5.0807,-5.1231,-5.1483,-5.1713,-5.1743,-5.1888,-5.2015,-5.1727,-5.1743,-5.2032,-5.242,-5.3268,-5.4186,-5.3956,-5.3635,-5.3568,-5.3518,-5.3416,-5.3416,-5.3348,-5.3264,-5.3127,-5.3058,-5.323,-5.3382,-5.3482,-5.3615,-5.3698,-5.3861,-5.4021,-5.3778,-5.3448,-5.3564,-5.3481,-5.3027,-5.2822,-5.2907,-5.2855,-5.2924,-5.2924,-5.2992,-5.2819,-5.275,-5.2733,-5.2786,-5.2786,-5.2717,-5.2561,-4.8943,-4.889,-4.8978,-4.8993,-4.8978,-4.889,-4.8839,-4.8731,-4.866,-4.855,-4.8476,-4.8439,-4.855,-4.8863,-4.8877,-4.9062,-4.9566,-5.0285,-5.0684,-5.1048,-5.1817,-5.17,-5.1611,-5.1928,-5.2,-5.192,-5.1871,-5.1822,-5.139,-5.0981,-5.0794,-5.0743,-5.0022,-4.9879,-4.9821,-4.9436,-4.8948,-4.8624,-4.8169,-4.7556,-4.7177,-4.7371,-4.772,-4.7725,-4.7641,-4.7618,-4.7605,-4.744,-4.7372,-4.727,-4.705,-4.715,-4.7218,-4.7319,-4.7368,-4.7443,-4.7586,-4.7863,-4.8095,-4.8551,-4.8849,-4.9216,-4.9544,-4.9732,-5.0041,-5.0035,-5.0233,-5.0141,-5.0429,-5.0505,-5.0615,-5.0554,-5.0538,-5.0946,-5.093,-5.1377,-5.1832,-5.2208,-5.274,-5.3308,-5.35,-5.3365,-5.3433,-5.3314,-5.3196,-5.3145,-5.3025,-5.2939,-5.2903,-5.2834,-5.2764,-5.2731,-5.2697,-5.2661,-5.2817,-5.2784,-5.2889,-5.2644,-5.2503,-5.254,-5.2312,-5.1786,-5.1655,-5.1898,-5.2026,-5.2186,-5.2115,-5.1954,-5.2082,-5.201,-5.1905,-5.1888,-5.1832,-5.1776,-5.1557]}]]